| time (UTC) | temp F | wind direction | speed MPH | gust MPH | rain 1hr in | rain 24hr in | rain mn in | humidity % | barometer mb |
| 20260506012045 | 53 | 309 | 3.0 | 4.0 | 0.00 | 0.00 | 0.00 | 100 | 1011.5 |
| 20260506011945 | 53 | 360 | 3.0 | 4.0 | 0.00 | 0.00 | 0.00 | 100 | 1011.4 |
| 20260506011845 | 53 | 346 | 2.0 | 4.0 | 0.00 | 0.00 | 0.00 | 100 | 1011.4 |
| 20260506011745 | 53 | 17 | 4.0 | 5.0 | 0.00 | 0.00 | 0.00 | 100 | 1011.4 |
| 20260506011712 | 53 | 17 | 4.0 | 5.0 | 0.00 | 0.00 | 0.00 | 100 | 1011.4 |
| 20260506011645 | 53 | 339 | 4.0 | 5.0 | 0.00 | 0.00 | 0.00 | 100 | 1011.5 |
| 20260506011545 | 53 | 329 | 2.0 | 5.0 | 0.00 | 0.00 | 0.00 | 100 | 1011.4 |
| 20260506011444 | 53 | 305 | 3.0 | 5.0 | 0.00 | 0.00 | 0.00 | 100 | 1011.5 |
| 20260506011344 | 53 | 350 | 3.0 | 3.0 | 0.00 | 0.00 | 0.00 | 100 | 1011.5 |
| 20260506011244 | 53 | 340 | 2.0 | 4.0 | 0.00 | 0.00 | 0.00 | 100 | 1011.5 |
| 20260506011212 | 53 | 340 | 2.0 | 4.0 | 0.00 | 0.00 | 0.00 | 100 | 1011.5 |
| 20260506011144 | 53 | 347 | 3.0 | 3.0 | 0.00 | 0.00 | 0.00 | 100 | 1011.4 |
| 20260506011044 | 53 | 350 | 0.0 | 3.0 | 0.00 | 0.00 | 0.00 | 100 | 1011.5 |
| 20260506010944 | 53 | 344 | 3.0 | 3.0 | 0.00 | 0.00 | 0.00 | 100 | 1011.5 |
| 20260506010846 | 53 | 355 | 2.0 | 3.0 | 0.00 | 0.00 | 0.00 | 100 | 1011.5 |
| 20260506010746 | 53 | 12 | 3.0 | 5.0 | 0.00 | 0.00 | 0.00 | 100 | 1011.5 |
| 20260506010712 | 53 | 12 | 3.0 | 5.0 | 0.00 | 0.00 | 0.00 | 100 | 1011.5 |
| 20260506010645 | 53 | 338 | 1.0 | 5.0 | 0.00 | 0.00 | 0.00 | 100 | 1011.5 |
| 20260506010545 | 53 | 37 | 3.0 | 5.0 | 0.00 | 0.00 | 0.00 | 100 | 1011.5 |
| 20260506010444 | 53 | 33 | 1.0 | 4.0 | 0.00 | 0.00 | 0.00 | 100 | 1011.5 |
| 20260506010344 | 53 | 360 | 4.0 | 4.0 | 0.00 | 0.00 | 0.00 | 100 | 1011.5 |
| 20260506010244 | 53 | 350 | 2.0 | 4.0 | 0.00 | 0.00 | 0.00 | 100 | 1011.5 |
| 20260506010213 | 53 | 350 | 2.0 | 4.0 | 0.00 | 0.00 | 0.00 | 100 | 1011.5 |
| 20260506010144 | 53 | 348 | 3.0 | 4.0 | 0.00 | 0.00 | 0.00 | 100 | 1011.6 |
| 20260506010044 | 53 | 31 | 2.0 | 3.0 | 0.00 | 0.00 | 0.00 | 100 | 1011.6 |
| 20260506005946 | 53 | 19 | 2.0 | 3.0 | 0.00 | 0.00 | 0.00 | 100 | 1011.6 |
| 20260506005846 | 53 | 327 | 3.0 | 3.0 | 0.00 | 0.00 | 0.00 | 100 | 1011.6 |
| 20260506005746 | 53 | 49 | 4.0 | 6.0 | 0.00 | 0.00 | 0.00 | 100 | 1011.6 |
| 20260506005712 | 53 | 49 | 4.0 | 6.0 | 0.00 | 0.00 | 0.00 | 100 | 1011.6 |
| 20260506005645 | 53 | 319 | 5.0 | 6.0 | 0.00 | 0.00 | 0.00 | 100 | 1011.6 |
| 20260506005545 | 53 | 5 | 2.0 | 3.0 | 0.00 | 0.00 | 0.00 | 100 | 1011.6 |
| 20260506005445 | 53 | 340 | 1.0 | 3.0 | 0.00 | 0.00 | 0.00 | 100 | 1011.6 |
| 20260506005345 | 53 | 14 | 3.0 | 3.0 | 0.00 | 0.00 | 0.00 | 100 | 1011.6 |
| 20260506005245 | 53 | 355 | 2.0 | 5.0 | 0.00 | 0.00 | 0.00 | 100 | 1011.6 |
| 20260506005213 | 53 | 355 | 2.0 | 5.0 | 0.00 | 0.00 | 0.00 | 100 | 1011.6 |
| 20260506005144 | 53 | 5 | 2.0 | 5.0 | 0.00 | 0.00 | 0.00 | 100 | 1011.7 |
| 20260506005044 | 53 | 26 | 3.0 | 5.0 | 0.00 | 0.00 | 0.00 | 100 | 1011.7 |
| 20260506004945 | 53 | 31 | 2.0 | 3.0 | 0.00 | 0.00 | 0.00 | 100 | 1011.7 |
| 20260506004845 | 53 | 5 | 3.0 | 3.0 | 0.00 | 0.00 | 0.00 | 100 | 1011.7 |
| 20260506004745 | 53 | 346 | 2.0 | 6.0 | 0.00 | 0.00 | 0.00 | 100 | 1011.7 |
| 20260506004711 | 53 | 346 | 2.0 | 6.0 | 0.00 | 0.00 | 0.00 | 100 | 1011.7 |
| 20260506004645 | 53 | 25 | 2.0 | 6.0 | 0.00 | 0.00 | 0.00 | 100 | 1011.7 |
| 20260506004545 | 53 | 10 | 3.0 | 6.0 | 0.00 | 0.00 | 0.00 | 100 | 1011.7 |
| 20260506004445 | 53 | 344 | 3.0 | 6.0 | 0.00 | 0.00 | 0.00 | 100 | 1011.6 |
| 20260506004344 | 53 | 337 | 3.0 | 6.0 | 0.00 | 0.00 | 0.00 | 100 | 1011.7 |
| 20260506004244 | 53 | 5 | 3.0 | 9.0 | 0.00 | 0.00 | 0.00 | 100 | 1011.6 |
| 20260506004212 | 53 | 5 | 3.0 | 9.0 | 0.00 | 0.00 | 0.00 | 100 | 1011.6 |
| 20260506004146 | 53 | 355 | 9.0 | 9.0 | 0.00 | 0.00 | 0.00 | 100 | 1011.6 |
| 20260506004046 | 53 | 16 | 7.0 | 7.0 | 0.00 | 0.00 | 0.00 | 100 | 1011.7 |
| 20260506003946 | 53 | 355 | 7.0 | 7.0 | 0.00 | 0.00 | 0.00 | 100 | 1011.6 |
| 20260506003846 | 53 | 351 | 4.0 | 6.0 | 0.00 | 0.00 | 0.00 | 100 | 1011.6 |
| 20260506003746 | 53 | 20 | 6.0 | 7.0 | 0.00 | 0.00 | 0.00 | 100 | 1011.6 |
| 20260506003713 | 53 | 20 | 6.0 | 7.0 | 0.00 | 0.00 | 0.00 | 100 | 1011.6 |
| 20260506003645 | 53 | 350 | 2.0 | 7.0 | 0.00 | 0.00 | 0.00 | 100 | 1011.6 |
| 20260506003545 | 53 | 43 | 3.0 | 7.0 | 0.00 | 0.00 | 0.00 | 100 | 1011.7 |
| 20260506003445 | 53 | 21 | 4.0 | 7.0 | 0.00 | 0.00 | 0.00 | 100 | 1011.6 |
| 20260506003345 | 53 | 45 | 3.0 | 5.0 | 0.00 | 0.00 | 0.00 | 100 | 1011.7 |
| 20260506003244 | 53 | 15 | 4.0 | 7.0 | 0.00 | 0.00 | 0.00 | 100 | 1011.6 |
| 20260506003213 | 53 | 15 | 4.0 | 7.0 | 0.00 | 0.00 | 0.00 | 100 | 1011.6 |
| 20260506003145 | 53 | 360 | 1.0 | 7.0 | 0.00 | 0.00 | 0.00 | 100 | 1011.6 |
| 20260506003044 | 53 | 9 | 3.0 | 7.0 | 0.00 | 0.00 | 0.00 | 100 | 1011.6 |
| 20260506002944 | 53 | 21 | 7.0 | 7.0 | 0.00 | 0.00 | 0.00 | 100 | 1011.7 |
| 20260506002844 | 53 | 340 | 3.0 | 7.0 | 0.00 | 0.00 | 0.00 | 100 | 1011.7 |
| 20260506002746 | 53 | 332 | 3.0 | 8.0 | 0.00 | 0.00 | 0.00 | 100 | 1011.7 |
| 20260506002712 | 53 | 332 | 3.0 | 8.0 | 0.00 | 0.00 | 0.00 | 100 | 1011.7 |
| 20260506002646 | 54 | 333 | 3.0 | 8.0 | 0.00 | 0.00 | 0.00 | 100 | 1011.7 |
| 20260506002546 | 54 | 17 | 3.0 | 8.0 | 0.00 | 0.00 | 0.00 | 100 | 1011.7 |
| 20260506002446 | 54 | 29 | 3.0 | 8.0 | 0.00 | 0.00 | 0.00 | 100 | 1011.7 |
| 20260506002346 | 54 | 307 | 8.0 | 8.0 | 0.00 | 0.00 | 0.00 | 100 | 1011.7 |
| 20260506002246 | 54 | 355 | 5.0 | 9.0 | 0.00 | 0.00 | 0.00 | 100 | 1011.6 |
| 20260506002211 | 54 | 355 | 5.0 | 9.0 | 0.00 | 0.00 | 0.00 | 100 | 1011.6 |
| 20260506002145 | 54 | 19 | 4.0 | 7.0 | 0.00 | 0.00 | 0.00 | 100 | 1011.7 |
| 20260506002045 | 54 | 28 | 3.0 | 7.0 | 0.00 | 0.00 | 0.00 | 100 | 1011.7 |
| 20260506001945 | 54 | 17 | 4.0 | 7.0 | 0.00 | 0.00 | 0.00 | 100 | 1011.6 |
| 20260506001845 | 54 | 20 | 7.0 | 7.0 | 0.00 | 0.00 | 0.00 | 100 | 1011.7 |
| 20260506001745 | 54 | 5 | 4.0 | 9.0 | 0.00 | 0.00 | 0.00 | 100 | 1011.7 |
| 20260506001711 | 54 | 5 | 4.0 | 9.0 | 0.00 | 0.00 | 0.00 | 100 | 1011.7 |
| 20260506001645 | 54 | 36 | 3.0 | 9.0 | 0.00 | 0.00 | 0.00 | 100 | 1011.7 |
| 20260506001545 | 54 | 36 | 7.0 | 9.0 | 0.00 | 0.00 | 0.00 | 100 | 1011.7 |
| 20260506001445 | 54 | 355 | 3.0 | 6.0 | 0.00 | 0.00 | 0.00 | 100 | 1011.7 |
| 20260506001344 | 54 | 34 | 3.0 | 6.0 | 0.00 | 0.00 | 0.00 | 100 | 1011.7 |
| 20260506001245 | 54 | 339 | 2.0 | 10.0 | 0.00 | 0.00 | 0.00 | 100 | 1011.7 |
| 20260506001212 | 54 | 339 | 2.0 | 10.0 | 0.00 | 0.00 | 0.00 | 100 | 1011.7 |
| 20260506001144 | 54 | 349 | 4.0 | 10.0 | 0.00 | 0.00 | 0.00 | 100 | 1011.7 |
| 20260506001044 | 54 | 9 | 5.0 | 10.0 | 0.00 | 0.00 | 0.00 | 100 | 1011.6 |
| 20260506000945 | 54 | 13 | 3.0 | 10.0 | 0.00 | 0.00 | 0.00 | 100 | 1011.6 |
| 20260506000845 | 54 | 332 | 9.0 | 10.0 | 0.00 | 0.00 | 0.00 | 100 | 1011.7 |
| 20260506000745 | 54 | 306 | 3.0 | 6.0 | 0.00 | 0.00 | 0.00 | 100 | 1011.6 |
| 20260506000711 | 54 | 306 | 3.0 | 6.0 | 0.00 | 0.00 | 0.00 | 100 | 1011.6 |
| 20260506000645 | 54 | 77 | 2.0 | 6.0 | 0.00 | 0.00 | 0.00 | 100 | 1011.6 |
| 20260506000545 | 54 | 336 | 4.0 | 6.0 | 0.00 | 0.00 | 0.00 | 100 | 1011.7 |
| 20260506000445 | 54 | 350 | 3.0 | 6.0 | 0.00 | 0.00 | 0.00 | 100 | 1011.7 |
| 20260506000346 | 54 | 36 | 3.0 | 5.0 | 0.00 | 0.00 | 0.00 | 100 | 1011.7 |
| 20260506000247 | 54 | 23 | 4.0 | 5.0 | 0.00 | 0.00 | 0.00 | 100 | 1011.7 |
| 20260506000212 | 54 | 23 | 4.0 | 5.0 | 0.00 | 0.00 | 0.00 | 100 | 1011.7 |
| 20260506000145 | 54 | 355 | 4.0 | 4.0 | 0.00 | 0.00 | 0.00 | 100 | 1011.7 |
| 20260506000045 | 54 | 12 | 3.0 | 4.0 | 0.00 | 0.00 | 0.00 | 100 | 1011.7 |
| 20260505235945 | 54 | 338 | 2.0 | 3.0 | 0.00 | 0.00 | 0.00 | 100 | 1011.7 |
| 20260505235844 | 54 | 40 | 2.0 | 3.0 | 0.00 | 0.00 | 0.00 | 100 | 1011.7 |
| 20260505235744 | 54 | 27 | 3.0 | 7.0 | 0.00 | 0.00 | 0.00 | 100 | 1011.7 |
| 20260505235712 | 54 | 27 | 3.0 | 7.0 | 0.00 | 0.00 | 0.00 | 100 | 1011.7 |
| 20260505235644 | 54 | 27 | 3.0 | 7.0 | 0.00 | 0.00 | 0.00 | 100 | 1011.7 |
| 20260505235544 | 54 | 336 | 3.0 | 7.0 | 0.00 | 0.00 | 0.00 | 100 | 1011.7 |
| 20260505235444 | 54 | 9 | 2.0 | 3.0 | 0.00 | 0.00 | 0.00 | 100 | 1011.7 |
| 20260505235345 | 54 | 17 | 3.0 | 3.0 | 0.00 | 0.00 | 0.00 | 100 | 1011.6 |
| 20260505235245 | 54 | 28 | 3.0 | 7.0 | 0.00 | 0.00 | 0.00 | 100 | 1011.7 |
| 20260505235213 | 54 | 28 | 3.0 | 7.0 | 0.00 | 0.00 | 0.00 | 100 | 1011.7 |
| 20260505235145 | 54 | 24 | 3.0 | 7.0 | 0.00 | 0.00 | 0.00 | 100 | 1011.7 |
| 20260505235045 | 54 | 337 | 4.0 | 7.0 | 0.00 | 0.00 | 0.00 | 100 | 1011.7 |
| 20260505234946 | 54 | 36 | 5.0 | 7.0 | 0.00 | 0.00 | 0.00 | 100 | 1011.7 |
| 20260505234845 | 54 | 17 | 3.0 | 4.0 | 0.00 | 0.00 | 0.00 | 100 | 1011.7 |
| 20260505234745 | 54 | 18 | 1.0 | 7.0 | 0.00 | 0.00 | 0.00 | 100 | 1011.7 |
| 20260505234713 | 54 | 18 | 1.0 | 7.0 | 0.00 | 0.00 | 0.00 | 100 | 1011.7 |
| 20260505234644 | 54 | 346 | 3.0 | 7.0 | 0.00 | 0.00 | 0.00 | 100 | 1011.7 |
| 20260505234544 | 54 | 350 | 3.0 | 7.0 | 0.00 | 0.00 | 0.00 | 100 | 1011.7 |
| 20260505234444 | 54 | 13 | 3.0 | 7.0 | 0.00 | 0.00 | 0.00 | 100 | 1011.7 |
| 20260505234344 | 54 | 34 | 5.0 | 7.0 | 0.00 | 0.00 | 0.00 | 100 | 1011.7 |
| 20260505234244 | 54 | 34 | 3.0 | 6.0 | 0.00 | 0.00 | 0.00 | 100 | 1011.7 |
| 20260505234212 | 54 | 34 | 3.0 | 6.0 | 0.00 | 0.00 | 0.00 | 100 | 1011.7 |
| 20260505234144 | 54 | 34 | 3.0 | 6.0 | 0.00 | 0.00 | 0.00 | 100 | 1011.7 |
| 20260505234044 | 54 | 39 | 3.0 | 6.0 | 0.00 | 0.00 | 0.00 | 100 | 1011.7 |
| 20260505233944 | 54 | 13 | 3.0 | 6.0 | 0.00 | 0.00 | 0.00 | 100 | 1011.7 |
| 20260505233844 | 54 | 59 | 3.0 | 3.0 | 0.00 | 0.00 | 0.00 | 100 | 1011.7 |
| 20260505233744 | 54 | 46 | 3.0 | 8.0 | 0.00 | 0.00 | 0.00 | 100 | 1011.7 |
| 20260505233712 | 54 | 46 | 3.0 | 8.0 | 0.00 | 0.00 | 0.00 | 100 | 1011.7 |
| 20260505233644 | 54 | 344 | 4.0 | 8.0 | 0.00 | 0.00 | 0.00 | 100 | 1011.7 |
| 20260505233546 | 54 | 326 | 3.0 | 6.0 | 0.00 | 0.00 | 0.00 | 100 | 1011.7 |
| 20260505233446 | 54 | 26 | 3.0 | 6.0 | 0.00 | 0.00 | 0.00 | 100 | 1011.7 |
| 20260505233346 | 54 | 22 | 2.0 | 6.0 | 0.00 | 0.00 | 0.00 | 100 | 1011.6 |
| 20260505233246 | 54 | 36 | 8.0 | 11.0 | 0.00 | 0.00 | 0.00 | 100 | 1011.7 |
| 20260505233213 | 54 | 36 | 8.0 | 11.0 | 0.00 | 0.00 | 0.00 | 100 | 1011.7 |
| 20260505233144 | 54 | 11 | 3.0 | 11.0 | 0.00 | 0.00 | 0.00 | 100 | 1011.6 |
| 20260505233044 | 54 | 22 | 6.0 | 11.0 | 0.00 | 0.00 | 0.00 | 100 | 1011.6 |
| 20260505232944 | 54 | 5 | 3.0 | 8.0 | 0.00 | 0.00 | 0.00 | 100 | 1011.6 |
| 20260505232844 | 54 | 327 | 5.0 | 8.0 | 0.00 | 0.00 | 0.00 | 100 | 1011.6 |
| 20260505232744 | 54 | 16 | 7.0 | 9.0 | 0.00 | 0.00 | 0.00 | 100 | 1011.6 |
| 20260505232712 | 54 | 16 | 7.0 | 9.0 | 0.00 | 0.00 | 0.00 | 100 | 1011.6 |
| 20260505232644 | 54 | 15 | 6.0 | 9.0 | 0.00 | 0.00 | 0.00 | 100 | 1011.7 |
| 20260505232544 | 54 | 15 | 3.0 | 8.0 | 0.00 | 0.00 | 0.00 | 100 | 1011.6 |
| 20260505232444 | 54 | 9 | 8.0 | 8.0 | 0.00 | 0.00 | 0.00 | 100 | 1011.6 |
| 20260505232346 | 54 | 9 | 3.0 | 8.0 | 0.00 | 0.00 | 0.00 | 100 | 1011.6 |
| 20260505232246 | 54 | 333 | 9.0 | 9.0 | 0.00 | 0.00 | 0.00 | 100 | 1011.6 |
| 20260505232212 | 54 | 333 | 9.0 | 9.0 | 0.00 | 0.00 | 0.00 | 100 | 1011.6 |
| 20260505232146 | 54 | 25 | 2.0 | 4.0 | 0.00 | 0.00 | 0.00 | 100 | 1011.6 |
| 20260505232046 | 54 | 20 | 3.0 | 4.0 | 0.00 | 0.00 | 0.00 | 100 | 1011.6 |
| 20260505231944 | 54 | 16 | 3.0 | 4.0 | 0.00 | 0.00 | 0.00 | 100 | 1011.6 |
| 20260505231844 | 54 | 349 | 3.0 | 4.0 | 0.00 | 0.00 | 0.00 | 100 | 1011.6 |
| 20260505231744 | 54 | 342 | 4.0 | 7.0 | 0.00 | 0.00 | 0.00 | 100 | 1011.6 |
| 20260505231712 | 54 | 342 | 4.0 | 7.0 | 0.00 | 0.00 | 0.00 | 100 | 1011.6 |
| 20260505231646 | 54 | 36 | 5.0 | 7.0 | 0.00 | 0.00 | 0.00 | 100 | 1011.6 |
| 20260505231546 | 54 | 349 | 3.0 | 7.0 | 0.00 | 0.00 | 0.00 | 100 | 1011.6 |
| 20260505231446 | 54 | 28 | 3.0 | 7.0 | 0.00 | 0.00 | 0.00 | 100 | 1011.6 |
| 20260505231346 | 54 | 26 | 7.0 | 7.0 | 0.00 | 0.00 | 0.00 | 100 | 1011.6 |
| 20260505231245 | 54 | 350 | 4.0 | 7.0 | 0.00 | 0.00 | 0.00 | 100 | 1011.6 |
| 20260505231213 | 54 | 350 | 4.0 | 7.0 | 0.00 | 0.00 | 0.00 | 100 | 1011.6 |
| 20260505231145 | 54 | 355 | 3.0 | 7.0 | 0.00 | 0.00 | 0.00 | 100 | 1011.5 |
| 20260505231045 | 54 | 11 | 4.0 | 7.0 | 0.00 | 0.00 | 0.00 | 100 | 1011.6 |
| 20260505230945 | 54 | 348 | 5.0 | 6.0 | 0.00 | 0.00 | 0.00 | 100 | 1011.6 |
| 20260505230845 | 54 | 12 | 3.0 | 6.0 | 0.00 | 0.00 | 0.00 | 100 | 1011.5 |
| 20260505230744 | 54 | 35 | 3.0 | 10.0 | 0.00 | 0.00 | 0.00 | 100 | 1011.6 |
| 20260505230712 | 54 | 35 | 3.0 | 10.0 | 0.00 | 0.00 | 0.00 | 100 | 1011.6 |
| 20260505230644 | 54 | 338 | 8.0 | 8.0 | 0.00 | 0.00 | 0.00 | 100 | 1011.6 |
| 20260505230544 | 54 | 22 | 4.0 | 7.0 | 0.00 | 0.00 | 0.00 | 100 | 1011.6 |
| 20260505230444 | 54 | 13 | 3.0 | 6.0 | 0.00 | 0.00 | 0.00 | 100 | 1011.6 |
| 20260505230344 | 54 | 336 | 3.0 | 3.0 | 0.00 | 0.00 | 0.00 | 100 | 1011.6 |
| 20260505230245 | 54 | 25 | 2.0 | 8.0 | 0.00 | 0.00 | 0.00 | 100 | 1011.7 |
| 20260505230211 | 54 | 25 | 2.0 | 8.0 | 0.00 | 0.00 | 0.00 | 100 | 1011.7 |
| 20260505230145 | 54 | 13 | 5.0 | 8.0 | 0.00 | 0.00 | 0.00 | 100 | 1011.6 |
| 20260505230045 | 54 | 31 | 4.0 | 8.0 | 0.00 | 0.00 | 0.00 | 100 | 1011.6 |
| 20260505225945 | 54 | 63 | 7.0 | 8.0 | 0.00 | 0.00 | 0.00 | 100 | 1011.7 |
| 20260505225845 | 54 | 34 | 3.0 | 5.0 | 0.00 | 0.00 | 0.00 | 100 | 1011.7 |
| 20260505225744 | 54 | 20 | 3.0 | 7.0 | 0.00 | 0.00 | 0.00 | 100 | 1011.6 |
| 20260505225712 | 54 | 20 | 3.0 | 7.0 | 0.00 | 0.00 | 0.00 | 100 | 1011.6 |
| 20260505225644 | 54 | 360 | 3.0 | 7.0 | 0.00 | 0.00 | 0.00 | 100 | 1011.6 |
| 20260505225544 | 54 | 46 | 1.0 | 6.0 | 0.00 | 0.00 | 0.00 | 100 | 1011.6 |
| 20260505225444 | 54 | 17 | 2.0 | 6.0 | 0.00 | 0.00 | 0.00 | 100 | 1011.6 |
| 20260505225345 | 54 | 13 | 3.0 | 6.0 | 0.00 | 0.00 | 0.00 | 100 | 1011.6 |
| 20260505225245 | 54 | 26 | 0.0 | 5.0 | 0.00 | 0.00 | 0.00 | 100 | 1011.6 |
| 20260505225211 | 54 | 26 | 0.0 | 5.0 | 0.00 | 0.00 | 0.00 | 100 | 1011.6 |
| 20260505225145 | 54 | 11 | 2.0 | 5.0 | 0.00 | 0.00 | 0.00 | 100 | 1011.6 |
| 20260505225045 | 54 | 55 | 3.0 | 5.0 | 0.00 | 0.00 | 0.00 | 100 | 1011.7 |
| 20260505224945 | 54 | 360 | 3.0 | 5.0 | 0.00 | 0.00 | 0.00 | 100 | 1011.6 |
| 20260505224846 | 54 | 348 | 3.0 | 5.0 | 0.00 | 0.00 | 0.00 | 100 | 1011.6 |
| 20260505224746 | 53 | 342 | 3.0 | 5.0 | 0.00 | 0.00 | 0.00 | 100 | 1011.7 |
| 20260505224712 | 53 | 342 | 3.0 | 5.0 | 0.00 | 0.00 | 0.00 | 100 | 1011.7 |
| 20260505224645 | 53 | 360 | 3.0 | 5.0 | 0.00 | 0.00 | 0.00 | 100 | 1011.6 |
| 20260505224545 | 53 | 39 | 3.0 | 3.0 | 0.00 | 0.00 | 0.00 | 100 | 1011.7 |
| 20260505224445 | 53 | 9 | 1.0 | 3.0 | 0.00 | 0.00 | 0.00 | 100 | 1011.7 |
| 20260505224345 | 53 | 27 | 2.0 | 3.0 | 0.00 | 0.00 | 0.00 | 100 | 1011.7 |
| 20260505224245 | 53 | 15 | 1.0 | 3.0 | 0.00 | 0.00 | 0.00 | 100 | 1011.7 |
| 20260505224211 | 53 | 15 | 1.0 | 3.0 | 0.00 | 0.00 | 0.00 | 100 | 1011.7 |
| 20260505224145 | 53 | 355 | 1.0 | 3.0 | 0.00 | 0.00 | 0.00 | 100 | 1011.7 |
| 20260505224044 | 53 | 348 | 2.0 | 2.0 | 0.00 | 0.00 | 0.00 | 100 | 1011.7 |
| 20260505223944 | 53 | 58 | 1.0 | 2.0 | 0.00 | 0.00 | 0.00 | 100 | 1011.7 |
| 20260505223846 | 53 | 17 | 1.0 | 1.0 | 0.00 | 0.00 | 0.00 | 100 | 1011.6 |
| 20260505223746 | 53 | 17 | 0.0 | 2.0 | 0.00 | 0.00 | 0.00 | 100 | 1011.6 |
| 20260505223712 | 53 | 17 | 0.0 | 2.0 | 0.00 | 0.00 | 0.00 | 100 | 1011.6 |
| 20260505223646 | 53 | 17 | 2.0 | 2.0 | 0.00 | 0.00 | 0.00 | 100 | 1011.7 |
| 20260505223545 | 53 | 26 | 1.0 | 2.0 | 0.00 | 0.00 | 0.00 | 100 | 1011.6 |
| 20260505223445 | 53 | 342 | 0.0 | 2.0 | 0.00 | 0.00 | 0.00 | 100 | 1011.6 |
| 20260505223345 | 53 | 355 | 1.0 | 1.0 | 0.00 | 0.00 | 0.00 | 100 | 1011.7 |
| 20260505223245 | 53 | 344 | 1.0 | 4.0 | 0.00 | 0.00 | 0.00 | 100 | 1011.6 |
| 20260505223213 | 53 | 344 | 1.0 | 4.0 | 0.00 | 0.00 | 0.00 | 100 | 1011.6 |
| 20260505223144 | 53 | 24 | 1.0 | 4.0 | 0.00 | 0.00 | 0.00 | 100 | 1011.6 |
| 20260505223045 | 53 | 44 | 2.0 | 4.0 | 0.00 | 0.00 | 0.00 | 100 | 1011.6 |
| 20260505222945 | 53 | 59 | 3.0 | 4.0 | 0.00 | 0.00 | 0.00 | 100 | 1011.6 |
| 20260505222845 | 53 | 92 | 1.0 | 4.0 | 0.00 | 0.00 | 0.00 | 100 | 1011.6 |
| 20260505222745 | 53 | 63 | 1.0 | 5.0 | 0.00 | 0.00 | 0.00 | 100 | 1011.7 |
| 20260505222711 | 53 | 63 | 1.0 | 5.0 | 0.00 | 0.00 | 0.00 | 100 | 1011.7 |
| 20260505222645 | 53 | 59 | 2.0 | 3.0 | 0.00 | 0.00 | 0.00 | 100 | 1011.7 |
| 20260505222545 | 53 | 15 | 2.0 | 3.0 | 0.00 | 0.00 | 0.00 | 100 | 1011.7 |
| 20260505222446 | 53 | 355 | 0.0 | 2.0 | 0.00 | 0.00 | 0.00 | 100 | 1011.7 |
| 20260505222346 | 53 | 346 | 1.0 | 2.0 | 0.00 | 0.00 | 0.00 | 100 | 1011.7 |
| 20260505222246 | 53 | 355 | 2.0 | 3.0 | 0.00 | 0.00 | 0.00 | 100 | 1011.7 |
| 20260505222212 | 53 | 355 | 2.0 | 3.0 | 0.00 | 0.00 | 0.00 | 100 | 1011.7 |
| 20260505222146 | 53 | 58 | 1.0 | 3.0 | 0.00 | 0.00 | 0.00 | 100 | 1011.7 |
| 20260505222045 | 53 | 120 | 0.0 | 2.0 | 0.00 | 0.00 | 0.00 | 100 | 1011.7 |
| 20260505221945 | 53 | 67 | 0.0 | 2.0 | 0.00 | 0.00 | 0.00 | 100 | 1011.7 |
| 20260505221844 | 53 | 67 | 2.0 | 2.0 | 0.00 | 0.00 | 0.00 | 100 | 1011.7 |
| 20260505221745 | 53 | 355 | 1.0 | 3.0 | 0.00 | 0.00 | 0.00 | 100 | 1011.7 |
| 20260505221712 | 53 | 355 | 1.0 | 3.0 | 0.00 | 0.00 | 0.00 | 100 | 1011.7 |
| 20260505221644 | 53 | 59 | 2.0 | 3.0 | 0.00 | 0.00 | 0.00 | 100 | 1011.7 |
| 20260505221546 | 53 | 17 | 3.0 | 3.0 | 0.00 | 0.00 | 0.00 | 100 | 1011.7 |
| 20260505221445 | 53 | 49 | 2.0 | 2.0 | 0.00 | 0.00 | 0.00 | 100 | 1011.7 |
| 20260505221345 | 53 | 38 | 1.0 | 1.0 | 0.00 | 0.00 | 0.00 | 100 | 1011.7 |
| 20260505221244 | 53 | 49 | 0.0 | 1.0 | 0.00 | 0.00 | 0.00 | 100 | 1011.7 |
| 20260505221212 | 53 | 49 | 0.0 | 1.0 | 0.00 | 0.00 | 0.00 | 100 | 1011.7 |
| 20260505221144 | 53 | 49 | 0.0 | 1.0 | 0.00 | 0.00 | 0.00 | 100 | 1011.7 |
| 20260505221044 | 53 | 71 | 0.0 | 1.0 | 0.00 | 0.00 | 0.00 | 100 | 1011.6 |
| 20260505220944 | 53 | 71 | 0.0 | 1.0 | 0.00 | 0.00 | 0.00 | 100 | 1011.7 |
| 20260505220844 | 53 | 73 | 1.0 | 1.0 | 0.00 | 0.00 | 0.00 | 100 | 1011.6 |
| 20260505220744 | 53 | 61 | 1.0 | 3.0 | 0.00 | 0.00 | 0.00 | 100 | 1011.7 |
| 20260505220712 | 53 | 61 | 1.0 | 3.0 | 0.00 | 0.00 | 0.00 | 100 | 1011.7 |
| 20260505220644 | 53 | 349 | 3.0 | 3.0 | 0.00 | 0.00 | 0.00 | 100 | 1011.6 |
| 20260505220546 | 53 | 40 | 1.0 | 3.0 | 0.00 | 0.00 | 0.00 | 100 | 1011.6 |
| 20260505220445 | 53 | 24 | 2.0 | 2.0 | 0.00 | 0.00 | 0.00 | 100 | 1011.6 |
| 20260505220345 | 53 | 40 | 1.0 | 1.0 | 0.00 | 0.00 | 0.00 | 100 | 1011.6 |
| 20260505220245 | 53 | 45 | 1.0 | 3.0 | 0.00 | 0.00 | 0.00 | 100 | 1011.6 |
| 20260505220213 | 53 | 45 | 1.0 | 3.0 | 0.00 | 0.00 | 0.00 | 100 | 1011.6 |
| 20260505220145 | 53 | 14 | 3.0 | 3.0 | 0.00 | 0.00 | 0.00 | 100 | 1011.6 |
| 20260505220045 | 53 | 27 | 3.0 | 3.0 | 0.00 | 0.00 | 0.00 | 100 | 1011.6 |
| 20260505215944 | 53 | 28 | 3.0 | 3.0 | 0.00 | 0.00 | 0.00 | 100 | 1011.6 |
| 20260505215844 | 53 | 28 | 1.0 | 3.0 | 0.00 | 0.00 | 0.00 | 100 | 1011.6 |
| 20260505215745 | 53 | 30 | 1.0 | 5.0 | 0.00 | 0.00 | 0.00 | 100 | 1011.6 |
| 20260505215712 | 53 | 30 | 1.0 | 5.0 | 0.00 | 0.00 | 0.00 | 100 | 1011.6 |
| 20260505215645 | 53 | 15 | 2.0 | 5.0 | 0.00 | 0.00 | 0.00 | 100 | 1011.5 |
| 20260505215545 | 53 | 80 | 3.0 | 5.0 | 0.00 | 0.00 | 0.00 | 100 | 1011.5 |
| 20260505215445 | 53 | 32 | 1.0 | 3.0 | 0.00 | 0.00 | 0.00 | 100 | 1011.5 |
| 20260505215345 | 53 | 53 | 0.0 | 3.0 | 0.00 | 0.00 | 0.00 | 100 | 1011.5 |
| 20260505215245 | 53 | 42 | 2.0 | 6.0 | 0.00 | 0.00 | 0.00 | 100 | 1011.5 |
| 20260505215211 | 53 | 42 | 2.0 | 6.0 | 0.00 | 0.00 | 0.00 | 100 | 1011.5 |
| 20260505215145 | 53 | 13 | 1.0 | 6.0 | 0.00 | 0.00 | 0.00 | 100 | 1011.5 |
| 20260505215045 | 53 | 24 | 2.0 | 6.0 | 0.00 | 0.00 | 0.00 | 100 | 1011.5 |
| 20260505214945 | 53 | 17 | 4.0 | 5.0 | 0.00 | 0.00 | 0.00 | 100 | 1011.5 |
| 20260505214845 | 53 | 46 | 4.0 | 5.0 | 0.00 | 0.00 | 0.00 | 100 | 1011.5 |
| 20260505214745 | 53 | 54 | 2.0 | 10.0 | 0.00 | 0.00 | 0.00 | 100 | 1011.5 |
| 20260505214713 | 53 | 54 | 2.0 | 10.0 | 0.00 | 0.00 | 0.00 | 100 | 1011.5 |
| 20260505214645 | 53 | 35 | 5.0 | 10.0 | 0.00 | 0.00 | 0.00 | 100 | 1011.5 |
| 20260505214545 | 53 | 38 | 7.0 | 10.0 | 0.00 | 0.00 | 0.00 | 100 | 1011.6 |
| 20260505214446 | 53 | 88 | 3.0 | 10.0 | 0.00 | 0.00 | 0.00 | 100 | 1011.5 |
| 20260505214346 | 53 | 11 | 3.0 | 10.0 | 0.00 | 0.00 | 0.00 | 100 | 1011.6 |
| 20260505214245 | 53 | 24 | 2.0 | 4.0 | 0.00 | 0.00 | 0.00 | 100 | 1011.5 |
| 20260505214211 | 53 | 24 | 2.0 | 4.0 | 0.00 | 0.00 | 0.00 | 100 | 1011.5 |
| 20260505214145 | 53 | 360 | 3.0 | 4.0 | 0.00 | 0.00 | 0.00 | 100 | 1011.5 |
| 20260505214044 | 53 | 38 | 2.0 | 3.0 | 0.00 | 0.00 | 0.00 | 100 | 1011.5 |
| 20260505213944 | 53 | 40 | 2.0 | 3.0 | 0.00 | 0.00 | 0.00 | 100 | 1011.6 |
| 20260505213844 | 53 | 57 | 2.0 | 3.0 | 0.00 | 0.00 | 0.00 | 100 | 1011.5 |
| 20260505213744 | 53 | 19 | 2.0 | 5.0 | 0.00 | 0.00 | 0.00 | 100 | 1011.5 |
| 20260505213712 | 53 | 19 | 2.0 | 5.0 | 0.00 | 0.00 | 0.00 | 100 | 1011.5 |
| 20260505213644 | 53 | 24 | 3.0 | 5.0 | 0.00 | 0.00 | 0.00 | 100 | 1011.5 |
| 20260505213544 | 53 | 9 | 2.0 | 5.0 | 0.00 | 0.00 | 0.00 | 100 | 1011.6 |
| 20260505213444 | 53 | 9 | 1.0 | 5.0 | 0.00 | 0.00 | 0.00 | 100 | 1011.6 |
| 20260505213344 | 53 | 19 | 3.0 | 5.0 | 0.00 | 0.00 | 0.00 | 100 | 1011.5 |
| 20260505213246 | 53 | 34 | 5.0 | 5.0 | 0.00 | 0.00 | 0.00 | 100 | 1011.5 |
| 20260505213212 | 53 | 34 | 5.0 | 5.0 | 0.00 | 0.00 | 0.00 | 100 | 1011.5 |
| 20260505213145 | 53 | 25 | 2.0 | 5.0 | 0.00 | 0.00 | 0.00 | 100 | 1011.5 |
| 20260505213044 | 53 | 15 | 2.0 | 5.0 | 0.00 | 0.00 | 0.00 | 100 | 1011.6 |
| 20260505212944 | 53 | 5 | 2.0 | 5.0 | 0.00 | 0.00 | 0.00 | 100 | 1011.6 |
| 20260505212844 | 53 | 15 | 2.0 | 5.0 | 0.00 | 0.00 | 0.00 | 100 | 1011.6 |
| 20260505212744 | 53 | 34 | 2.0 | 5.0 | 0.00 | 0.00 | 0.00 | 100 | 1011.6 |
| 20260505212712 | 53 | 34 | 2.0 | 5.0 | 0.00 | 0.00 | 0.00 | 100 | 1011.6 |
| 20260505212645 | 53 | 47 | 4.0 | 5.0 | 0.00 | 0.00 | 0.00 | 100 | 1011.6 |
| 20260505212545 | 53 | 61 | 3.0 | 5.0 | 0.00 | 0.00 | 0.00 | 100 | 1011.6 |
| 20260505212445 | 53 | 18 | 2.0 | 5.0 | 0.00 | 0.00 | 0.00 | 100 | 1011.6 |
| 20260505212345 | 53 | 28 | 5.0 | 5.0 | 0.00 | 0.00 | 0.00 | 100 | 1011.6 |
| 20260505212245 | 53 | 13 | 2.0 | 7.0 | 0.00 | 0.00 | 0.00 | 100 | 1011.6 |
| 20260505212211 | 53 | 13 | 2.0 | 7.0 | 0.00 | 0.00 | 0.00 | 100 | 1011.6 |
| 20260505212145 | 53 | 24 | 1.0 | 7.0 | 0.00 | 0.00 | 0.00 | 100 | 1011.6 |
| 20260505212045 | 53 | 346 | 2.0 | 7.0 | 0.00 | 0.00 | 0.00 | 100 | 1011.6 |
| 20260505211946 | 53 | 40 | 3.0 | 7.0 | 0.00 | 0.00 | 0.00 | 100 | 1011.6 |
| 20260505211846 | 53 | 360 | 3.0 | 7.0 | 0.00 | 0.00 | 0.00 | 100 | 1011.6 |
| 20260505211746 | 53 | 342 | 2.0 | 4.0 | 0.00 | 0.00 | 0.00 | 100 | 1011.6 |
| 20260505211713 | 53 | 342 | 2.0 | 4.0 | 0.00 | 0.00 | 0.00 | 100 | 1011.6 |
| 20260505211644 | 53 | 53 | 3.0 | 4.0 | 0.00 | 0.00 | 0.00 | 100 | 1011.6 |
| 20260505211544 | 53 | 36 | 2.0 | 4.0 | 0.00 | 0.00 | 0.00 | 100 | 1011.6 |
| 20260505211444 | 53 | 28 | 1.0 | 4.0 | 0.00 | 0.00 | 0.00 | 100 | 1011.6 |
| 20260505211344 | 53 | 58 | 3.0 | 4.0 | 0.00 | 0.00 | 0.00 | 100 | 1011.6 |
| 20260505211244 | 53 | 355 | 3.0 | 6.0 | 0.00 | 0.00 | 0.00 | 100 | 1011.6 |
| 20260505211212 | 53 | 355 | 3.0 | 6.0 | 0.00 | 0.00 | 0.00 | 100 | 1011.6 |
| 20260505211144 | 53 | 19 | 3.0 | 6.0 | 0.00 | 0.00 | 0.00 | 100 | 1011.6 |
| 20260505211044 | 53 | 45 | 2.0 | 4.0 | 0.00 | 0.00 | 0.00 | 100 | 1011.6 |
| 20260505210946 | 53 | 17 | 2.0 | 4.0 | 0.00 | 0.00 | 0.00 | 100 | 1011.6 |
| 20260505210846 | 53 | 360 | 3.0 | 4.0 | 0.00 | 0.00 | 0.00 | 100 | 1011.6 |
| 20260505210746 | 53 | 360 | 2.0 | 4.0 | 0.00 | 0.00 | 0.00 | 100 | 1011.6 |
| 20260505210713 | 53 | 360 | 2.0 | 4.0 | 0.00 | 0.00 | 0.00 | 100 | 1011.6 |
| 20260505210645 | 53 | 34 | 1.0 | 2.0 | 0.00 | 0.00 | 0.00 | 100 | 1011.6 |
| 20260505210545 | 53 | 9 | 0.0 | 2.0 | 0.00 | 0.00 | 0.00 | 100 | 1011.6 |
| 20260505210445 | 53 | 9 | 0.0 | 2.0 | 0.00 | 0.00 | 0.00 | 100 | 1011.6 |
| 20260505210345 | 53 | 13 | 2.0 | 2.0 | 0.00 | 0.00 | 0.00 | 100 | 1011.6 |
| 20260505210245 | 53 | 11 | 2.0 | 4.0 | 0.00 | 0.00 | 0.00 | 100 | 1011.6 |
| 20260505210211 | 53 | 11 | 2.0 | 4.0 | 0.00 | 0.00 | 0.00 | 100 | 1011.6 |
| 20260505210145 | 53 | 42 | 0.0 | 4.0 | 0.00 | 0.00 | 0.00 | 100 | 1011.6 |
| 20260505210045 | 53 | 28 | 3.0 | 4.0 | 0.00 | 0.00 | 0.00 | 100 | 1011.6 |
| 20260505205945 | 53 | 38 | 3.0 | 4.0 | 0.00 | 0.00 | 0.00 | 100 | 1011.6 |
| 20260505205845 | 53 | 37 | 3.0 | 3.0 | 0.00 | 0.00 | 0.00 | 100 | 1011.6 |
| 20260505205746 | 53 | 23 | 3.0 | 3.0 | 0.00 | 0.00 | 0.00 | 100 | 1011.6 |
| 20260505205713 | 53 | 23 | 3.0 | 3.0 | 0.00 | 0.00 | 0.00 | 100 | 1011.6 |
| 20260505205646 | 53 | 71 | 2.0 | 3.0 | 0.00 | 0.00 | 0.00 | 100 | 1011.6 |
| 20260505205546 | 53 | 47 | 2.0 | 3.0 | 0.00 | 0.00 | 0.00 | 100 | 1011.6 |
| 20260505205445 | 53 | 29 | 2.0 | 2.0 | 0.00 | 0.00 | 0.00 | 100 | 1011.6 |
| 20260505205345 | 53 | 19 | 1.0 | 1.0 | 0.00 | 0.00 | 0.00 | 100 | 1011.6 |
| 20260505205245 | 53 | 5 | 2.0 | 3.0 | 0.00 | 0.00 | 0.00 | 100 | 1011.6 |
| 20260505205211 | 53 | 5 | 2.0 | 3.0 | 0.00 | 0.00 | 0.00 | 100 | 1011.6 |
| 20260505205145 | 53 | 5 | 2.0 | 3.0 | 0.00 | 0.00 | 0.00 | 100 | 1011.6 |
| 20260505205045 | 53 | 20 | 1.0 | 3.0 | 0.00 | 0.00 | 0.00 | 100 | 1011.6 |
| 20260505204944 | 53 | 350 | 2.0 | 3.0 | 0.00 | 0.00 | 0.00 | 100 | 1011.6 |
| 20260505204844 | 53 | 9 | 3.0 | 3.0 | 0.00 | 0.00 | 0.00 | 100 | 1011.6 |
| 20260505204746 | 53 | 5 | 2.0 | 3.0 | 0.00 | 0.00 | 0.00 | 100 | 1011.6 |
| 20260505204712 | 53 | 5 | 2.0 | 3.0 | 0.00 | 0.00 | 0.00 | 100 | 1011.6 |
| 20260505204645 | 53 | 27 | 1.0 | 3.0 | 0.00 | 0.00 | 0.00 | 100 | 1011.6 |
| 20260505204545 | 53 | 340 | 3.0 | 3.0 | 0.00 | 0.00 | 0.00 | 100 | 1011.6 |
| 20260505204444 | 53 | 43 | 2.0 | 3.0 | 0.00 | 0.00 | 0.00 | 100 | 1011.5 |
| 20260505204344 | 53 | 5 | 2.0 | 3.0 | 0.00 | 0.00 | 0.00 | 100 | 1011.6 |
| 20260505204246 | 53 | 13 | 2.0 | 4.0 | 0.00 | 0.00 | 0.00 | 100 | 1011.6 |
| 20260505204212 | 53 | 13 | 2.0 | 4.0 | 0.00 | 0.00 | 0.00 | 100 | 1011.6 |
| 20260505204146 | 53 | 5 | 1.0 | 4.0 | 0.00 | 0.00 | 0.00 | 100 | 1011.6 |
| 20260505204046 | 53 | 5 | 2.0 | 4.0 | 0.00 | 0.00 | 0.00 | 100 | 1011.6 |
| 20260505203946 | 53 | 13 | 1.0 | 4.0 | 0.00 | 0.00 | 0.00 | 100 | 1011.5 |
| 20260505203846 | 53 | 42 | 3.0 | 4.0 | 0.00 | 0.00 | 0.00 | 100 | 1011.5 |
| 20260505203745 | 53 | 54 | 3.0 | 5.0 | 0.00 | 0.00 | 0.00 | 100 | 1011.5 |
| 20260505203711 | 53 | 54 | 3.0 | 5.0 | 0.00 | 0.00 | 0.00 | 100 | 1011.5 |
| 20260505203645 | 53 | 40 | 3.0 | 5.0 | 0.00 | 0.00 | 0.00 | 100 | 1011.5 |
| 20260505203544 | 53 | 32 | 5.0 | 5.0 | 0.00 | 0.00 | 0.00 | 100 | 1011.5 |
| 20260505203444 | 53 | 34 | 3.0 | 3.0 | 0.00 | 0.00 | 0.00 | 100 | 1011.5 |
| 20260505203344 | 53 | 50 | 2.0 | 3.0 | 0.00 | 0.00 | 0.00 | 100 | 1011.5 |
| 20260505203244 | 53 | 355 | 3.0 | 7.0 | 0.00 | 0.00 | 0.00 | 100 | 1011.5 |
| 20260505203212 | 53 | 355 | 3.0 | 7.0 | 0.00 | 0.00 | 0.00 | 100 | 1011.5 |
| 20260505203146 | 53 | 32 | 2.0 | 7.0 | 0.00 | 0.00 | 0.00 | 100 | 1011.5 |
| 20260505203046 | 53 | 28 | 1.0 | 7.0 | 0.00 | 0.00 | 0.00 | 100 | 1011.4 |
| 20260505202946 | 54 | 80 | 6.0 | 7.0 | 0.00 | 0.00 | 0.00 | 100 | 1011.5 |
| 20260505202846 | 54 | 45 | 2.0 | 2.0 | 0.00 | 0.00 | 0.00 | 100 | 1011.4 |
| 20260505202745 | 54 | 17 | 1.0 | 5.0 | 0.00 | 0.00 | 0.00 | 100 | 1011.5 |
| 20260505202712 | 54 | 17 | 1.0 | 5.0 | 0.00 | 0.00 | 0.00 | 100 | 1011.5 |
| 20260505202644 | 54 | 29 | 1.0 | 4.0 | 0.00 | 0.00 | 0.00 | 100 | 1011.4 |
| 20260505202545 | 54 | 53 | 3.0 | 4.0 | 0.00 | 0.00 | 0.00 | 100 | 1011.4 |
| 20260505202445 | 54 | 28 | 3.0 | 4.0 | 0.00 | 0.00 | 0.00 | 100 | 1011.5 |
| 20260505202345 | 54 | 355 | 2.0 | 3.0 | 0.00 | 0.00 | 0.00 | 100 | 1011.5 |
| 20260505202246 | 54 | 360 | 3.0 | 5.0 | 0.00 | 0.00 | 0.00 | 100 | 1011.5 |
| 20260505202212 | 54 | 360 | 3.0 | 5.0 | 0.00 | 0.00 | 0.00 | 100 | 1011.5 |
| 20260505202146 | 54 | 26 | 1.0 | 5.0 | 0.00 | 0.00 | 0.00 | 100 | 1011.4 |
| 20260505202046 | 54 | 17 | 2.0 | 5.0 | 0.00 | 0.00 | 0.00 | 100 | 1011.5 |
| 20260505201946 | 54 | 34 | 2.0 | 5.0 | 0.00 | 0.00 | 0.00 | 100 | 1011.5 |
| 20260505201844 | 54 | 13 | 2.0 | 4.0 | 0.00 | 0.00 | 0.00 | 100 | 1011.4 |
| 20260505201744 | 54 | 341 | 3.0 | 3.0 | 0.00 | 0.00 | 0.00 | 100 | 1011.4 |
| 20260505201712 | 54 | 341 | 3.0 | 3.0 | 0.00 | 0.00 | 0.00 | 100 | 1011.4 |
| 20260505201646 | 54 | 340 | 2.0 | 3.0 | 0.00 | 0.00 | 0.00 | 100 | 1011.4 |
| 20260505201546 | 54 | 5 | 2.0 | 3.0 | 0.00 | 0.00 | 0.00 | 100 | 1011.4 |
| 20260505201444 | 54 | 355 | 3.0 | 3.0 | 0.00 | 0.00 | 0.00 | 100 | 1011.4 |
| 20260505201344 | 54 | 13 | 0.0 | 2.0 | 0.00 | 0.00 | 0.00 | 100 | 1011.4 |
| 20260505201245 | 54 | 45 | 2.0 | 3.0 | 0.00 | 0.00 | 0.00 | 100 | 1011.4 |
| 20260505201211 | 54 | 45 | 2.0 | 3.0 | 0.00 | 0.00 | 0.00 | 100 | 1011.4 |
| 20260505201145 | 54 | 48 | 2.0 | 3.0 | 0.00 | 0.00 | 0.00 | 100 | 1011.3 |
| 20260505201045 | 54 | 61 | 3.0 | 3.0 | 0.00 | 0.00 | 0.00 | 100 | 1011.3 |
| 20260505200944 | 54 | 314 | 3.0 | 3.0 | 0.00 | 0.00 | 0.00 | 100 | 1011.3 |
| 20260505200844 | 54 | 13 | 3.0 | 3.0 | 0.00 | 0.00 | 0.00 | 100 | 1011.3 |
| 20260505200744 | 54 | 13 | 3.0 | 3.0 | 0.00 | 0.00 | 0.00 | 100 | 1011.3 |
| 20260505200712 | 54 | 13 | 3.0 | 3.0 | 0.00 | 0.00 | 0.00 | 100 | 1011.3 |
| 20260505200644 | 54 | 360 | 2.0 | 3.0 | 0.00 | 0.00 | 0.00 | 100 | 1011.3 |
| 20260505200545 | 54 | 5 | 1.0 | 3.0 | 0.00 | 0.00 | 0.00 | 100 | 1011.3 |
| 20260505200445 | 54 | 5 | 3.0 | 3.0 | 0.00 | 0.00 | 0.00 | 100 | 1011.3 |
| 20260505200345 | 55 | 348 | 2.0 | 2.0 | 0.00 | 0.00 | 0.00 | 100 | 1011.2 |
| 20260505200245 | 55 | 351 | 2.0 | 3.0 | 0.00 | 0.00 | 0.00 | 100 | 1011.2 |
| 20260505200213 | 55 | 351 | 2.0 | 3.0 | 0.00 | 0.00 | 0.00 | 100 | 1011.2 |
| 20260505200144 | 55 | 10 | 2.0 | 3.0 | 0.00 | 0.00 | 0.00 | 100 | 1011.2 |
| 20260505200044 | 55 | 355 | 2.0 | 3.0 | 0.00 | 0.00 | 0.00 | 100 | 1011.2 |
| 20260505195944 | 55 | 355 | 3.0 | 3.0 | 0.00 | 0.00 | 0.00 | 100 | 1011.2 |
| 20260505195844 | 55 | 9 | 3.0 | 3.0 | 0.00 | 0.00 | 0.00 | 100 | 1011.2 |
| 20260505195744 | 55 | 11 | 3.0 | 6.0 | 0.00 | 0.00 | 0.00 | 100 | 1011.2 |
| 20260505195712 | 55 | 11 | 3.0 | 6.0 | 0.00 | 0.00 | 0.00 | 100 | 1011.2 |
| 20260505195645 | 55 | 46 | 3.0 | 4.0 | 0.00 | 0.00 | 0.00 | 100 | 1011.2 |
| 20260505195545 | 55 | 5 | 1.0 | 3.0 | 0.00 | 0.00 | 0.00 | 100 | 1011.2 |
| 20260505195445 | 55 | 44 | 2.0 | 3.0 | 0.00 | 0.00 | 0.00 | 100 | 1011.2 |
| 20260505195345 | 55 | 43 | 1.0 | 3.0 | 0.00 | 0.00 | 0.00 | 100 | 1011.1 |
| 20260505195245 | 55 | 360 | 2.0 | 6.0 | 0.00 | 0.00 | 0.00 | 100 | 1011.1 |
| 20260505195211 | 55 | 360 | 2.0 | 6.0 | 0.00 | 0.00 | 0.00 | 100 | 1011.1 |
| 20260505195144 | 55 | 13 | 1.0 | 6.0 | 0.00 | 0.00 | 0.00 | 100 | 1011.1 |
| 20260505195044 | 55 | 355 | 1.0 | 6.0 | 0.00 | 0.00 | 0.00 | 100 | 1011.1 |
| 20260505194944 | 55 | 18 | 3.0 | 6.0 | 0.00 | 0.00 | 0.00 | 100 | 1011.1 |
| 20260505194844 | 55 | 13 | 2.0 | 6.0 | 0.00 | 0.00 | 0.00 | 100 | 1011.1 |
| 20260505194744 | 55 | 34 | 2.0 | 4.0 | 0.00 | 0.00 | 0.00 | 100 | 1011.1 |
| 20260505194712 | 55 | 34 | 2.0 | 4.0 | 0.00 | 0.00 | 0.00 | 100 | 1011.1 |
| 20260505194645 | 55 | 5 | 3.0 | 4.0 | 0.00 | 0.00 | 0.00 | 100 | 1011.1 |
| 20260505194545 | 55 | 5 | 3.0 | 4.0 | 0.00 | 0.00 | 0.00 | 100 | 1011.0 |
| 20260505194445 | 55 | 19 | 2.0 | 4.0 | 0.00 | 0.00 | 0.00 | 100 | 1011.0 |
| 20260505194345 | 55 | 5 | 1.0 | 3.0 | 0.00 | 0.00 | 0.00 | 100 | 1011.0 |
| 20260505194245 | 55 | 15 | 2.0 | 3.0 | 0.00 | 0.00 | 0.00 | 100 | 1011.0 |
| 20260505194211 | 55 | 15 | 2.0 | 3.0 | 0.00 | 0.00 | 0.00 | 100 | 1011.0 |
| 20260505194145 | 55 | 17 | 2.0 | 3.0 | 0.00 | 0.00 | 0.00 | 100 | 1011.0 |
| 20260505194045 | 55 | 10 | 1.0 | 3.0 | 0.00 | 0.00 | 0.00 | 100 | 1011.0 |
| 20260505193945 | 55 | 43 | 3.0 | 3.0 | 0.00 | 0.00 | 0.00 | 100 | 1011.0 |
| 20260505193845 | 55 | 34 | 2.0 | 3.0 | 0.00 | 0.00 | 0.00 | 100 | 1011.0 |
| 20260505193745 | 55 | 46 | 3.0 | 4.0 | 0.00 | 0.00 | 0.00 | 100 | 1011.0 |
| 20260505193712 | 55 | 46 | 3.0 | 4.0 | 0.00 | 0.00 | 0.00 | 100 | 1011.0 |
| 20260505193644 | 55 | 49 | 3.0 | 4.0 | 0.00 | 0.00 | 0.00 | 100 | 1011.0 |
| 20260505193544 | 55 | 19 | 1.0 | 4.0 | 0.00 | 0.00 | 0.00 | 2 | 1011.0 |
| 20260505193444 | 56 | 10 | 1.0 | 4.0 | 0.00 | 0.00 | 0.00 | 2 | 1011.0 |
| 20260505193344 | 56 | 30 | 2.0 | 4.0 | 0.00 | 0.00 | 0.00 | 3 | 1011.0 |
| 20260505193244 | 56 | 5 | 1.0 | 3.0 | 0.00 | 0.00 | 0.00 | 4 | 1011.0 |
| 20260505193212 | 56 | 5 | 1.0 | 3.0 | 0.00 | 0.00 | 0.00 | 4 | 1011.0 |
| 20260505193145 | 56 | 23 | 1.0 | 3.0 | 0.00 | 0.00 | 0.00 | 5 | 1010.9 |
| 20260505193045 | 56 | 20 | 3.0 | 3.0 | 0.00 | 0.00 | 0.00 | 6 | 1011.0 |
| 20260505192945 | 56 | 5 | 1.0 | 3.0 | 0.00 | 0.00 | 0.00 | 8 | 1010.9 |
| 20260505192845 | 56 | 351 | 3.0 | 3.0 | 0.00 | 0.00 | 0.00 | 8 | 1010.9 |
| 20260505192745 | 56 | 14 | 2.0 | 3.0 | 0.00 | 0.00 | 0.00 | 9 | 1010.9 |
| 20260505192711 | 56 | 14 | 2.0 | 3.0 | 0.00 | 0.00 | 0.00 | 9 | 1010.9 |
| 20260505192645 | 56 | 31 | 3.0 | 3.0 | 0.00 | 0.00 | 0.00 | 10 | 1010.9 |
| 20260505192545 | 56 | 28 | 1.0 | 2.0 | 0.00 | 0.00 | 0.00 | 11 | 1010.9 |
| 20260505192445 | 56 | 28 | 1.0 | 2.0 | 0.00 | 0.00 | 0.00 | 11 | 1010.9 |
| 20260505192345 | 56 | 44 | 1.0 | 2.0 | 0.00 | 0.00 | 0.00 | 12 | 1010.9 |
| 20260505192244 | 56 | 44 | 1.0 | 3.0 | 0.00 | 0.00 | 0.00 | 13 | 1010.9 |
| 20260505192212 | 56 | 44 | 1.0 | 3.0 | 0.00 | 0.00 | 0.00 | 13 | 1010.9 |
| 20260505192146 | 56 | 22 | 1.0 | 3.0 | 0.00 | 0.00 | 0.00 | 14 | 1010.9 |
| 20260505192045 | 56 | 41 | 2.0 | 3.0 | 0.00 | 0.00 | 0.00 | 15 | 1010.9 |
| 20260505191945 | 56 | 44 | 2.0 | 2.0 | 0.00 | 0.00 | 0.00 | 16 | 1010.9 |
| 20260505191845 | 56 | 17 | 1.0 | 2.0 | 0.00 | 0.00 | 0.00 | 16 | 1010.9 |
| 20260505191744 | 56 | 23 | 3.0 | 4.0 | 0.00 | 0.00 | 0.00 | 18 | 1010.8 |
| 20260505191712 | 56 | 23 | 3.0 | 4.0 | 0.00 | 0.00 | 0.00 | 18 | 1010.8 |
| 20260505191646 | 56 | 49 | 2.0 | 4.0 | 0.00 | 0.00 | 0.00 | 18 | 1010.9 |
| 20260505191546 | 56 | 44 | 2.0 | 4.0 | 0.00 | 0.00 | 0.00 | 19 | 1010.8 |
| 20260505191446 | 56 | 26 | 2.0 | 3.0 | 0.00 | 0.00 | 0.00 | 19 | 1010.8 |
| 20260505191346 | 56 | 41 | 3.0 | 3.0 | 0.00 | 0.00 | 0.00 | 20 | 1010.8 |
| 20260505191246 | 56 | 18 | 2.0 | 5.0 | 0.00 | 0.00 | 0.00 | 21 | 1010.8 |
| 20260505191212 | 56 | 18 | 2.0 | 5.0 | 0.00 | 0.00 | 0.00 | 21 | 1010.8 |
| 20260505191145 | 56 | 48 | 4.0 | 5.0 | 0.00 | 0.00 | 0.00 | 22 | 1010.9 |
| 20260505191045 | 56 | 52 | 3.0 | 3.0 | 0.00 | 0.00 | 0.00 | 22 | 1010.8 |
| 20260505190945 | 56 | 26 | 1.0 | 2.0 | 0.00 | 0.00 | 0.00 | 23 | 1010.8 |
| 20260505190845 | 56 | 355 | 2.0 | 2.0 | 0.00 | 0.00 | 0.00 | 23 | 1010.8 |
| 20260505190745 | 56 | 19 | 1.0 | 5.0 | 0.00 | 0.00 | 0.00 | 24 | 1010.9 |
| 20260505190711 | 56 | 19 | 1.0 | 5.0 | 0.00 | 0.00 | 0.00 | 24 | 1010.9 |
| 20260505190645 | 56 | 17 | 3.0 | 5.0 | 0.00 | 0.00 | 0.00 | 25 | 1010.8 |
| 20260505190545 | 56 | 42 | 3.0 | 5.0 | 0.00 | 0.00 | 0.00 | 25 | 1010.9 |
| 20260505190445 | 57 | 345 | 3.0 | 5.0 | 0.00 | 0.00 | 0.00 | 25 | 1010.9 |
| 20260505190344 | 57 | 360 | 3.0 | 3.0 | 0.00 | 0.00 | 0.00 | 26 | 1010.9 |
| 20260505190244 | 57 | 18 | 1.0 | 5.0 | 0.00 | 0.00 | 0.00 | 27 | 1010.8 |
| 20260505190212 | 57 | 18 | 1.0 | 5.0 | 0.00 | 0.00 | 0.00 | 27 | 1010.8 |
| 20260505190146 | 57 | 40 | 1.0 | 5.0 | 0.00 | 0.00 | 0.00 | 27 | 1010.9 |
| 20260505190046 | 57 | 51 | 4.0 | 5.0 | 0.00 | 0.00 | 0.00 | 28 | 1010.8 |
| 20260505185946 | 57 | 48 | 3.0 | 3.0 | 0.00 | 0.00 | 0.00 | 29 | 1010.8 |
| 20260505185844 | 57 | 30 | 2.0 | 3.0 | 0.00 | 0.00 | 0.00 | 30 | 1010.8 |
| 20260505185744 | 57 | 32 | 3.0 | 6.0 | 0.00 | 0.00 | 0.00 | 30 | 1010.8 |
| 20260505185712 | 57 | 32 | 3.0 | 6.0 | 0.00 | 0.00 | 0.00 | 30 | 1010.8 |
| 20260505185644 | 57 | 47 | 4.0 | 6.0 | 0.00 | 0.00 | 0.00 | 31 | 1010.8 |
| 20260505185544 | 57 | 21 | 4.0 | 5.0 | 0.00 | 0.00 | 0.00 | 31 | 1010.8 |
| 20260505185445 | 57 | 17 | 3.0 | 4.0 | 0.00 | 0.00 | 0.00 | 32 | 1010.8 |
| 20260505185345 | 57 | 25 | 2.0 | 3.0 | 0.00 | 0.00 | 0.00 | 33 | 1010.8 |
| 20260505185245 | 57 | 30 | 3.0 | 6.0 | 0.00 | 0.00 | 0.00 | 33 | 1010.8 |
| 20260505185211 | 57 | 30 | 3.0 | 6.0 | 0.00 | 0.00 | 0.00 | 33 | 1010.8 |
| 20260505185145 | 57 | 17 | 3.0 | 6.0 | 0.00 | 0.00 | 0.00 | 34 | 1010.8 |
| 20260505185045 | 57 | 347 | 3.0 | 6.0 | 0.00 | 0.00 | 0.00 | 34 | 1010.8 |
| 20260505184944 | 57 | 62 | 3.0 | 4.0 | 0.00 | 0.00 | 0.00 | 34 | 1010.7 |
| 20260505184844 | 57 | 345 | 3.0 | 4.0 | 0.00 | 0.00 | 0.00 | 35 | 1010.8 |
| 20260505184744 | 57 | 15 | 3.0 | 7.0 | 0.00 | 0.00 | 0.00 | 36 | 1010.8 |
| 20260505184712 | 57 | 15 | 3.0 | 7.0 | 0.00 | 0.00 | 0.00 | 36 | 1010.8 |
| 20260505184646 | 57 | 34 | 6.0 | 7.0 | 0.00 | 0.00 | 0.00 | 36 | 1010.8 |
| 20260505184546 | 57 | 34 | 3.0 | 5.0 | 0.00 | 0.00 | 0.00 | 36 | 1010.7 |
| 20260505184445 | 57 | 21 | 3.0 | 5.0 | 0.00 | 0.00 | 0.00 | 36 | 1010.7 |
| 20260505184345 | 57 | 51 | 2.0 | 5.0 | 0.00 | 0.00 | 0.00 | 37 | 1010.7 |
| 20260505184244 | 58 | 46 | 1.0 | 8.0 | 0.00 | 0.00 | 0.00 | 37 | 1010.7 |
| 20260505184212 | 58 | 46 | 1.0 | 8.0 | 0.00 | 0.00 | 0.00 | 37 | 1010.7 |
| 20260505184144 | 58 | 345 | 4.0 | 7.0 | 0.00 | 0.00 | 0.00 | 38 | 1010.6 |
| 20260505184044 | 58 | 38 | 6.0 | 6.0 | 0.00 | 0.00 | 0.00 | 38 | 1010.7 |
| 20260505183945 | 58 | 23 | 2.0 | 3.0 | 0.00 | 0.00 | 0.00 | 38 | 1010.7 |
| 20260505183845 | 58 | 5 | 2.0 | 3.0 | 0.00 | 0.00 | 0.00 | 39 | 1010.7 |
| 20260505183745 | 58 | 17 | 3.0 | 8.0 | 0.00 | 0.00 | 0.00 | 39 | 1010.6 |
| 20260505183711 | 58 | 17 | 3.0 | 8.0 | 0.00 | 0.00 | 0.00 | 39 | 1010.6 |
| 20260505183645 | 58 | 18 | 2.0 | 8.0 | 0.00 | 0.00 | 0.00 | 40 | 1010.6 |
| 20260505183545 | 58 | 13 | 3.0 | 8.0 | 0.00 | 0.00 | 0.00 | 40 | 1010.6 |
| 20260505183445 | 58 | 355 | 2.0 | 8.0 | 0.00 | 0.00 | 0.00 | 41 | 1010.6 |
| 20260505183345 | 58 | 39 | 6.0 | 6.0 | 0.00 | 0.00 | 0.00 | 41 | 1010.6 |
| 20260505183245 | 58 | 43 | 3.0 | 9.0 | 0.00 | 0.00 | 0.00 | 41 | 1010.6 |
| 20260505183213 | 58 | 43 | 3.0 | 9.0 | 0.00 | 0.00 | 0.00 | 41 | 1010.6 |
| 20260505183145 | 58 | 30 | 2.0 | 9.0 | 0.00 | 0.00 | 0.00 | 41 | 1010.5 |
| 20260505183045 | 58 | 9 | 4.0 | 9.0 | 0.00 | 0.00 | 0.00 | 42 | 1010.5 |
| 20260505182944 | 58 | 28 | 5.0 | 9.0 | 0.00 | 0.00 | 0.00 | 42 | 1010.5 |
| 20260505182846 | 58 | 15 | 4.0 | 6.0 | 0.00 | 0.00 | 0.00 | 42 | 1010.6 |
| 20260505182745 | 58 | 360 | 2.0 | 7.0 | 0.00 | 0.00 | 0.00 | 42 | 1010.6 |
| 20260505182711 | 58 | 360 | 2.0 | 7.0 | 0.00 | 0.00 | 0.00 | 42 | 1010.6 |
| 20260505182645 | 58 | 360 | 5.0 | 5.0 | 0.00 | 0.00 | 0.00 | 42 | 1010.6 |
| 20260505182544 | 59 | 26 | 2.0 | 3.0 | 0.00 | 0.00 | 0.00 | 43 | 1010.6 |
| 20260505182444 | 59 | 27 | 2.0 | 3.0 | 0.00 | 0.00 | 0.00 | 43 | 1010.6 |
| 20260505182344 | 59 | 15 | 2.0 | 3.0 | 0.00 | 0.00 | 0.00 | 43 | 1010.5 |
| 20260505182244 | 59 | 360 | 2.0 | 6.0 | 0.00 | 0.00 | 0.00 | 43 | 1010.5 |
| 20260505182212 | 59 | 360 | 2.0 | 6.0 | 0.00 | 0.00 | 0.00 | 43 | 1010.5 |
| 20260505182144 | 59 | 45 | 6.0 | 6.0 | 0.00 | 0.00 | 0.00 | 43 | 1010.5 |
| 20260505182046 | 59 | 31 | 3.0 | 5.0 | 0.00 | 0.00 | 0.00 | 43 | 1010.5 |
| 20260505181945 | 59 | 5 | 3.0 | 3.0 | 0.00 | 0.00 | 0.00 | 43 | 1010.5 |
| 20260505181845 | 59 | 56 | 2.0 | 3.0 | 0.00 | 0.00 | 0.00 | 43 | 1010.6 |
| 20260505181745 | 59 | 31 | 2.0 | 8.0 | 0.00 | 0.00 | 0.00 | 44 | 1010.6 |
| 20260505181711 | 59 | 31 | 2.0 | 8.0 | 0.00 | 0.00 | 0.00 | 44 | 1010.6 |
| 20260505181645 | 59 | 34 | 5.0 | 8.0 | 0.00 | 0.00 | 0.00 | 44 | 1010.5 |
| 20260505181544 | 59 | 67 | 3.0 | 8.0 | 0.00 | 0.00 | 0.00 | 44 | 1010.5 |
| 20260505181445 | 59 | 23 | 3.0 | 6.0 | 0.00 | 0.00 | 0.00 | 44 | 1010.5 |
| 20260505181345 | 59 | 58 | 6.0 | 6.0 | 0.00 | 0.00 | 0.00 | 44 | 1010.5 |
| 20260505181245 | 59 | 5 | 1.0 | 7.0 | 0.00 | 0.00 | 0.00 | 44 | 1010.5 |
| 20260505181211 | 59 | 5 | 1.0 | 7.0 | 0.00 | 0.00 | 0.00 | 44 | 1010.5 |
| 20260505181145 | 59 | 43 | 2.0 | 7.0 | 0.00 | 0.00 | 0.00 | 44 | 1010.5 |
| 20260505181045 | 59 | 53 | 3.0 | 4.0 | 0.00 | 0.00 | 0.00 | 44 | 1010.5 |
| 20260505180945 | 59 | 51 | 3.0 | 4.0 | 0.00 | 0.00 | 0.00 | 44 | 1010.5 |
| 20260505180845 | 59 | 27 | 3.0 | 4.0 | 0.00 | 0.00 | 0.00 | 44 | 1010.5 |
| 20260505180744 | 59 | 53 | 6.0 | 10.0 | 0.00 | 0.00 | 0.00 | 44 | 1010.5 |
| 20260505180712 | 59 | 53 | 6.0 | 10.0 | 0.00 | 0.00 | 0.00 | 44 | 1010.5 |
| 20260505180644 | 59 | 9 | 5.0 | 10.0 | 0.00 | 0.00 | 0.00 | 44 | 1010.5 |
| 20260505180546 | 59 | 20 | 3.0 | 10.0 | 0.00 | 0.00 | 0.00 | 44 | 1010.5 |
| 20260505180446 | 59 | 66 | 4.0 | 10.0 | 0.00 | 0.00 | 0.00 | 44 | 1010.5 |
| 20260505180346 | 59 | 46 | 6.0 | 6.0 | 0.00 | 0.00 | 0.00 | 43 | 1010.5 |
| 20260505180245 | 59 | 59 | 6.0 | 9.0 | 0.00 | 0.00 | 0.00 | 43 | 1010.5 |
| 20260505180213 | 59 | 59 | 6.0 | 9.0 | 0.00 | 0.00 | 0.00 | 43 | 1010.5 |
| 20260505180144 | 59 | 40 | 3.0 | 9.0 | 0.00 | 0.00 | 0.00 | 43 | 1010.5 |
| 20260505180044 | 59 | 64 | 9.0 | 9.0 | 0.00 | 0.00 | 0.00 | 43 | 1010.5 |
| 20260505175944 | 59 | 5 | 2.0 | 7.0 | 0.00 | 0.00 | 0.00 | 43 | 1010.5 |
| 20260505175844 | 59 | 52 | 2.0 | 6.0 | 0.00 | 0.00 | 0.00 | 44 | 1010.5 |
| 20260505175745 | 59 | 25 | 3.0 | 6.0 | 0.00 | 0.00 | 0.00 | 44 | 1010.5 |
| 20260505175711 | 59 | 25 | 3.0 | 6.0 | 0.00 | 0.00 | 0.00 | 44 | 1010.5 |
| 20260505175645 | 59 | 28 | 2.0 | 6.0 | 0.00 | 0.00 | 0.00 | 44 | 1010.5 |
| 20260505175545 | 59 | 80 | 2.0 | 6.0 | 0.00 | 0.00 | 0.00 | 44 | 1010.5 |
| 20260505175445 | 59 | 77 | 3.0 | 6.0 | 0.00 | 0.00 | 0.00 | 44 | 1010.5 |
| 20260505175345 | 59 | 59 | 2.0 | 6.0 | 0.00 | 0.00 | 0.00 | 44 | 1010.5 |
| 20260505175245 | 59 | 62 | 2.0 | 10.0 | 0.00 | 0.00 | 0.00 | 44 | 1010.5 |
| 20260505175213 | 59 | 62 | 2.0 | 10.0 | 0.00 | 0.00 | 0.00 | 44 | 1010.5 |
| 20260505175146 | 59 | 69 | 2.0 | 10.0 | 0.00 | 0.00 | 0.00 | 44 | 1010.5 |
| 20260505175046 | 59 | 86 | 3.0 | 10.0 | 0.00 | 0.00 | 0.00 | 44 | 1010.6 |
| 20260505174946 | 59 | 36 | 6.0 | 10.0 | 0.00 | 0.00 | 0.00 | 44 | 1010.6 |
| 20260505174846 | 59 | 59 | 3.0 | 6.0 | 0.00 | 0.00 | 0.00 | 44 | 1010.5 |
| 20260505174745 | 59 | 30 | 3.0 | 7.0 | 0.00 | 0.00 | 0.00 | 44 | 1010.5 |
| 20260505174713 | 59 | 30 | 3.0 | 7.0 | 0.00 | 0.00 | 0.00 | 44 | 1010.5 |
| 20260505174644 | 59 | 26 | 7.0 | 7.0 | 0.00 | 0.00 | 0.00 | 44 | 1010.6 |
| 20260505174545 | 59 | 33 | 2.0 | 5.0 | 0.00 | 0.00 | 0.00 | 44 | 1010.5 |
| 20260505174445 | 59 | 50 | 2.0 | 5.0 | 0.00 | 0.00 | 0.00 | 44 | 1010.5 |
| 20260505174344 | 59 | 42 | 3.0 | 5.0 | 0.00 | 0.00 | 0.00 | 44 | 1010.5 |
| 20260505174244 | 59 | 32 | 3.0 | 9.0 | 0.00 | 0.00 | 0.00 | 44 | 1010.6 |
| 20260505174212 | 59 | 32 | 3.0 | 9.0 | 0.00 | 0.00 | 0.00 | 44 | 1010.6 |
| 20260505174144 | 59 | 19 | 5.0 | 9.0 | 0.00 | 0.00 | 0.00 | 44 | 1010.6 |
| 20260505174044 | 59 | 25 | 5.0 | 9.0 | 0.00 | 0.00 | 0.00 | 44 | 1010.5 |
| 20260505173944 | 59 | 98 | 6.0 | 9.0 | 0.00 | 0.00 | 0.00 | 44 | 1010.5 |
| 20260505173844 | 59 | 26 | 4.0 | 9.0 | 0.00 | 0.00 | 0.00 | 44 | 1010.6 |
| 20260505173745 | 59 | 72 | 3.0 | 9.0 | 0.00 | 0.00 | 0.00 | 43 | 1010.5 |
| 20260505173713 | 59 | 72 | 3.0 | 9.0 | 0.00 | 0.00 | 0.00 | 43 | 1010.5 |
| 20260505173645 | 59 | 10 | 3.0 | 9.0 | 0.00 | 0.00 | 0.00 | 43 | 1010.5 |
| 20260505173544 | 59 | 36 | 3.0 | 9.0 | 0.00 | 0.00 | 0.00 | 43 | 1010.6 |
| 20260505173444 | 60 | 61 | 3.0 | 7.0 | 0.00 | 0.00 | 0.00 | 43 | 1010.6 |
| 20260505173344 | 60 | 57 | 6.0 | 7.0 | 0.00 | 0.00 | 0.00 | 43 | 1010.6 |
| 20260505173244 | 60 | 325 | 3.0 | 6.0 | 0.00 | 0.00 | 0.00 | 43 | 1010.6 |
| 20260505173212 | 60 | 325 | 3.0 | 6.0 | 0.00 | 0.00 | 0.00 | 43 | 1010.6 |
| 20260505173144 | 60 | 90 | 2.0 | 6.0 | 0.00 | 0.00 | 0.00 | 43 | 1010.6 |
| 20260505173044 | 60 | 9 | 3.0 | 6.0 | 0.00 | 0.00 | 0.00 | 43 | 1010.6 |
| 20260505172944 | 60 | 31 | 3.0 | 6.0 | 0.00 | 0.00 | 0.00 | 43 | 1010.6 |
| 20260505172845 | 60 | 26 | 6.0 | 6.0 | 0.00 | 0.00 | 0.00 | 43 | 1010.6 |
| 20260505172745 | 60 | 36 | 8.0 | 8.0 | 0.00 | 0.00 | 0.00 | 43 | 1010.6 |
| 20260505172711 | 60 | 36 | 8.0 | 8.0 | 0.00 | 0.00 | 0.00 | 43 | 1010.6 |
| 20260505172645 | 60 | 53 | 3.0 | 8.0 | 0.00 | 0.00 | 0.00 | 43 | 1010.6 |
| 20260505172546 | 60 | 49 | 3.0 | 8.0 | 0.00 | 0.00 | 0.00 | 43 | 1010.6 |
| 20260505172446 | 60 | 39 | 4.0 | 8.0 | 0.00 | 0.00 | 0.00 | 43 | 1010.6 |
| 20260505172346 | 60 | 51 | 5.0 | 6.0 | 0.00 | 0.00 | 0.00 | 43 | 1010.6 |
| 20260505172246 | 60 | 46 | 4.0 | 10.0 | 0.00 | 0.00 | 0.00 | 43 | 1010.6 |
| 20260505172212 | 60 | 46 | 4.0 | 10.0 | 0.00 | 0.00 | 0.00 | 43 | 1010.6 |
| 20260505172146 | 60 | 5 | 3.0 | 10.0 | 0.00 | 0.00 | 0.00 | 43 | 1010.5 |
| 20260505172046 | 60 | 47 | 5.0 | 10.0 | 0.00 | 0.00 | 0.00 | 43 | 1010.6 |
| 20260505171945 | 60 | 30 | 4.0 | 10.0 | 0.00 | 0.00 | 0.00 | 43 | 1010.6 |
| 20260505171845 | 60 | 42 | 5.0 | 6.0 | 0.00 | 0.00 | 0.00 | 43 | 1010.6 |
| 20260505171745 | 60 | 39 | 7.0 | 10.0 | 0.00 | 0.00 | 0.00 | 43 | 1010.6 |
| 20260505171712 | 60 | 39 | 7.0 | 10.0 | 0.00 | 0.00 | 0.00 | 43 | 1010.6 |
| 20260505171644 | 60 | 360 | 3.0 | 10.0 | 0.00 | 0.00 | 0.00 | 42 | 1010.5 |
| 20260505171544 | 60 | 68 | 3.0 | 10.0 | 0.00 | 0.00 | 0.00 | 42 | 1010.5 |
| 20260505171444 | 61 | 349 | 3.0 | 10.0 | 0.00 | 0.00 | 0.00 | 42 | 1010.5 |
| 20260505171344 | 60 | 13 | 2.0 | 4.0 | 0.00 | 0.00 | 0.00 | 42 | 1010.5 |
| 20260505171244 | 60 | 23 | 4.0 | 7.0 | 0.00 | 0.00 | 0.00 | 43 | 1010.6 |
| 20260505171212 | 60 | 23 | 4.0 | 7.0 | 0.00 | 0.00 | 0.00 | 43 | 1010.6 |
| 20260505171144 | 60 | 360 | 4.0 | 6.0 | 0.00 | 0.00 | 0.00 | 43 | 1010.5 |
| 20260505171045 | 60 | 360 | 3.0 | 5.0 | 0.00 | 0.00 | 0.00 | 43 | 1010.6 |
| 20260505170945 | 60 | 32 | 3.0 | 5.0 | 0.00 | 0.00 | 0.00 | 43 | 1010.5 |
| 20260505170845 | 60 | 38 | 3.0 | 4.0 | 0.00 | 0.00 | 0.00 | 43 | 1010.5 |
| 20260505170745 | 60 | 58 | 4.0 | 10.0 | 0.00 | 0.00 | 0.00 | 43 | 1010.5 |
| 20260505170713 | 60 | 58 | 4.0 | 10.0 | 0.00 | 0.00 | 0.00 | 43 | 1010.5 |
| 20260505170645 | 60 | 41 | 3.0 | 10.0 | 0.00 | 0.00 | 0.00 | 43 | 1010.6 |
| 20260505170545 | 60 | 30 | 3.0 | 9.0 | 0.00 | 0.00 | 0.00 | 43 | 1010.6 |
| 20260505170444 | 60 | 44 | 3.0 | 9.0 | 0.00 | 0.00 | 0.00 | 43 | 1010.5 |
| 20260505170345 | 60 | 11 | 4.0 | 9.0 | 0.00 | 0.00 | 0.00 | 43 | 1010.6 |
| 20260505170245 | 61 | 51 | 3.0 | 9.0 | 0.00 | 0.00 | 0.00 | 43 | 1010.6 |
| 20260505170211 | 61 | 51 | 3.0 | 9.0 | 0.00 | 0.00 | 0.00 | 43 | 1010.6 |
| 20260505170145 | 61 | 64 | 9.0 | 9.0 | 0.00 | 0.00 | 0.00 | 43 | 1010.6 |
| 20260505170045 | 61 | 9 | 3.0 | 8.0 | 0.00 | 0.00 | 0.00 | 43 | 1010.6 |
| 20260505165945 | 61 | 57 | 3.0 | 8.0 | 0.00 | 0.00 | 0.00 | 43 | 1010.6 |
| 20260505165845 | 61 | 33 | 3.0 | 8.0 | 0.00 | 0.00 | 0.00 | 43 | 1010.6 |
| 20260505165745 | 61 | 25 | 3.0 | 10.0 | 0.00 | 0.00 | 0.00 | 43 | 1010.7 |
| 20260505165713 | 61 | 25 | 3.0 | 10.0 | 0.00 | 0.00 | 0.00 | 43 | 1010.7 |
| 20260505165647 | 61 | 10 | 4.0 | 10.0 | 0.00 | 0.00 | 0.00 | 43 | 1010.7 |
| 20260505165545 | 61 | 26 | 6.0 | 10.0 | 0.00 | 0.00 | 0.00 | 43 | 1010.7 |
| 20260505165445 | 61 | 39 | 4.0 | 6.0 | 0.00 | 0.00 | 0.00 | 43 | 1010.6 |
| 20260505165345 | 61 | 22 | 3.0 | 5.0 | 0.00 | 0.00 | 0.00 | 43 | 1010.7 |
| 20260505165245 | 61 | 9 | 3.0 | 9.0 | 0.00 | 0.00 | 0.00 | 43 | 1010.7 |
| 20260505165212 | 61 | 9 | 3.0 | 9.0 | 0.00 | 0.00 | 0.00 | 43 | 1010.7 |
| 20260505165144 | 61 | 9 | 4.0 | 9.0 | 0.00 | 0.00 | 0.00 | 43 | 1010.6 |
| 20260505165046 | 61 | 32 | 7.0 | 9.0 | 0.00 | 0.00 | 0.00 | 43 | 1010.6 |
| 20260505164946 | 61 | 355 | 3.0 | 9.0 | 0.00 | 0.00 | 0.00 | 43 | 1010.6 |
| 20260505164846 | 61 | 46 | 5.0 | 9.0 | 0.00 | 0.00 | 0.00 | 43 | 1010.6 |
| 20260505164746 | 61 | 5 | 6.0 | 8.0 | 0.00 | 0.00 | 0.00 | 43 | 1010.6 |
| 20260505164712 | 61 | 5 | 6.0 | 8.0 | 0.00 | 0.00 | 0.00 | 43 | 1010.6 |
| 20260505164645 | 61 | 54 | 5.0 | 8.0 | 0.00 | 0.00 | 0.00 | 43 | 1010.6 |
| 20260505164545 | 61 | 64 | 3.0 | 8.0 | 0.00 | 0.00 | 0.00 | 43 | 1010.6 |
| 20260505164445 | 61 | 38 | 3.0 | 7.0 | 0.00 | 0.00 | 0.00 | 43 | 1010.6 |
| 20260505164345 | 61 | 51 | 2.0 | 7.0 | 0.00 | 0.00 | 0.00 | 43 | 1010.6 |
| 20260505164244 | 61 | 23 | 3.0 | 8.0 | 0.00 | 0.00 | 0.00 | 43 | 1010.6 |
| 20260505164212 | 61 | 23 | 3.0 | 8.0 | 0.00 | 0.00 | 0.00 | 43 | 1010.6 |
| 20260505164144 | 61 | 39 | 5.0 | 7.0 | 0.00 | 0.00 | 0.00 | 43 | 1010.6 |
| 20260505164044 | 61 | 46 | 4.0 | 7.0 | 0.00 | 0.00 | 0.00 | 43 | 1010.6 |
| 20260505163945 | 61 | 10 | 3.0 | 4.0 | 0.00 | 0.00 | 0.00 | 43 | 1010.6 |
| 20260505163845 | 61 | 52 | 3.0 | 4.0 | 0.00 | 0.00 | 0.00 | 43 | 1010.6 |
| 20260505163745 | 61 | 30 | 5.0 | 10.0 | 0.00 | 0.00 | 0.00 | 43 | 1010.6 |
| 20260505163713 | 61 | 30 | 5.0 | 10.0 | 0.00 | 0.00 | 0.00 | 43 | 1010.6 |
| 20260505163645 | 61 | 38 | 8.0 | 10.0 | 0.00 | 0.00 | 0.00 | 43 | 1010.6 |
| 20260505163545 | 61 | 18 | 7.0 | 7.0 | 0.00 | 0.00 | 0.00 | 42 | 1010.6 |
| 20260505163445 | 61 | 44 | 3.0 | 6.0 | 0.00 | 0.00 | 0.00 | 42 | 1010.6 |
| 20260505163345 | 61 | 63 | 2.0 | 6.0 | 0.00 | 0.00 | 0.00 | 42 | 1010.6 |
| 20260505163245 | 61 | 350 | 4.0 | 7.0 | 0.00 | 0.00 | 0.00 | 42 | 1010.6 |
| 20260505163212 | 61 | 350 | 4.0 | 7.0 | 0.00 | 0.00 | 0.00 | 42 | 1010.6 |
| 20260505163145 | 62 | 34 | 5.0 | 7.0 | 0.00 | 0.00 | 0.00 | 42 | 1010.6 |
| 20260505163045 | 62 | 55 | 5.0 | 7.0 | 0.00 | 0.00 | 0.00 | 42 | 1010.7 |
| 20260505162945 | 62 | 53 | 5.0 | 7.0 | 0.00 | 0.00 | 0.00 | 42 | 1010.6 |
| 20260505162845 | 62 | 36 | 4.0 | 7.0 | 0.00 | 0.00 | 0.00 | 42 | 1010.7 |
| 20260505162745 | 62 | 26 | 4.0 | 10.0 | 0.00 | 0.00 | 0.00 | 42 | 1010.6 |
| 20260505162711 | 62 | 26 | 4.0 | 10.0 | 0.00 | 0.00 | 0.00 | 42 | 1010.6 |
| 20260505162645 | 62 | 39 | 3.0 | 10.0 | 0.00 | 0.00 | 0.00 | 42 | 1010.6 |
| 20260505162545 | 62 | 36 | 3.0 | 10.0 | 0.00 | 0.00 | 0.00 | 42 | 1010.6 |
| 20260505162444 | 62 | 5 | 3.0 | 10.0 | 0.00 | 0.00 | 0.00 | 42 | 1010.6 |
| 20260505162344 | 62 | 66 | 4.0 | 10.0 | 0.00 | 0.00 | 0.00 | 42 | 1010.6 |
| 20260505162246 | 62 | 42 | 3.0 | 7.0 | 0.00 | 0.00 | 0.00 | 42 | 1010.6 |
| 20260505162212 | 62 | 42 | 3.0 | 7.0 | 0.00 | 0.00 | 0.00 | 42 | 1010.6 |
| 20260505162146 | 62 | 9 | 2.0 | 6.0 | 0.00 | 0.00 | 0.00 | 42 | 1010.6 |
| 20260505162046 | 62 | 44 | 3.0 | 6.0 | 0.00 | 0.00 | 0.00 | 41 | 1010.6 |
| 20260505161945 | 62 | 78 | 3.0 | 6.0 | 0.00 | 0.00 | 0.00 | 41 | 1010.6 |
| 20260505161845 | 62 | 48 | 3.0 | 5.0 | 0.00 | 0.00 | 0.00 | 41 | 1010.6 |
| 20260505161745 | 62 | 51 | 3.0 | 9.0 | 0.00 | 0.00 | 0.00 | 41 | 1010.5 |
| 20260505161712 | 62 | 51 | 3.0 | 9.0 | 0.00 | 0.00 | 0.00 | 41 | 1010.5 |
| 20260505161644 | 62 | 360 | 3.0 | 9.0 | 0.00 | 0.00 | 0.00 | 41 | 1010.6 |
| 20260505161544 | 62 | 355 | 3.0 | 9.0 | 0.00 | 0.00 | 0.00 | 41 | 1010.5 |
| 20260505161444 | 62 | 12 | 4.0 | 9.0 | 0.00 | 0.00 | 0.00 | 41 | 1010.6 |
| 20260505161346 | 62 | 52 | 8.0 | 8.0 | 0.00 | 0.00 | 0.00 | 41 | 1010.6 |
| 20260505161246 | 62 | 350 | 5.0 | 10.0 | 0.00 | 0.00 | 0.00 | 41 | 1010.6 |
| 20260505161212 | 62 | 350 | 5.0 | 10.0 | 0.00 | 0.00 | 0.00 | 41 | 1010.6 |
| 20260505161146 | 62 | 89 | 6.0 | 10.0 | 0.00 | 0.00 | 0.00 | 41 | 1010.6 |
| 20260505161046 | 62 | 360 | 3.0 | 10.0 | 0.00 | 0.00 | 0.00 | 41 | 1010.6 |
| 20260505160946 | 62 | 56 | 10.0 | 10.0 | 0.00 | 0.00 | 0.00 | 41 | 1010.6 |
| 20260505160846 | 62 | 11 | 4.0 | 8.0 | 0.00 | 0.00 | 0.00 | 41 | 1010.6 |
| 20260505160746 | 62 | 12 | 7.0 | 10.0 | 0.00 | 0.00 | 0.00 | 41 | 1010.6 |
| 20260505160712 | 62 | 12 | 7.0 | 10.0 | 0.00 | 0.00 | 0.00 | 41 | 1010.6 |
| 20260505160645 | 62 | 45 | 5.0 | 10.0 | 0.00 | 0.00 | 0.00 | 41 | 1010.7 |
| 20260505160545 | 62 | 23 | 3.0 | 10.0 | 0.00 | 0.00 | 0.00 | 41 | 1010.6 |
| 20260505160445 | 62 | 12 | 3.0 | 10.0 | 0.00 | 0.00 | 0.00 | 41 | 1010.6 |
| 20260505160344 | 62 | 10 | 8.0 | 10.0 | 0.00 | 0.00 | 0.00 | 41 | 1010.7 |
| 20260505160244 | 62 | 336 | 6.0 | 9.0 | 0.00 | 0.00 | 0.00 | 41 | 1010.7 |
| 20260505160212 | 62 | 336 | 6.0 | 9.0 | 0.00 | 0.00 | 0.00 | 41 | 1010.7 |
| 20260505160144 | 62 | 350 | 5.0 | 8.0 | 0.00 | 0.00 | 0.00 | 40 | 1010.7 |
| 20260505153345 | 61 | 36 | 4.0 | 7.0 | 0.00 | 0.00 | 0.00 | 40 | 1010.9 |
| 20260505153245 | 61 | 38 | 7.0 | 10.0 | 0.00 | 0.00 | 0.00 | 40 | 1010.8 |
| 20260505153213 | 61 | 38 | 7.0 | 10.0 | 0.00 | 0.00 | 0.00 | 40 | 1010.8 |
| 20260505153144 | 61 | 46 | 2.0 | 9.0 | 0.00 | 0.00 | 0.00 | 40 | 1010.8 |
| 20260505153044 | 61 | 346 | 2.0 | 9.0 | 0.00 | 0.00 | 0.00 | 40 | 1010.8 |
| 20260505152944 | 61 | 92 | 7.0 | 9.0 | 0.00 | 0.00 | 0.00 | 40 | 1010.9 |
| 20260505152844 | 61 | 32 | 5.0 | 5.0 | 0.00 | 0.00 | 0.00 | 40 | 1010.8 |
| 20260505152745 | 61 | 51 | 4.0 | 10.0 | 0.00 | 0.00 | 0.00 | 40 | 1010.9 |
| 20260505152711 | 61 | 51 | 4.0 | 10.0 | 0.00 | 0.00 | 0.00 | 40 | 1010.9 |
| 20260505152645 | 61 | 355 | 4.0 | 10.0 | 0.00 | 0.00 | 0.00 | 41 | 1010.9 |
| 20260505152545 | 61 | 46 | 3.0 | 10.0 | 0.00 | 0.00 | 0.00 | 41 | 1010.9 |
| 20260505152445 | 61 | 78 | 4.0 | 10.0 | 0.00 | 0.00 | 0.00 | 41 | 1010.9 |
| 20260505152345 | 61 | 11 | 5.0 | 10.0 | 0.00 | 0.00 | 0.00 | 41 | 1010.9 |
| 20260505152244 | 62 | 68 | 3.0 | 10.0 | 0.00 | 0.00 | 0.00 | 41 | 1010.9 |
| 20260505152212 | 62 | 68 | 3.0 | 10.0 | 0.00 | 0.00 | 0.00 | 41 | 1010.9 |
| 20260505152144 | 62 | 54 | 8.0 | 10.0 | 0.00 | 0.00 | 0.00 | 41 | 1010.9 |
| 20260505152044 | 62 | 59 | 10.0 | 10.0 | 0.00 | 0.00 | 0.00 | 41 | 1010.9 |
| 20260505151944 | 62 | 11 | 3.0 | 10.0 | 0.00 | 0.00 | 0.00 | 41 | 1010.8 |
| 20260505151846 | 62 | 37 | 4.0 | 10.0 | 0.00 | 0.00 | 0.00 | 41 | 1010.8 |
| 20260505151746 | 62 | 32 | 4.0 | 9.0 | 0.00 | 0.00 | 0.00 | 41 | 1010.9 |
| 20260505151712 | 62 | 32 | 4.0 | 9.0 | 0.00 | 0.00 | 0.00 | 41 | 1010.9 |
| 20260505151645 | 62 | 50 | 4.0 | 9.0 | 0.00 | 0.00 | 0.00 | 41 | 1010.9 |
| 20260505151545 | 62 | 51 | 3.0 | 9.0 | 0.00 | 0.00 | 0.00 | 41 | 1010.9 |
| 20260505151445 | 62 | 54 | 6.0 | 9.0 | 0.00 | 0.00 | 0.00 | 41 | 1010.9 |
| 20260505151345 | 62 | 42 | 8.0 | 8.0 | 0.00 | 0.00 | 0.00 | 41 | 1010.8 |
| 20260505151245 | 62 | 17 | 7.0 | 11.0 | 0.00 | 0.00 | 0.00 | 41 | 1010.9 |
| 20260505151212 | 62 | 17 | 7.0 | 11.0 | 0.00 | 0.00 | 0.00 | 41 | 1010.9 |
| 20260505151144 | 62 | 42 | 4.0 | 11.0 | 0.00 | 0.00 | 0.00 | 41 | 1010.9 |
| 20260505151045 | 63 | 24 | 3.0 | 11.0 | 0.00 | 0.00 | 0.00 | 40 | 1010.9 |
| 20260505150945 | 63 | 45 | 11.0 | 11.0 | 0.00 | 0.00 | 0.00 | 40 | 1010.9 |
| 20260505150845 | 63 | 42 | 4.0 | 10.0 | 0.00 | 0.00 | 0.00 | 40 | 1010.9 |
| 20260505150745 | 63 | 351 | 6.0 | 8.0 | 0.00 | 0.00 | 0.00 | 39 | 1010.8 |
| 20260505150713 | 63 | 351 | 6.0 | 8.0 | 0.00 | 0.00 | 0.00 | 39 | 1010.8 |
| 20260505150645 | 63 | 360 | 3.0 | 8.0 | 0.00 | 0.00 | 0.00 | 38 | 1010.9 |
| 20260505150545 | 63 | 14 | 3.0 | 8.0 | 0.00 | 0.00 | 0.00 | 38 | 1010.9 |
| 20260505150445 | 63 | 42 | 3.0 | 7.0 | 0.00 | 0.00 | 0.00 | 38 | 1010.9 |
| 20260505150345 | 63 | 89 | 6.0 | 6.0 | 0.00 | 0.00 | 0.00 | 38 | 1010.9 |
| 20260505150244 | 63 | 17 | 3.0 | 9.0 | 0.00 | 0.00 | 0.00 | 38 | 1010.9 |
| 20260505150212 | 63 | 17 | 3.0 | 9.0 | 0.00 | 0.00 | 0.00 | 38 | 1010.9 |
| 20260505150144 | 63 | 59 | 9.0 | 9.0 | 0.00 | 0.00 | 0.00 | 38 | 1010.9 |
| 20260505140646 | 62 | 48 | 4.0 | 9.0 | 0.00 | 0.00 | 0.00 | 25 | 1011.2 |
| 20260505140546 | 62 | 58 | 7.0 | 9.0 | 0.00 | 0.00 | 0.00 | 25 | 1011.2 |
| 20260505140446 | 61 | 90 | 6.0 | 9.0 | 0.00 | 0.00 | 0.00 | 25 | 1011.2 |
| 20260505140345 | 61 | 73 | 6.0 | 7.0 | 0.00 | 0.00 | 0.00 | 25 | 1011.2 |
| 20260505140245 | 61 | 70 | 6.0 | 10.0 | 0.00 | 0.00 | 0.00 | 25 | 1011.2 |
| 20260505140211 | 61 | 70 | 6.0 | 10.0 | 0.00 | 0.00 | 0.00 | 25 | 1011.2 |
| 20260505140145 | 61 | 82 | 4.0 | 10.0 | 0.00 | 0.00 | 0.00 | 25 | 1011.2 |
| 20260505130246 | 60 | 39 | 5.0 | 9.0 | 0.00 | 0.00 | 0.00 | 2 | 1011.4 |
| 20260505130212 | 60 | 39 | 5.0 | 9.0 | 0.00 | 0.00 | 0.00 | 2 | 1011.4 |
| 20260505130145 | 60 | 47 | 1.0 | 7.0 | 0.00 | 0.00 | 0.00 | 3 | 1011.4 |
| 20260505124945 | 60 | 19 | 4.0 | 10.0 | 0.00 | 0.00 | 0.00 | 100 | 1011.3 |
| 20260505124845 | 60 | 18 | 3.0 | 10.0 | 0.00 | 0.00 | 0.00 | 100 | 1011.3 |
| 20260505124745 | 60 | 31 | 2.0 | 10.0 | 0.00 | 0.00 | 0.00 | 100 | 1011.3 |
| 20260505124713 | 60 | 31 | 2.0 | 10.0 | 0.00 | 0.00 | 0.00 | 100 | 1011.3 |
| 20260505124644 | 60 | 32 | 3.0 | 10.0 | 0.00 | 0.00 | 0.00 | 100 | 1011.3 |
| 20260505124544 | 60 | 28 | 3.0 | 10.0 | 0.00 | 0.00 | 0.00 | 100 | 1011.3 |
| 20260505124444 | 60 | 27 | 3.0 | 10.0 | 0.00 | 0.00 | 0.00 | 100 | 1011.4 |
| 20260505124344 | 60 | 17 | 4.0 | 10.0 | 0.00 | 0.00 | 0.00 | 100 | 1011.3 |
| 20260505124244 | 60 | 77 | 3.0 | 6.0 | 0.00 | 0.00 | 0.00 | 100 | 1011.4 |
| 20260505124212 | 60 | 77 | 3.0 | 6.0 | 0.00 | 0.00 | 0.00 | 100 | 1011.4 |
| 20260505124144 | 60 | 59 | 6.0 | 6.0 | 0.00 | 0.00 | 0.00 | 100 | 1011.4 |
| 20260505124044 | 60 | 46 | 4.0 | 5.0 | 0.00 | 0.00 | 0.00 | 100 | 1011.3 |
| 20260505123944 | 60 | 9 | 3.0 | 5.0 | 0.00 | 0.00 | 0.00 | 100 | 1011.3 |
| 20260505123845 | 60 | 40 | 3.0 | 5.0 | 0.00 | 0.00 | 0.00 | 1 | 1011.4 |
| 20260505123745 | 60 | 19 | 3.0 | 8.0 | 0.00 | 0.00 | 0.00 | 1 | 1011.3 |
| 20260505123713 | 60 | 19 | 3.0 | 8.0 | 0.00 | 0.00 | 0.00 | 1 | 1011.3 |
| 20260505123645 | 60 | 49 | 3.0 | 8.0 | 0.00 | 0.00 | 0.00 | 1 | 1011.4 |
| 20260505123545 | 60 | 40 | 3.0 | 8.0 | 0.00 | 0.00 | 0.00 | 100 | 1011.4 |
| 20260505123445 | 60 | 48 | 5.0 | 8.0 | 0.00 | 0.00 | 0.00 | 100 | 1011.4 |
| 20260505123345 | 60 | 48 | 8.0 | 8.0 | 0.00 | 0.00 | 0.00 | 100 | 1011.4 |
| 20260505123246 | 60 | 350 | 7.0 | 8.0 | 0.00 | 0.00 | 0.00 | 100 | 1011.4 |
| 20260505123212 | 60 | 350 | 7.0 | 8.0 | 0.00 | 0.00 | 0.00 | 100 | 1011.4 |
| 20260505123145 | 60 | 355 | 2.0 | 8.0 | 0.00 | 0.00 | 0.00 | 100 | 1011.4 |
| 20260505123045 | 60 | 18 | 4.0 | 8.0 | 0.00 | 0.00 | 0.00 | 100 | 1011.4 |
| 20260505122945 | 59 | 9 | 2.0 | 5.0 | 0.00 | 0.00 | 0.00 | 100 | 1011.4 |
| 20260505122845 | 59 | 58 | 3.0 | 5.0 | 0.00 | 0.00 | 0.00 | 100 | 1011.4 |
| 20260505122745 | 59 | 59 | 3.0 | 8.0 | 0.00 | 0.00 | 0.00 | 100 | 1011.5 |
| 20260505122712 | 59 | 59 | 3.0 | 8.0 | 0.00 | 0.00 | 0.00 | 100 | 1011.5 |
| 20260505122644 | 59 | 36 | 8.0 | 8.0 | 0.00 | 0.00 | 0.00 | 100 | 1011.4 |
| 20260505122544 | 59 | 52 | 3.0 | 8.0 | 0.00 | 0.00 | 0.00 | 100 | 1011.4 |
| 20260505122444 | 59 | 13 | 3.0 | 3.0 | 0.00 | 0.00 | 0.00 | 100 | 1011.4 |
| 20260505122345 | 59 | 26 | 3.0 | 3.0 | 0.00 | 0.00 | 0.00 | 100 | 1011.4 |
| 20260505122245 | 59 | 36 | 3.0 | 6.0 | 0.00 | 0.00 | 0.00 | 100 | 1011.5 |
| 20260505122211 | 59 | 36 | 3.0 | 6.0 | 0.00 | 0.00 | 0.00 | 100 | 1011.5 |
| 20260505122145 | 59 | 50 | 5.0 | 6.0 | 0.00 | 0.00 | 0.00 | 100 | 1011.5 |
| 20260505122044 | 59 | 5 | 2.0 | 6.0 | 0.00 | 0.00 | 0.00 | 100 | 1011.4 |
| 20260505121944 | 59 | 28 | 3.0 | 6.0 | 0.00 | 0.00 | 0.00 | 100 | 1011.5 |
| 20260505121844 | 59 | 34 | 3.0 | 5.0 | 0.00 | 0.00 | 0.00 | 100 | 1011.4 |
| 20260505121744 | 59 | 73 | 3.0 | 9.0 | 0.00 | 0.00 | 0.00 | 100 | 1011.4 |
| 20260505121712 | 59 | 73 | 3.0 | 9.0 | 0.00 | 0.00 | 0.00 | 100 | 1011.4 |
| 20260505121645 | 59 | 80 | 5.0 | 9.0 | 0.00 | 0.00 | 0.00 | 1 | 1011.4 |
| 20260505121545 | 59 | 42 | 4.0 | 9.0 | 0.00 | 0.00 | 0.00 | 2 | 1011.5 |
| 20260505121445 | 59 | 46 | 5.0 | 9.0 | 0.00 | 0.00 | 0.00 | 2 | 1011.5 |
| 20260505121345 | 59 | 51 | 3.0 | 6.0 | 0.00 | 0.00 | 0.00 | 4 | 1011.4 |
| 20260505121245 | 59 | 53 | 5.0 | 10.0 | 0.00 | 0.00 | 0.00 | 4 | 1011.4 |
| 20260505121211 | 59 | 53 | 5.0 | 10.0 | 0.00 | 0.00 | 0.00 | 4 | 1011.4 |
| 20260505121145 | 59 | 12 | 7.0 | 10.0 | 0.00 | 0.00 | 0.00 | 4 | 1011.4 |
| 20260505121045 | 59 | 61 | 4.0 | 10.0 | 0.00 | 0.00 | 0.00 | 3 | 1011.5 |
| 20260505120945 | 59 | 13 | 3.0 | 10.0 | 0.00 | 0.00 | 0.00 | 4 | 1011.5 |
| 20260505120844 | 59 | 10 | 3.0 | 10.0 | 0.00 | 0.00 | 0.00 | 3 | 1011.4 |
| 20260505120744 | 59 | 5 | 3.0 | 8.0 | 0.00 | 0.00 | 0.00 | 4 | 1011.6 |
| 20260505120712 | 59 | 5 | 3.0 | 8.0 | 0.00 | 0.00 | 0.00 | 4 | 1011.6 |
| 20260505120644 | 59 | 349 | 6.0 | 7.0 | 0.00 | 0.00 | 0.00 | 4 | 1011.5 |
| 20260505120544 | 59 | 360 | 3.0 | 7.0 | 0.00 | 0.00 | 0.00 | 5 | 1011.5 |
| 20260505120444 | 59 | 46 | 5.0 | 7.0 | 0.00 | 0.00 | 0.00 | 5 | 1011.5 |
| 20260505120344 | 59 | 52 | 3.0 | 7.0 | 0.00 | 0.00 | 0.00 | 5 | 1011.5 |
| 20260505120246 | 59 | 72 | 6.0 | 8.0 | 0.00 | 0.00 | 0.00 | 3 | 1011.5 |
| 20260505120212 | 59 | 72 | 6.0 | 8.0 | 0.00 | 0.00 | 0.00 | 3 | 1011.5 |
| 20260505120144 | 59 | 76 | 4.0 | 8.0 | 0.00 | 0.00 | 0.00 | 2 | 1011.5 |
| 20260505120045 | 59 | 86 | 6.0 | 8.0 | 0.00 | 0.00 | 0.00 | 1 | 1011.6 |
| 20260505115945 | 59 | 40 | 2.0 | 8.0 | 0.00 | 0.00 | 0.00 | 2 | 1011.4 |
| 20260505115845 | 59 | 40 | 7.0 | 7.0 | 0.00 | 0.00 | 0.00 | 1 | 1011.4 |
| 20260505115745 | 59 | 110 | 2.0 | 6.0 | 0.00 | 0.00 | 0.00 | 1 | 1011.5 |
| 20260505115713 | 59 | 110 | 2.0 | 6.0 | 0.00 | 0.00 | 0.00 | 1 | 1011.5 |
| 20260505115645 | 59 | 74 | 3.0 | 6.0 | 0.00 | 0.00 | 0.00 | 2 | 1011.4 |
| 20260505115545 | 59 | 59 | 3.0 | 6.0 | 0.00 | 0.00 | 0.00 | 2 | 1011.5 |
| 20260505115446 | 59 | 360 | 6.0 | 6.0 | 0.00 | 0.00 | 0.00 | 3 | 1011.5 |
| 20260505115346 | 59 | 55 | 5.0 | 5.0 | 0.00 | 0.00 | 0.00 | 5 | 1011.4 |
| 20260505115246 | 59 | 23 | 2.0 | 9.0 | 0.00 | 0.00 | 0.00 | 6 | 1011.5 |
| 20260505115212 | 59 | 23 | 2.0 | 9.0 | 0.00 | 0.00 | 0.00 | 6 | 1011.5 |
| 20260505115145 | 59 | 80 | 4.0 | 9.0 | 0.00 | 0.00 | 0.00 | 5 | 1011.4 |
| 20260505115045 | 59 | 19 | 6.0 | 9.0 | 0.00 | 0.00 | 0.00 | 4 | 1011.5 |
| 20260505114945 | 59 | 28 | 5.0 | 9.0 | 0.00 | 0.00 | 0.00 | 3 | 1011.5 |
| 20260505114844 | 59 | 342 | 5.0 | 5.0 | 0.00 | 0.00 | 0.00 | 4 | 1011.5 |
| 20260505114744 | 59 | 40 | 6.0 | 9.0 | 0.00 | 0.00 | 0.00 | 4 | 1011.5 |
| 20260505114712 | 59 | 40 | 6.0 | 9.0 | 0.00 | 0.00 | 0.00 | 4 | 1011.5 |
| 20260505114645 | 59 | 9 | 4.0 | 9.0 | 0.00 | 0.00 | 0.00 | 3 | 1011.5 |
| 20260505114545 | 59 | 19 | 4.0 | 9.0 | 0.00 | 0.00 | 0.00 | 2 | 1011.6 |
| 20260505114445 | 59 | 360 | 4.0 | 9.0 | 0.00 | 0.00 | 0.00 | 1 | 1011.6 |
| 20260505114345 | 59 | 5 | 4.0 | 9.0 | 0.00 | 0.00 | 0.00 | 100 | 1011.6 |
| 20260505114245 | 59 | 9 | 2.0 | 8.0 | 0.00 | 0.00 | 0.00 | 100 | 1011.6 |
| 20260505114213 | 59 | 9 | 2.0 | 8.0 | 0.00 | 0.00 | 0.00 | 100 | 1011.6 |
| 20260505114145 | 60 | 355 | 3.0 | 8.0 | 0.00 | 0.00 | 0.00 | 1 | 1011.6 |
| 20260505114045 | 60 | 355 | 5.0 | 8.0 | 0.00 | 0.00 | 0.00 | 100 | 1011.6 |
| 20260505113945 | 60 | 5 | 3.0 | 7.0 | 0.00 | 0.00 | 0.00 | 100 | 1011.7 |
| 20260505113845 | 60 | 24 | 4.0 | 5.0 | 0.00 | 0.00 | 0.00 | 100 | 1011.6 |
| 20260505113745 | 60 | 90 | 6.0 | 8.0 | 0.00 | 0.00 | 0.00 | 100 | 1011.6 |
| 20260505113713 | 60 | 90 | 6.0 | 8.0 | 0.00 | 0.00 | 0.00 | 100 | 1011.6 |
| 20260505113645 | 59 | 80 | 7.0 | 8.0 | 0.00 | 0.00 | 0.00 | 100 | 1011.6 |
| 20260505113544 | 59 | 59 | 2.0 | 8.0 | 0.00 | 0.00 | 0.00 | 100 | 1011.6 |
| 20260505113444 | 59 | 47 | 3.0 | 8.0 | 0.00 | 0.00 | 0.00 | 100 | 1011.6 |
| 20260505113344 | 59 | 76 | 6.0 | 6.0 | 0.00 | 0.00 | 0.00 | 100 | 1011.6 |
| 20260505113245 | 59 | 26 | 3.0 | 10.0 | 0.00 | 0.00 | 0.00 | 100 | 1011.6 |
| 20260505113211 | 59 | 26 | 3.0 | 10.0 | 0.00 | 0.00 | 0.00 | 100 | 1011.6 |
| 20260505113145 | 59 | 360 | 2.0 | 10.0 | 0.00 | 0.00 | 0.00 | 100 | 1011.6 |
| 20260505113045 | 59 | 34 | 3.0 | 10.0 | 0.00 | 0.00 | 0.00 | 100 | 1011.6 |
| 20260505112945 | 59 | 66 | 3.0 | 10.0 | 0.00 | 0.00 | 0.00 | 100 | 1011.6 |
| 20260505112845 | 59 | 46 | 5.0 | 10.0 | 0.00 | 0.00 | 0.00 | 100 | 1011.6 |
| 20260505112745 | 59 | 351 | 4.0 | 8.0 | 0.00 | 0.00 | 0.00 | 100 | 1011.6 |
| 20260505112713 | 59 | 351 | 4.0 | 8.0 | 0.00 | 0.00 | 0.00 | 100 | 1011.6 |
| 20260505112645 | 59 | 32 | 1.0 | 8.0 | 0.00 | 0.00 | 0.00 | 100 | 1011.6 |
| 20260505112545 | 59 | 34 | 5.0 | 8.0 | 0.00 | 0.00 | 0.00 | 100 | 1011.6 |
| 20260505112444 | 59 | 71 | 4.0 | 8.0 | 0.00 | 0.00 | 0.00 | 100 | 1011.6 |
| 20260505112344 | 59 | 27 | 3.0 | 8.0 | 0.00 | 0.00 | 0.00 | 100 | 1011.6 |
| 20260505112244 | 59 | 34 | 3.0 | 9.0 | 0.00 | 0.00 | 0.00 | 100 | 1011.6 |
| 20260505112212 | 59 | 34 | 3.0 | 9.0 | 0.00 | 0.00 | 0.00 | 100 | 1011.6 |
| 20260505112144 | 59 | 31 | 5.0 | 9.0 | 0.00 | 0.00 | 0.00 | 100 | 1011.6 |
| 20260505112044 | 59 | 9 | 5.0 | 9.0 | 0.00 | 0.00 | 0.00 | 100 | 1011.5 |
| 20260505111944 | 59 | 33 | 5.0 | 9.0 | 0.00 | 0.00 | 0.00 | 100 | 1011.6 |
| 20260505111844 | 59 | 339 | 9.0 | 9.0 | 0.00 | 0.00 | 0.00 | 100 | 1011.6 |
| 20260505111744 | 59 | 360 | 6.0 | 9.0 | 0.00 | 0.00 | 0.00 | 100 | 1011.6 |
| 20260505111712 | 59 | 360 | 6.0 | 9.0 | 0.00 | 0.00 | 0.00 | 100 | 1011.6 |
| 20260505111646 | 59 | 341 | 4.0 | 9.0 | 0.00 | 0.00 | 0.00 | 100 | 1011.6 |
| 20260505111546 | 59 | 55 | 4.0 | 9.0 | 0.00 | 0.00 | 0.00 | 100 | 1011.7 |
| 20260505111446 | 59 | 52 | 3.0 | 9.0 | 0.00 | 0.00 | 0.00 | 100 | 1011.7 |
| 20260505111345 | 59 | 12 | 4.0 | 6.0 | 0.00 | 0.00 | 0.00 | 100 | 1011.6 |
| 20260505111244 | 59 | 28 | 3.0 | 10.0 | 0.00 | 0.00 | 0.00 | 100 | 1011.6 |
| 20260505111213 | 59 | 28 | 3.0 | 10.0 | 0.00 | 0.00 | 0.00 | 100 | 1011.6 |
| 20260505111144 | 59 | 19 | 7.0 | 8.0 | 0.00 | 0.00 | 0.00 | 100 | 1011.6 |
| 20260505111044 | 59 | 360 | 4.0 | 8.0 | 0.00 | 0.00 | 0.00 | 100 | 1011.6 |
| 20260505110944 | 59 | 31 | 4.0 | 8.0 | 0.00 | 0.00 | 0.00 | 100 | 1011.6 |
| 20260505110845 | 59 | 44 | 4.0 | 6.0 | 0.00 | 0.00 | 0.00 | 100 | 1011.6 |
| 20260505110745 | 59 | 53 | 4.0 | 10.0 | 0.00 | 0.00 | 0.00 | 100 | 1011.6 |
| 20260505110711 | 59 | 53 | 4.0 | 10.0 | 0.00 | 0.00 | 0.00 | 100 | 1011.6 |
| 20260505110645 | 59 | 78 | 3.0 | 10.0 | 0.00 | 0.00 | 0.00 | 100 | 1011.6 |
| 20260505110545 | 59 | 109 | 3.0 | 10.0 | 0.00 | 0.00 | 0.00 | 100 | 1011.7 |
| 20260505110445 | 59 | 38 | 3.0 | 10.0 | 0.00 | 0.00 | 0.00 | 100 | 1011.6 |
| 20260505110344 | 59 | 56 | 9.0 | 9.0 | 0.00 | 0.00 | 0.00 | 100 | 1011.6 |
| 20260505110244 | 59 | 67 | 4.0 | 7.0 | 0.00 | 0.00 | 0.00 | 100 | 1011.6 |
| 20260505110212 | 59 | 67 | 4.0 | 7.0 | 0.00 | 0.00 | 0.00 | 100 | 1011.6 |
| 20260505110146 | 59 | 46 | 1.0 | 7.0 | 0.00 | 0.00 | 0.00 | 100 | 1011.7 |
| 20260505102212 | 59 | 43 | 4.0 | 8.0 | 0.00 | 0.00 | 0.00 | 100 | 1011.8 |
| 20260505102144 | 59 | 351 | 3.0 | 6.0 | 0.00 | 0.00 | 0.00 | 100 | 1011.8 |
| 20260505102044 | 59 | 57 | 3.0 | 6.0 | 0.00 | 0.00 | 0.00 | 100 | 1011.7 |
| 20260505101944 | 59 | 323 | 2.0 | 6.0 | 0.00 | 0.00 | 0.00 | 100 | 1011.8 |
| 20260505101845 | 59 | 13 | 3.0 | 6.0 | 0.00 | 0.00 | 0.00 | 100 | 1011.8 |
| 20260505101746 | 59 | 51 | 3.0 | 10.0 | 0.00 | 0.00 | 0.00 | 1 | 1011.8 |
| 20260505101712 | 59 | 51 | 3.0 | 10.0 | 0.00 | 0.00 | 0.00 | 1 | 1011.8 |
| 20260505101645 | 59 | 350 | 5.0 | 10.0 | 0.00 | 0.00 | 0.00 | 1 | 1011.8 |
| 20260505101545 | 59 | 46 | 6.0 | 10.0 | 0.00 | 0.00 | 0.00 | 1 | 1011.8 |
| 20260505101445 | 59 | 12 | 5.0 | 6.0 | 0.00 | 0.00 | 0.00 | 3 | 1011.7 |
| 20260505101344 | 59 | 360 | 5.0 | 5.0 | 0.00 | 0.00 | 0.00 | 7 | 1011.8 |
| 20260505101244 | 59 | 9 | 6.0 | 10.0 | 0.00 | 0.00 | 0.00 | 7 | 1011.7 |
| 20260505101211 | 59 | 9 | 6.0 | 10.0 | 0.00 | 0.00 | 0.00 | 7 | 1011.7 |
| 20260505101145 | 60 | 350 | 8.0 | 9.0 | 0.00 | 0.00 | 0.00 | 7 | 1011.7 |
| 20260505101044 | 60 | 26 | 8.0 | 9.0 | 0.00 | 0.00 | 0.00 | 6 | 1011.7 |
| 20260505100944 | 60 | 10 | 3.0 | 9.0 | 0.00 | 0.00 | 0.00 | 8 | 1011.7 |
| 20260505100844 | 60 | 58 | 3.0 | 7.0 | 0.00 | 0.00 | 0.00 | 10 | 1011.7 |
| 20260505100745 | 60 | 9 | 6.0 | 7.0 | 0.00 | 0.00 | 0.00 | 10 | 1011.7 |
| 20260505100711 | 60 | 9 | 6.0 | 7.0 | 0.00 | 0.00 | 0.00 | 10 | 1011.7 |
| 20260505100645 | 60 | 16 | 3.0 | 7.0 | 0.00 | 0.00 | 0.00 | 11 | 1011.7 |
| 20260505100545 | 60 | 16 | 4.0 | 7.0 | 0.00 | 0.00 | 0.00 | 10 | 1011.8 |
| 20260505100444 | 60 | 26 | 4.0 | 7.0 | 0.00 | 0.00 | 0.00 | 9 | 1011.8 |
| 20260505100344 | 60 | 355 | 4.0 | 7.0 | 0.00 | 0.00 | 0.00 | 8 | 1011.8 |
| 20260505100245 | 60 | 350 | 3.0 | 10.0 | 0.00 | 0.00 | 0.00 | 8 | 1011.8 |
| 20260505100211 | 60 | 350 | 3.0 | 10.0 | 0.00 | 0.00 | 0.00 | 8 | 1011.8 |
| 20260505100145 | 60 | 13 | 7.0 | 10.0 | 0.00 | 0.00 | 0.00 | 7 | 1011.8 |
| 20260505100045 | 60 | 9 | 10.0 | 10.0 | 0.00 | 0.00 | 0.00 | 8 | 1011.8 |
| 20260505095945 | 60 | 28 | 5.0 | 10.0 | 0.00 | 0.00 | 0.00 | 7 | 1011.9 |
| 20260505095845 | 60 | 65 | 6.0 | 10.0 | 0.00 | 0.00 | 0.00 | 5 | 1011.8 |
| 20260505095745 | 60 | 360 | 4.0 | 7.0 | 0.00 | 0.00 | 0.00 | 3 | 1011.9 |
| 20260505095713 | 60 | 360 | 4.0 | 7.0 | 0.00 | 0.00 | 0.00 | 3 | 1011.9 |
| 20260505095645 | 60 | 14 | 7.0 | 7.0 | 0.00 | 0.00 | 0.00 | 3 | 1011.9 |
| 20260505095545 | 60 | 348 | 2.0 | 7.0 | 0.00 | 0.00 | 0.00 | 5 | 1011.9 |
| 20260505095445 | 60 | 355 | 6.0 | 7.0 | 0.00 | 0.00 | 0.00 | 4 | 1011.9 |
| 20260505095345 | 60 | 344 | 5.0 | 7.0 | 0.00 | 0.00 | 0.00 | 2 | 1011.9 |
| 20260505095245 | 60 | 32 | 3.0 | 9.0 | 0.00 | 0.00 | 0.00 | 2 | 1012.0 |
| 20260505095211 | 60 | 32 | 3.0 | 9.0 | 0.00 | 0.00 | 0.00 | 2 | 1012.0 |
| 20260505095144 | 60 | 331 | 8.0 | 9.0 | 0.00 | 0.00 | 0.00 | 3 | 1012.0 |
| 20260505095044 | 60 | 11 | 4.0 | 6.0 | 0.00 | 0.00 | 0.00 | 2 | 1011.9 |
| 20260505094944 | 60 | 38 | 3.0 | 4.0 | 0.00 | 0.00 | 0.00 | 1 | 1011.9 |
| 20260505094845 | 60 | 18 | 2.0 | 4.0 | 0.00 | 0.00 | 0.00 | 100 | 1012.0 |
| 20260505094745 | 60 | 44 | 3.0 | 10.0 | 0.00 | 0.00 | 0.00 | 100 | 1011.9 |
| 20260505094713 | 60 | 44 | 3.0 | 10.0 | 0.00 | 0.00 | 0.00 | 100 | 1011.9 |
| 20260505094644 | 60 | 17 | 4.0 | 10.0 | 0.00 | 0.00 | 0.00 | 100 | 1012.0 |
| 20260505094544 | 60 | 68 | 3.0 | 10.0 | 0.00 | 0.00 | 0.00 | 100 | 1012.0 |
| 20260505094444 | 60 | 325 | 4.0 | 10.0 | 0.00 | 0.00 | 0.00 | 100 | 1012.0 |
| 20260505094345 | 60 | 12 | 7.0 | 10.0 | 0.00 | 0.00 | 0.00 | 100 | 1011.9 |
| 20260505094245 | 60 | 78 | 3.0 | 8.0 | 0.00 | 0.00 | 0.00 | 100 | 1011.9 |
| 20260505094211 | 60 | 78 | 3.0 | 8.0 | 0.00 | 0.00 | 0.00 | 100 | 1011.9 |
| 20260505094145 | 60 | 9 | 5.0 | 8.0 | 0.00 | 0.00 | 0.00 | 100 | 1012.0 |
| 20260505094045 | 60 | 30 | 3.0 | 6.0 | 0.00 | 0.00 | 0.00 | 100 | 1011.9 |
| 20260505093945 | 59 | 9 | 4.0 | 6.0 | 0.00 | 0.00 | 0.00 | 100 | 1012.0 |
| 20260505093845 | 59 | 34 | 4.0 | 4.0 | 0.00 | 0.00 | 0.00 | 100 | 1011.9 |
| 20260505093745 | 59 | 360 | 3.0 | 8.0 | 0.00 | 0.00 | 0.00 | 100 | 1011.9 |
| 20260505093713 | 59 | 360 | 3.0 | 8.0 | 0.00 | 0.00 | 0.00 | 100 | 1011.9 |
| 20260505093645 | 59 | 27 | 3.0 | 8.0 | 0.00 | 0.00 | 0.00 | 100 | 1011.9 |
| 20260505093546 | 59 | 26 | 4.0 | 8.0 | 0.00 | 0.00 | 0.00 | 100 | 1012.0 |
| 20260505093446 | 59 | 40 | 3.0 | 8.0 | 0.00 | 0.00 | 0.00 | 100 | 1012.0 |
| 20260505093345 | 58 | 339 | 3.0 | 8.0 | 0.00 | 0.00 | 0.00 | 100 | 1011.8 |
| 20260505093244 | 58 | 342 | 3.0 | 10.0 | 0.00 | 0.00 | 0.00 | 100 | 1011.9 |
| 20260505093212 | 58 | 342 | 3.0 | 10.0 | 0.00 | 0.00 | 0.00 | 100 | 1011.9 |
| 20260505093144 | 58 | 84 | 6.0 | 10.0 | 0.00 | 0.00 | 0.00 | 100 | 1011.8 |
| 20260505093044 | 58 | 14 | 4.0 | 10.0 | 0.00 | 0.00 | 0.00 | 100 | 1011.8 |
| 20260505092944 | 58 | 9 | 6.0 | 10.0 | 0.00 | 0.00 | 0.00 | 100 | 1011.9 |
| 20260505092844 | 58 | 350 | 7.0 | 10.0 | 0.00 | 0.00 | 0.00 | 100 | 1011.9 |
| 20260505092744 | 58 | 9 | 8.0 | 8.0 | 0.00 | 0.00 | 0.00 | 100 | 1011.8 |
| 20260505092712 | 58 | 9 | 8.0 | 8.0 | 0.00 | 0.00 | 0.00 | 100 | 1011.8 |
| 20260505092644 | 58 | 29 | 3.0 | 8.0 | 0.00 | 0.00 | 0.00 | 100 | 1011.9 |
| 20260505092546 | 58 | 23 | 3.0 | 8.0 | 0.00 | 0.00 | 0.00 | 100 | 1011.9 |
| 20260505092446 | 58 | 30 | 3.0 | 7.0 | 0.00 | 0.00 | 0.00 | 100 | 1011.9 |
| 20260505092345 | 58 | 360 | 7.0 | 7.0 | 0.00 | 0.00 | 0.00 | 100 | 1012.0 |
| 20260505092245 | 58 | 355 | 4.0 | 9.0 | 0.00 | 0.00 | 0.00 | 100 | 1012.0 |
| 20260505092211 | 58 | 355 | 4.0 | 9.0 | 0.00 | 0.00 | 0.00 | 100 | 1012.0 |
| 20260505092145 | 58 | 12 | 6.0 | 9.0 | 0.00 | 0.00 | 0.00 | 100 | 1012.1 |
| 20260505092045 | 58 | 347 | 1.0 | 9.0 | 0.00 | 0.00 | 0.00 | 100 | 1012.1 |
| 20260505091945 | 58 | 9 | 9.0 | 9.0 | 0.00 | 0.00 | 0.00 | 100 | 1012.0 |
| 20260505091845 | 58 | 339 | 6.0 | 6.0 | 0.00 | 0.00 | 0.00 | 100 | 1012.1 |
| 20260505091745 | 58 | 329 | 6.0 | 8.0 | 0.00 | 0.00 | 0.00 | 100 | 1012.0 |
| 20260505091711 | 58 | 329 | 6.0 | 8.0 | 0.00 | 0.00 | 0.00 | 100 | 1012.0 |
| 20260505091645 | 57 | 14 | 3.0 | 8.0 | 0.00 | 0.00 | 0.00 | 100 | 1012.1 |
| 20260505091545 | 57 | 48 | 4.0 | 8.0 | 0.00 | 0.00 | 0.00 | 100 | 1012.1 |
| 20260505091445 | 57 | 40 | 3.0 | 7.0 | 0.00 | 0.00 | 0.00 | 100 | 1012.1 |
| 20260505091345 | 57 | 346 | 4.0 | 5.0 | 0.00 | 0.00 | 0.00 | 100 | 1012.1 |
| 20260505091245 | 57 | 31 | 3.0 | 7.0 | 0.00 | 0.00 | 0.00 | 100 | 1012.1 |
| 20260505091211 | 57 | 31 | 3.0 | 7.0 | 0.00 | 0.00 | 0.00 | 100 | 1012.1 |
| 20260505091145 | 57 | 333 | 3.0 | 7.0 | 0.00 | 0.00 | 0.00 | 100 | 1012.1 |
| 20260505091045 | 57 | 336 | 6.0 | 7.0 | 0.00 | 0.00 | 0.00 | 100 | 1012.1 |
| 20260505090945 | 57 | 13 | 7.0 | 7.0 | 0.00 | 0.00 | 0.00 | 100 | 1012.1 |
| 20260505090845 | 57 | 344 | 5.0 | 6.0 | 0.00 | 0.00 | 0.00 | 100 | 1012.1 |
| 20260505090745 | 57 | 335 | 8.0 | 8.0 | 0.00 | 0.00 | 0.00 | 100 | 1012.1 |
| 20260505090711 | 57 | 335 | 8.0 | 8.0 | 0.00 | 0.00 | 0.00 | 100 | 1012.1 |
| 20260505090645 | 57 | 9 | 5.0 | 8.0 | 0.00 | 0.00 | 0.00 | 100 | 1012.1 |
| 20260505090545 | 57 | 45 | 4.0 | 6.0 | 0.00 | 0.00 | 0.00 | 100 | 1012.0 |
| 20260505090445 | 57 | 348 | 6.0 | 6.0 | 0.00 | 0.00 | 0.00 | 100 | 1012.0 |
| 20260505090345 | 57 | 32 | 3.0 | 5.0 | 0.00 | 0.00 | 0.00 | 100 | 1012.0 |
| 20260505090245 | 57 | 45 | 4.0 | 8.0 | 0.00 | 0.00 | 0.00 | 100 | 1012.0 |
| 20260505090212 | 57 | 45 | 4.0 | 8.0 | 0.00 | 0.00 | 0.00 | 100 | 1012.0 |
| 20260505090144 | 57 | 9 | 3.0 | 8.0 | 0.00 | 0.00 | 0.00 | 100 | 1012.0 |
| 20260505090045 | 57 | 51 | 5.0 | 8.0 | 0.00 | 0.00 | 0.00 | 100 | 1012.0 |
| 20260505085945 | 57 | 44 | 3.0 | 8.0 | 0.00 | 0.00 | 0.00 | 100 | 1012.0 |
| 20260505085845 | 57 | 82 | 8.0 | 8.0 | 0.00 | 0.00 | 0.00 | 100 | 1012.0 |
| 20260505085745 | 57 | 49 | 2.0 | 6.0 | 0.00 | 0.00 | 0.00 | 100 | 1012.0 |
| 20260505085712 | 57 | 49 | 2.0 | 6.0 | 0.00 | 0.00 | 0.00 | 100 | 1012.0 |
| 20260505085644 | 57 | 355 | 4.0 | 5.0 | 0.00 | 0.00 | 0.00 | 100 | 1012.0 |
| 20260505085544 | 56 | 26 | 3.0 | 5.0 | 0.00 | 0.00 | 0.00 | 100 | 1012.0 |
| 20260505085444 | 56 | 39 | 5.0 | 5.0 | 0.00 | 0.00 | 0.00 | 100 | 1012.0 |
| 20260505085344 | 56 | 355 | 4.0 | 5.0 | 0.00 | 0.00 | 0.00 | 100 | 1012.0 |
| 20260505085244 | 56 | 41 | 3.0 | 8.0 | 0.00 | 0.00 | 0.00 | 100 | 1012.0 |
| 20260505085212 | 56 | 41 | 3.0 | 8.0 | 0.00 | 0.00 | 0.00 | 100 | 1012.0 |
| 20260505085144 | 56 | 28 | 3.0 | 8.0 | 0.00 | 0.00 | 0.00 | 100 | 1012.0 |
| 20260505085044 | 56 | 43 | 3.0 | 8.0 | 0.00 | 0.00 | 0.00 | 100 | 1012.0 |
| 20260505084945 | 56 | 16 | 2.0 | 8.0 | 0.00 | 0.00 | 0.00 | 100 | 1012.1 |
| 20260505084845 | 56 | 321 | 6.0 | 8.0 | 0.00 | 0.00 | 0.00 | 100 | 1012.1 |
| 20260505084745 | 56 | 53 | 5.0 | 9.0 | 0.00 | 0.00 | 0.00 | 100 | 1012.1 |
| 20260505084711 | 56 | 53 | 5.0 | 9.0 | 0.00 | 0.00 | 0.00 | 100 | 1012.1 |
| 20260505084645 | 56 | 337 | 4.0 | 9.0 | 0.00 | 0.00 | 0.00 | 100 | 1012.1 |
| 20260505084545 | 56 | 19 | 5.0 | 9.0 | 0.00 | 0.00 | 0.00 | 100 | 1012.1 |
| 20260505084445 | 56 | 22 | 4.0 | 9.0 | 0.00 | 0.00 | 0.00 | 100 | 1012.1 |
| 20260505084344 | 56 | 360 | 8.0 | 9.0 | 0.00 | 0.00 | 0.00 | 100 | 1012.2 |
| 20260505084244 | 56 | 12 | 5.0 | 10.0 | 0.00 | 0.00 | 0.00 | 100 | 1012.1 |
| 20260505084212 | 56 | 12 | 5.0 | 10.0 | 0.00 | 0.00 | 0.00 | 100 | 1012.1 |
| 20260505084144 | 56 | 15 | 4.0 | 10.0 | 0.00 | 0.00 | 0.00 | 100 | 1012.2 |
| 20260505084044 | 56 | 5 | 6.0 | 10.0 | 0.00 | 0.00 | 0.00 | 100 | 1012.1 |
| 20260505083944 | 56 | 355 | 5.0 | 10.0 | 0.00 | 0.00 | 0.00 | 100 | 1012.2 |
| 20260505083845 | 56 | 360 | 10.0 | 10.0 | 0.00 | 0.00 | 0.00 | 100 | 1012.2 |
| 20260505083745 | 56 | 347 | 4.0 | 10.0 | 0.00 | 0.00 | 0.00 | 100 | 1012.3 |
| 20260505083711 | 56 | 347 | 4.0 | 10.0 | 0.00 | 0.00 | 0.00 | 100 | 1012.3 |
| 20260505083645 | 56 | 17 | 6.0 | 10.0 | 0.00 | 0.00 | 0.00 | 100 | 1012.3 |
| 20260505083545 | 56 | 39 | 3.0 | 7.0 | 0.00 | 0.00 | 0.00 | 100 | 1012.2 |
| 20260505083445 | 56 | 331 | 4.0 | 7.0 | 0.00 | 0.00 | 0.00 | 100 | 1012.3 |
| 20260505083345 | 56 | 26 | 3.0 | 7.0 | 0.00 | 0.00 | 0.00 | 100 | 1012.3 |
| 20260505083245 | 56 | 18 | 5.0 | 7.0 | 0.00 | 0.00 | 0.00 | 100 | 1012.2 |
| 20260505083213 | 56 | 18 | 5.0 | 7.0 | 0.00 | 0.00 | 0.00 | 100 | 1012.2 |
| 20260505083145 | 56 | 9 | 5.0 | 7.0 | 0.00 | 0.00 | 0.00 | 100 | 1012.2 |
| 20260505083045 | 56 | 329 | 3.0 | 7.0 | 0.00 | 0.00 | 0.00 | 100 | 1012.2 |
| 20260505082944 | 56 | 5 | 3.0 | 7.0 | 0.00 | 0.00 | 0.00 | 100 | 1012.2 |
| 20260505082844 | 56 | 331 | 5.0 | 6.0 | 0.00 | 0.00 | 0.00 | 100 | 1012.1 |
| 20260505082744 | 56 | 5 | 3.0 | 10.0 | 0.00 | 0.00 | 0.00 | 100 | 1012.2 |
| 20260505082712 | 56 | 5 | 3.0 | 10.0 | 0.00 | 0.00 | 0.00 | 100 | 1012.2 |
| 20260505082644 | 57 | 38 | 6.0 | 10.0 | 0.00 | 0.00 | 0.00 | 100 | 1012.3 |
| 20260505082545 | 57 | 350 | 5.0 | 10.0 | 0.00 | 0.00 | 0.00 | 100 | 1012.2 |
| 20260505082445 | 57 | 9 | 7.0 | 10.0 | 0.00 | 0.00 | 0.00 | 100 | 1012.2 |
| 20260505082345 | 57 | 348 | 6.0 | 10.0 | 0.00 | 0.00 | 0.00 | 100 | 1012.3 |
| 20260505082245 | 57 | 355 | 5.0 | 10.0 | 0.00 | 0.00 | 0.00 | 100 | 1012.3 |
| 20260505082213 | 57 | 355 | 5.0 | 10.0 | 0.00 | 0.00 | 0.00 | 100 | 1012.3 |
| 20260505082146 | 57 | 5 | 3.0 | 7.0 | 0.00 | 0.00 | 0.00 | 100 | 1012.3 |
| 20260505082046 | 57 | 9 | 4.0 | 7.0 | 0.00 | 0.00 | 0.00 | 100 | 1012.2 |
| 20260505081946 | 57 | 17 | 5.0 | 5.0 | 0.00 | 0.00 | 0.00 | 100 | 1012.2 |
| 20260505081846 | 57 | 30 | 2.0 | 5.0 | 0.00 | 0.00 | 0.00 | 100 | 1012.2 |
| 20260505081745 | 57 | 355 | 6.0 | 9.0 | 0.00 | 0.00 | 0.00 | 100 | 1012.2 |
| 20260505081712 | 57 | 355 | 6.0 | 9.0 | 0.00 | 0.00 | 0.00 | 100 | 1012.2 |
| 20260505081644 | 57 | 37 | 8.0 | 9.0 | 0.00 | 0.00 | 0.00 | 100 | 1012.2 |
| 20260505081544 | 57 | 55 | 5.0 | 9.0 | 0.00 | 0.00 | 0.00 | 100 | 1012.2 |
| 20260505081444 | 57 | 56 | 3.0 | 9.0 | 0.00 | 0.00 | 0.00 | 100 | 1012.2 |
| 20260505081344 | 57 | 342 | 2.0 | 5.0 | 0.00 | 0.00 | 0.00 | 100 | 1012.2 |
| 20260505081245 | 57 | 350 | 3.0 | 10.0 | 0.00 | 0.00 | 0.00 | 100 | 1012.2 |
| 20260505081211 | 57 | 350 | 3.0 | 10.0 | 0.00 | 0.00 | 0.00 | 100 | 1012.2 |
| 20260505081145 | 57 | 81 | 8.0 | 10.0 | 0.00 | 0.00 | 0.00 | 100 | 1012.2 |
| 20260505081045 | 57 | 69 | 2.0 | 10.0 | 0.00 | 0.00 | 0.00 | 100 | 1012.2 |
| 20260505080945 | 57 | 9 | 7.0 | 10.0 | 0.00 | 0.00 | 0.00 | 100 | 1012.2 |
| 20260505080844 | 57 | 350 | 5.0 | 10.0 | 0.00 | 0.00 | 0.00 | 100 | 1012.2 |
| 20260505080744 | 57 | 336 | 6.0 | 9.0 | 0.00 | 0.00 | 0.00 | 100 | 1012.2 |
| 20260505080712 | 57 | 336 | 6.0 | 9.0 | 0.00 | 0.00 | 0.00 | 100 | 1012.2 |
| 20260505080644 | 57 | 360 | 6.0 | 8.0 | 0.00 | 0.00 | 0.00 | 100 | 1012.1 |
| 20260505080544 | 57 | 338 | 3.0 | 7.0 | 0.00 | 0.00 | 0.00 | 100 | 1012.1 |
| 20260505080444 | 57 | 24 | 3.0 | 7.0 | 0.00 | 0.00 | 0.00 | 100 | 1012.1 |
| 20260505080344 | 56 | 345 | 4.0 | 7.0 | 0.00 | 0.00 | 0.00 | 100 | 1012.1 |
| 20260505080244 | 56 | 355 | 4.0 | 10.0 | 0.00 | 0.00 | 0.00 | 100 | 1012.1 |
| 20260505080212 | 56 | 355 | 4.0 | 10.0 | 0.00 | 0.00 | 0.00 | 100 | 1012.1 |
| 20260505080145 | 56 | 31 | 3.0 | 10.0 | 0.00 | 0.00 | 0.00 | 100 | 1012.0 |
| 20260505080045 | 56 | 21 | 3.0 | 10.0 | 0.00 | 0.00 | 0.00 | 100 | 1012.0 |
| 20260505075944 | 56 | 312 | 5.0 | 10.0 | 0.00 | 0.00 | 0.00 | 100 | 1012.0 |
| 20260505075844 | 56 | 333 | 3.0 | 10.0 | 0.00 | 0.00 | 0.00 | 100 | 1012.1 |
| 20260505075745 | 56 | 355 | 3.0 | 10.0 | 0.00 | 0.00 | 0.00 | 100 | 1012.0 |
| 20260505075711 | 56 | 355 | 3.0 | 10.0 | 0.00 | 0.00 | 0.00 | 100 | 1012.0 |
| 20260505075645 | 56 | 338 | 6.0 | 7.0 | 0.00 | 0.00 | 0.00 | 100 | 1012.0 |
| 20260505075545 | 56 | 342 | 4.0 | 7.0 | 0.00 | 0.00 | 0.00 | 100 | 1012.0 |
| 20260505075446 | 56 | 360 | 5.0 | 7.0 | 0.00 | 0.00 | 0.00 | 100 | 1012.0 |
| 20260505075344 | 56 | 28 | 5.0 | 7.0 | 0.00 | 0.00 | 0.00 | 100 | 1012.0 |
| 20260505075244 | 55 | 355 | 4.0 | 8.0 | 0.00 | 0.00 | 0.00 | 100 | 1012.0 |
| 20260505075212 | 55 | 355 | 4.0 | 8.0 | 0.00 | 0.00 | 0.00 | 100 | 1012.0 |
| 20260505075144 | 55 | 326 | 5.0 | 7.0 | 0.00 | 0.00 | 0.00 | 100 | 1012.0 |
| 20260505075044 | 55 | 345 | 4.0 | 7.0 | 0.00 | 0.00 | 0.00 | 100 | 1012.0 |
| 20260505074944 | 55 | 19 | 5.0 | 7.0 | 0.00 | 0.00 | 0.00 | 100 | 1012.0 |
| 20260505074844 | 55 | 342 | 4.0 | 5.0 | 0.00 | 0.00 | 0.00 | 100 | 1012.0 |
| 20260505074746 | 55 | 11 | 3.0 | 9.0 | 0.00 | 0.00 | 0.00 | 100 | 1012.0 |
| 20260505074712 | 55 | 11 | 3.0 | 9.0 | 0.00 | 0.00 | 0.00 | 100 | 1012.0 |
| 20260505074645 | 55 | 13 | 4.0 | 9.0 | 0.00 | 0.00 | 0.00 | 100 | 1012.0 |
| 20260505074545 | 55 | 9 | 5.0 | 9.0 | 0.00 | 0.00 | 0.00 | 100 | 1012.0 |
| 20260505074445 | 55 | 22 | 5.0 | 6.0 | 0.00 | 0.00 | 0.00 | 100 | 1012.0 |
| 20260505074345 | 55 | 36 | 5.0 | 5.0 | 0.00 | 0.00 | 0.00 | 100 | 1012.0 |
| 20260505074245 | 55 | 9 | 3.0 | 8.0 | 0.00 | 0.00 | 0.00 | 100 | 1012.1 |
| 20260505074211 | 55 | 9 | 3.0 | 8.0 | 0.00 | 0.00 | 0.00 | 100 | 1012.1 |
| 20260505074145 | 55 | 9 | 3.0 | 8.0 | 0.00 | 0.00 | 0.00 | 100 | 1012.1 |
| 20260505074045 | 54 | 355 | 5.0 | 8.0 | 0.00 | 0.00 | 0.00 | 100 | 1012.0 |
| 20260505073945 | 54 | 20 | 8.0 | 8.0 | 0.00 | 0.00 | 0.00 | 100 | 1012.1 |
| 20260505073845 | 54 | 21 | 6.0 | 7.0 | 0.00 | 0.00 | 0.00 | 100 | 1012.1 |
| 20260505073745 | 54 | 18 | 7.0 | 9.0 | 0.00 | 0.00 | 0.00 | 100 | 1012.1 |
| 20260505073711 | 54 | 18 | 7.0 | 9.0 | 0.00 | 0.00 | 0.00 | 100 | 1012.1 |
| 20260505073645 | 54 | 350 | 3.0 | 9.0 | 0.00 | 0.00 | 0.00 | 100 | 1012.1 |
| 20260505073544 | 54 | 52 | 3.0 | 9.0 | 0.00 | 0.00 | 0.00 | 100 | 1012.1 |
| 20260505073444 | 54 | 360 | 3.0 | 9.0 | 0.00 | 0.00 | 0.00 | 100 | 1012.2 |
| 20260505073344 | 54 | 45 | 4.0 | 9.0 | 0.00 | 0.00 | 0.00 | 100 | 1012.2 |
| 20260505073244 | 54 | 22 | 3.0 | 8.0 | 0.00 | 0.00 | 0.00 | 100 | 1012.2 |
| 20260505073212 | 54 | 22 | 3.0 | 8.0 | 0.00 | 0.00 | 0.00 | 100 | 1012.2 |
| 20260505073145 | 54 | 19 | 4.0 | 8.0 | 0.00 | 0.00 | 0.00 | 100 | 1012.2 |
| 20260505073044 | 54 | 17 | 6.0 | 8.0 | 0.00 | 0.00 | 0.00 | 100 | 1012.3 |
| 20260505072944 | 54 | 40 | 7.0 | 8.0 | 0.00 | 0.00 | 0.00 | 100 | 1012.2 |
| 20260505072844 | 54 | 355 | 4.0 | 8.0 | 0.00 | 0.00 | 0.00 | 100 | 1012.2 |
| 20260505072745 | 54 | 10 | 3.0 | 10.0 | 0.00 | 0.00 | 0.00 | 100 | 1012.2 |
| 20260505072711 | 54 | 10 | 3.0 | 10.0 | 0.00 | 0.00 | 0.00 | 100 | 1012.2 |
| 20260505072645 | 54 | 36 | 10.0 | 10.0 | 0.00 | 0.00 | 0.00 | 100 | 1012.2 |
| 20260505072545 | 54 | 344 | 2.0 | 8.0 | 0.00 | 0.00 | 0.00 | 100 | 1012.2 |
| 20260505072445 | 54 | 42 | 2.0 | 8.0 | 0.00 | 0.00 | 0.00 | 100 | 1012.2 |
| 20260505072345 | 54 | 52 | 3.0 | 8.0 | 0.00 | 0.00 | 0.00 | 100 | 1012.3 |
| 20260505072245 | 54 | 25 | 4.0 | 9.0 | 0.00 | 0.00 | 0.00 | 100 | 1012.3 |
| 20260505072213 | 54 | 25 | 4.0 | 9.0 | 0.00 | 0.00 | 0.00 | 100 | 1012.3 |
| 20260505072146 | 54 | 9 | 7.0 | 9.0 | 0.00 | 0.00 | 0.00 | 100 | 1012.2 |
| 20260505072046 | 54 | 360 | 5.0 | 9.0 | 0.00 | 0.00 | 0.00 | 100 | 1012.3 |
| 20260505071945 | 54 | 360 | 8.0 | 9.0 | 0.00 | 0.00 | 0.00 | 100 | 1012.2 |
| 20260505071845 | 54 | 343 | 3.0 | 8.0 | 0.00 | 0.00 | 0.00 | 100 | 1012.3 |
| 20260505071745 | 54 | 5 | 9.0 | 9.0 | 0.00 | 0.00 | 0.00 | 100 | 1012.3 |
| 20260505071711 | 54 | 5 | 9.0 | 9.0 | 0.00 | 0.00 | 0.00 | 100 | 1012.3 |
| 20260505071645 | 54 | 360 | 7.0 | 9.0 | 0.00 | 0.00 | 0.00 | 100 | 1012.2 |
| 20260505071545 | 54 | 9 | 3.0 | 6.0 | 0.00 | 0.00 | 0.00 | 100 | 1012.3 |
| 20260505071444 | 54 | 341 | 4.0 | 6.0 | 0.00 | 0.00 | 0.00 | 100 | 1012.2 |
| 20260505071344 | 54 | 355 | 4.0 | 4.0 | 0.00 | 0.00 | 0.00 | 100 | 1012.2 |
| 20260505071244 | 54 | 349 | 6.0 | 8.0 | 0.00 | 0.00 | 0.00 | 100 | 1012.2 |
| 20260505071212 | 54 | 349 | 6.0 | 8.0 | 0.00 | 0.00 | 0.00 | 100 | 1012.2 |
| 20260505071145 | 54 | 347 | 5.0 | 7.0 | 0.00 | 0.00 | 0.00 | 100 | 1012.3 |
| 20260505071044 | 54 | 360 | 3.0 | 7.0 | 0.00 | 0.00 | 0.00 | 100 | 1012.2 |
| 20260505070944 | 54 | 24 | 3.0 | 7.0 | 0.00 | 0.00 | 0.00 | 100 | 1012.2 |
| 20260505070844 | 54 | 344 | 3.0 | 7.0 | 0.00 | 0.00 | 0.00 | 100 | 1012.2 |
| 20260505070745 | 54 | 5 | 5.0 | 8.0 | 0.00 | 0.00 | 0.00 | 100 | 1012.2 |
| 20260505070711 | 54 | 5 | 5.0 | 8.0 | 0.00 | 0.00 | 0.00 | 100 | 1012.2 |
| 20260505070645 | 54 | 324 | 5.0 | 8.0 | 0.00 | 0.00 | 0.00 | 100 | 1012.2 |
| 20260505070545 | 54 | 9 | 7.0 | 8.0 | 0.00 | 0.00 | 0.00 | 100 | 1012.2 |
| 20260505070445 | 54 | 348 | 7.0 | 7.0 | 0.00 | 0.00 | 0.00 | 100 | 1012.2 |
| 20260505070345 | 54 | 30 | 3.0 | 6.0 | 0.00 | 0.00 | 0.00 | 100 | 1012.2 |
| 20260505070245 | 54 | 336 | 3.0 | 9.0 | 0.00 | 0.00 | 0.00 | 100 | 1012.2 |
| 20260505070211 | 54 | 336 | 3.0 | 9.0 | 0.00 | 0.00 | 0.00 | 100 | 1012.2 |
| 20260505070145 | 54 | 345 | 6.0 | 9.0 | 0.00 | 0.00 | 0.00 | 100 | 1012.2 |
| 20260505070045 | 54 | 13 | 4.0 | 6.0 | 0.00 | 0.00 | 0.00 | 100 | 1012.2 |
| 20260505065945 | 54 | 350 | 3.0 | 6.0 | 0.00 | 0.00 | 0.00 | 100 | 1012.2 |
| 20260505065845 | 54 | 5 | 6.0 | 6.0 | 0.00 | 0.00 | 0.00 | 100 | 1012.2 |
| 20260505065745 | 54 | 360 | 3.0 | 10.0 | 0.00 | 0.00 | 0.00 | 100 | 1012.2 |
| 20260505065713 | 54 | 360 | 3.0 | 10.0 | 0.00 | 0.00 | 0.00 | 100 | 1012.2 |
| 20260505065644 | 54 | 331 | 6.0 | 10.0 | 0.00 | 0.00 | 0.00 | 100 | 1012.2 |
| 20260505065544 | 55 | 325 | 8.0 | 10.0 | 0.00 | 0.00 | 0.00 | 100 | 1012.2 |
| 20260505065444 | 55 | 5 | 3.0 | 5.0 | 0.00 | 0.00 | 0.00 | 100 | 1012.2 |
| 20260505065344 | 55 | 23 | 3.0 | 5.0 | 0.00 | 0.00 | 0.00 | 100 | 1012.2 |
| 20260505065244 | 55 | 325 | 5.0 | 9.0 | 0.00 | 0.00 | 0.00 | 100 | 1012.2 |
| 20260505065212 | 55 | 325 | 5.0 | 9.0 | 0.00 | 0.00 | 0.00 | 100 | 1012.2 |
| 20260505065144 | 55 | 9 | 3.0 | 9.0 | 0.00 | 0.00 | 0.00 | 100 | 1012.2 |
| 20260505065045 | 55 | 348 | 9.0 | 9.0 | 0.00 | 0.00 | 0.00 | 100 | 1012.2 |
| 20260505064945 | 55 | 9 | 6.0 | 8.0 | 0.00 | 0.00 | 0.00 | 100 | 1012.1 |
| 20260505064845 | 55 | 304 | 3.0 | 6.0 | 0.00 | 0.00 | 0.00 | 100 | 1012.2 |
| 20260505064746 | 55 | 9 | 10.0 | 10.0 | 0.00 | 0.00 | 0.00 | 100 | 1012.2 |
| 20260505064712 | 55 | 9 | 10.0 | 10.0 | 0.00 | 0.00 | 0.00 | 100 | 1012.2 |
| 20260505064645 | 55 | 355 | 3.0 | 8.0 | 0.00 | 0.00 | 0.00 | 100 | 1012.1 |
| 20260505064545 | 55 | 337 | 3.0 | 8.0 | 0.00 | 0.00 | 0.00 | 100 | 1012.2 |
| 20260505064445 | 55 | 329 | 4.0 | 8.0 | 0.00 | 0.00 | 0.00 | 100 | 1012.2 |
| 20260505064345 | 55 | 319 | 2.0 | 3.0 | 0.00 | 0.00 | 0.00 | 100 | 1012.2 |
| 20260505064244 | 55 | 350 | 3.0 | 5.0 | 0.00 | 0.00 | 0.00 | 100 | 1012.3 |
| 20260505064212 | 55 | 350 | 3.0 | 5.0 | 0.00 | 0.00 | 0.00 | 100 | 1012.3 |
| 20260505064144 | 55 | 355 | 3.0 | 5.0 | 0.00 | 0.00 | 0.00 | 100 | 1012.3 |
| 20260505064044 | 55 | 21 | 4.0 | 5.0 | 0.00 | 0.00 | 0.00 | 100 | 1012.3 |
| 20260505063944 | 54 | 333 | 3.0 | 5.0 | 0.00 | 0.00 | 0.00 | 100 | 1012.3 |
| 20260505063844 | 54 | 319 | 3.0 | 3.0 | 0.00 | 0.00 | 0.00 | 100 | 1012.3 |
| 20260505063744 | 54 | 355 | 3.0 | 6.0 | 0.00 | 0.00 | 0.00 | 100 | 1012.3 |
| 20260505063712 | 54 | 355 | 3.0 | 6.0 | 0.00 | 0.00 | 0.00 | 100 | 1012.3 |
| 20260505063644 | 54 | 30 | 3.0 | 6.0 | 0.00 | 0.00 | 0.00 | 100 | 1012.3 |
| 20260505063544 | 54 | 323 | 2.0 | 6.0 | 0.00 | 0.00 | 0.00 | 100 | 1012.2 |
| 20260505063444 | 54 | 355 | 3.0 | 6.0 | 0.00 | 0.00 | 0.00 | 100 | 1012.3 |
| 20260505063345 | 54 | 332 | 2.0 | 3.0 | 0.00 | 0.00 | 0.00 | 100 | 1012.2 |
| 20260505063245 | 54 | 351 | 3.0 | 5.0 | 0.00 | 0.00 | 0.00 | 100 | 1012.2 |
| 20260505063211 | 54 | 351 | 3.0 | 5.0 | 0.00 | 0.00 | 0.00 | 100 | 1012.2 |
| 20260505063145 | 54 | 344 | 4.0 | 5.0 | 0.00 | 0.00 | 0.00 | 100 | 1012.2 |
| 20260505063045 | 54 | 339 | 3.0 | 5.0 | 0.00 | 0.00 | 0.00 | 100 | 1012.2 |
| 20260505062944 | 54 | 20 | 3.0 | 4.0 | 0.00 | 0.00 | 0.00 | 100 | 1012.2 |
| 20260505062844 | 54 | 338 | 2.0 | 3.0 | 0.00 | 0.00 | 0.00 | 100 | 1012.2 |
| 20260505062744 | 54 | 10 | 2.0 | 5.0 | 0.00 | 0.00 | 0.00 | 100 | 1012.1 |
| 20260505062713 | 54 | 10 | 2.0 | 5.0 | 0.00 | 0.00 | 0.00 | 100 | 1012.1 |
| 20260505062644 | 54 | 329 | 1.0 | 5.0 | 0.00 | 0.00 | 0.00 | 100 | 1012.2 |
| 20260505062544 | 54 | 341 | 4.0 | 5.0 | 0.00 | 0.00 | 0.00 | 100 | 1012.2 |
| 20260505062444 | 54 | 360 | 3.0 | 5.0 | 0.00 | 0.00 | 0.00 | 100 | 1012.2 |
| 20260505062344 | 54 | 26 | 3.0 | 3.0 | 0.00 | 0.00 | 0.00 | 100 | 1012.2 |
| 20260505062245 | 54 | 35 | 3.0 | 7.0 | 0.00 | 0.00 | 0.00 | 100 | 1012.2 |
| 20260505062211 | 54 | 35 | 3.0 | 7.0 | 0.00 | 0.00 | 0.00 | 100 | 1012.2 |
| 20260505062145 | 53 | 37 | 3.0 | 7.0 | 0.00 | 0.00 | 0.00 | 100 | 1012.1 |
| 20260505062045 | 53 | 355 | 2.0 | 7.0 | 0.00 | 0.00 | 0.00 | 100 | 1012.1 |
| 20260505061945 | 53 | 355 | 3.0 | 7.0 | 0.00 | 0.00 | 0.00 | 100 | 1012.1 |
| 20260505061844 | 53 | 349 | 1.0 | 3.0 | 0.00 | 0.00 | 0.00 | 100 | 1012.1 |
| 20260505061744 | 53 | 5 | 2.0 | 6.0 | 0.00 | 0.00 | 0.00 | 100 | 1012.1 |
| 20260505061712 | 53 | 5 | 2.0 | 6.0 | 0.00 | 0.00 | 0.00 | 100 | 1012.1 |
| 20260505061646 | 53 | 5 | 6.0 | 6.0 | 0.00 | 0.00 | 0.00 | 100 | 1012.1 |
| 20260505061545 | 53 | 13 | 3.0 | 6.0 | 0.00 | 0.00 | 0.00 | 100 | 1012.1 |
| 20260505061445 | 53 | 341 | 4.0 | 6.0 | 0.00 | 0.00 | 0.00 | 100 | 1012.2 |
| 20260505061345 | 53 | 22 | 6.0 | 6.0 | 0.00 | 0.00 | 0.00 | 100 | 1012.1 |
| 20260505061245 | 53 | 35 | 3.0 | 9.0 | 0.00 | 0.00 | 0.00 | 100 | 1012.1 |
| 20260505061211 | 53 | 35 | 3.0 | 9.0 | 0.00 | 0.00 | 0.00 | 100 | 1012.1 |
| 20260505061145 | 53 | 17 | 2.0 | 9.0 | 0.00 | 0.00 | 0.00 | 100 | 1012.2 |
| 20260505061044 | 53 | 333 | 3.0 | 9.0 | 0.00 | 0.00 | 0.00 | 100 | 1012.2 |
| 20260505060944 | 53 | 340 | 3.0 | 9.0 | 0.00 | 0.00 | 0.00 | 100 | 1012.2 |
| 20260505060844 | 53 | 19 | 3.0 | 3.0 | 0.00 | 0.00 | 0.00 | 100 | 1012.2 |
| 20260505060745 | 53 | 355 | 3.0 | 5.0 | 0.00 | 0.00 | 0.00 | 100 | 1012.2 |
| 20260505060711 | 53 | 355 | 3.0 | 5.0 | 0.00 | 0.00 | 0.00 | 100 | 1012.2 |
| 20260505060645 | 53 | 11 | 3.0 | 5.0 | 0.00 | 0.00 | 0.00 | 100 | 1012.2 |
| 20260505060545 | 53 | 13 | 2.0 | 4.0 | 0.00 | 0.00 | 0.00 | 100 | 1012.2 |
| 20260505060445 | 53 | 53 | 3.0 | 4.0 | 0.00 | 0.00 | 0.00 | 100 | 1012.2 |
| 20260505060345 | 53 | 40 | 1.0 | 3.0 | 0.00 | 0.00 | 0.00 | 100 | 1012.2 |
| 20260505060245 | 53 | 58 | 4.0 | 8.0 | 0.00 | 0.00 | 0.00 | 100 | 1012.2 |
| 20260505060212 | 53 | 58 | 4.0 | 8.0 | 0.00 | 0.00 | 0.00 | 100 | 1012.2 |
| 20260505060144 | 53 | 30 | 3.0 | 8.0 | 0.00 | 0.00 | 0.00 | 100 | 1012.3 |
| 20260505060044 | 53 | 355 | 4.0 | 7.0 | 0.00 | 0.00 | 0.00 | 100 | 1012.3 |
| 20260505055945 | 53 | 5 | 5.0 | 7.0 | 0.00 | 0.00 | 0.00 | 100 | 1012.3 |
| 20260505055845 | 53 | 50 | 2.0 | 4.0 | 0.00 | 0.00 | 0.00 | 100 | 1012.3 |
| 20260505055745 | 53 | 46 | 3.0 | 7.0 | 0.00 | 0.00 | 0.00 | 100 | 1012.3 |
| 20260505055712 | 53 | 46 | 3.0 | 7.0 | 0.00 | 0.00 | 0.00 | 100 | 1012.3 |
| 20260505055644 | 53 | 51 | 2.0 | 6.0 | 0.00 | 0.00 | 0.00 | 100 | 1012.3 |
| 20260505055544 | 53 | 47 | 6.0 | 6.0 | 0.00 | 0.00 | 0.00 | 100 | 1012.3 |
| 20260505055444 | 53 | 10 | 3.0 | 4.0 | 0.00 | 0.00 | 0.00 | 100 | 1012.3 |
| 20260505055344 | 53 | 5 | 3.0 | 3.0 | 0.00 | 0.00 | 0.00 | 100 | 1012.3 |
| 20260505055244 | 53 | 57 | 3.0 | 6.0 | 0.00 | 0.00 | 0.00 | 100 | 1012.3 |
| 20260505055212 | 53 | 57 | 3.0 | 6.0 | 0.00 | 0.00 | 0.00 | 100 | 1012.3 |
| 20260505055144 | 53 | 5 | 3.0 | 6.0 | 0.00 | 0.00 | 0.00 | 100 | 1012.3 |
| 20260505055045 | 53 | 49 | 3.0 | 6.0 | 0.00 | 0.00 | 0.00 | 100 | 1012.3 |
| 20260505054945 | 53 | 11 | 4.0 | 6.0 | 0.00 | 0.00 | 0.00 | 100 | 1012.3 |
| 20260505054845 | 53 | 5 | 2.0 | 3.0 | 0.00 | 0.00 | 0.00 | 100 | 1012.3 |
| 20260505054747 | 53 | 36 | 3.0 | 5.0 | 0.00 | 0.00 | 0.00 | 100 | 1012.3 |
| 20260505054712 | 53 | 36 | 3.0 | 5.0 | 0.00 | 0.00 | 0.00 | 100 | 1012.3 |
| 20260505054645 | 53 | 351 | 5.0 | 5.0 | 0.00 | 0.00 | 0.00 | 100 | 1012.3 |
| 20260505054544 | 53 | 355 | 1.0 | 3.0 | 0.00 | 0.00 | 0.00 | 100 | 1012.3 |
| 20260505054444 | 53 | 355 | 3.0 | 3.0 | 0.00 | 0.00 | 0.00 | 100 | 1012.4 |
| 20260505054344 | 53 | 360 | 3.0 | 3.0 | 0.00 | 0.00 | 0.00 | 100 | 1012.3 |
| 20260505054244 | 53 | 336 | 3.0 | 6.0 | 0.00 | 0.00 | 0.00 | 100 | 1012.3 |
| 20260505054212 | 53 | 336 | 3.0 | 6.0 | 0.00 | 0.00 | 0.00 | 100 | 1012.3 |
| 20260505054144 | 53 | 355 | 4.0 | 6.0 | 0.00 | 0.00 | 0.00 | 100 | 1012.3 |
| 20260505054044 | 53 | 11 | 2.0 | 6.0 | 0.00 | 0.00 | 0.00 | 100 | 1012.3 |
| 20260505053944 | 53 | 42 | 4.0 | 6.0 | 0.00 | 0.00 | 0.00 | 100 | 1012.3 |
| 20260505053844 | 53 | 28 | 2.0 | 5.0 | 0.00 | 0.00 | 0.00 | 100 | 1012.3 |
| 20260505053744 | 53 | 9 | 5.0 | 8.0 | 0.00 | 0.00 | 0.00 | 100 | 1012.3 |
| 20260505053712 | 53 | 9 | 5.0 | 8.0 | 0.00 | 0.00 | 0.00 | 100 | 1012.3 |
| 20260505053646 | 53 | 355 | 2.0 | 8.0 | 0.00 | 0.00 | 0.00 | 100 | 1012.3 |
| 20260505053546 | 53 | 360 | 3.0 | 5.0 | 0.00 | 0.00 | 0.00 | 100 | 1012.3 |
| 20260505053446 | 53 | 18 | 3.0 | 4.0 | 0.00 | 0.00 | 0.00 | 100 | 1012.3 |
| 20260505053344 | 53 | 355 | 2.0 | 4.0 | 0.00 | 0.00 | 0.00 | 100 | 1012.3 |
| 20260505053244 | 53 | 344 | 3.0 | 4.0 | 0.00 | 0.00 | 0.00 | 100 | 1012.4 |
| 20260505053212 | 53 | 344 | 3.0 | 4.0 | 0.00 | 0.00 | 0.00 | 100 | 1012.4 |
| 20260505053144 | 53 | 26 | 3.0 | 3.0 | 0.00 | 0.00 | 0.00 | 100 | 1012.4 |
| 20260505053044 | 53 | 14 | 3.0 | 3.0 | 0.00 | 0.00 | 0.00 | 100 | 1012.4 |
| 20260505052946 | 53 | 5 | 2.0 | 3.0 | 0.00 | 0.00 | 0.00 | 100 | 1012.4 |
| 20260505052846 | 53 | 38 | 2.0 | 3.0 | 0.00 | 0.00 | 0.00 | 100 | 1012.4 |
| 20260505052745 | 53 | 9 | 3.0 | 6.0 | 0.00 | 0.00 | 0.00 | 100 | 1012.4 |
| 20260505052711 | 53 | 9 | 3.0 | 6.0 | 0.00 | 0.00 | 0.00 | 100 | 1012.4 |
| 20260505052644 | 53 | 9 | 4.0 | 6.0 | 0.00 | 0.00 | 0.00 | 100 | 1012.4 |
| 20260505052544 | 53 | 9 | 3.0 | 6.0 | 0.00 | 0.00 | 0.00 | 100 | 1012.4 |
| 20260505052444 | 53 | 355 | 3.0 | 6.0 | 0.00 | 0.00 | 0.00 | 100 | 1012.4 |
| 20260505052344 | 53 | 15 | 3.0 | 5.0 | 0.00 | 0.00 | 0.00 | 100 | 1012.4 |
| 20260505052244 | 53 | 5 | 4.0 | 4.0 | 0.00 | 0.00 | 0.00 | 100 | 1012.4 |
| 20260505052212 | 53 | 5 | 4.0 | 4.0 | 0.00 | 0.00 | 0.00 | 100 | 1012.4 |
| 20260505052144 | 53 | 17 | 3.0 | 4.0 | 0.00 | 0.00 | 0.00 | 100 | 1012.4 |
| 20260505052044 | 53 | 360 | 4.0 | 4.0 | 0.00 | 0.00 | 0.00 | 100 | 1012.4 |
| 20260505051945 | 53 | 31 | 4.0 | 4.0 | 0.00 | 0.00 | 0.00 | 100 | 1012.4 |
| 20260505051845 | 53 | 13 | 4.0 | 4.0 | 0.00 | 0.00 | 0.00 | 100 | 1012.4 |
| 20260505051745 | 53 | 355 | 3.0 | 7.0 | 0.00 | 0.00 | 0.00 | 100 | 1012.4 |
| 20260505051711 | 53 | 355 | 3.0 | 7.0 | 0.00 | 0.00 | 0.00 | 100 | 1012.4 |
| 20260505051645 | 53 | 41 | 5.0 | 7.0 | 0.00 | 0.00 | 0.00 | 100 | 1012.4 |
| 20260505051544 | 53 | 9 | 7.0 | 7.0 | 0.00 | 0.00 | 0.00 | 100 | 1012.4 |
| 20260505051444 | 53 | 5 | 2.0 | 3.0 | 0.00 | 0.00 | 0.00 | 100 | 1012.5 |
| 20260505051344 | 53 | 36 | 2.0 | 3.0 | 0.00 | 0.00 | 0.00 | 100 | 1012.4 |
| 20260505051244 | 53 | 37 | 2.0 | 4.0 | 0.00 | 0.00 | 0.00 | 100 | 1012.4 |
| 20260505051212 | 53 | 37 | 2.0 | 4.0 | 0.00 | 0.00 | 0.00 | 100 | 1012.4 |
| 20260505051144 | 53 | 5 | 3.0 | 4.0 | 0.00 | 0.00 | 0.00 | 100 | 1012.4 |
| 20260505051044 | 53 | 66 | 3.0 | 4.0 | 0.00 | 0.00 | 0.00 | 100 | 1012.5 |
| 20260505050944 | 53 | 5 | 2.0 | 3.0 | 0.00 | 0.00 | 0.00 | 100 | 1012.4 |
| 20260505050844 | 53 | 21 | 2.0 | 2.0 | 0.00 | 0.00 | 0.00 | 100 | 1012.4 |
| 20260505050744 | 53 | 26 | 2.0 | 3.0 | 0.00 | 0.00 | 0.00 | 100 | 1012.4 |
| 20260505050713 | 53 | 26 | 2.0 | 3.0 | 0.00 | 0.00 | 0.00 | 100 | 1012.4 |
| 20260505050645 | 53 | 18 | 1.0 | 3.0 | 0.00 | 0.00 | 0.00 | 100 | 1012.4 |
| 20260505050545 | 53 | 30 | 1.0 | 3.0 | 0.00 | 0.00 | 0.00 | 100 | 1012.4 |
| 20260505050446 | 53 | 28 | 3.0 | 3.0 | 0.00 | 0.00 | 0.00 | 100 | 1012.4 |
| 20260505050346 | 53 | 17 | 2.0 | 2.0 | 0.00 | 0.00 | 0.00 | 100 | 1012.4 |
| 20260505050246 | 53 | 16 | 2.0 | 5.0 | 0.00 | 0.00 | 0.00 | 100 | 1012.4 |
| 20260505050211 | 53 | 16 | 2.0 | 5.0 | 0.00 | 0.00 | 0.00 | 100 | 1012.4 |
| 20260505050144 | 53 | 26 | 1.0 | 5.0 | 0.00 | 0.00 | 0.00 | 100 | 1012.4 |
| 20260505041745 | 53 | 337 | 1.0 | 3.0 | 0.00 | 0.00 | 0.00 | 100 | 1012.5 |
| 20260505041713 | 53 | 337 | 1.0 | 3.0 | 0.00 | 0.00 | 0.00 | 100 | 1012.5 |
| 20260505041644 | 53 | 345 | 2.0 | 3.0 | 0.00 | 0.00 | 0.00 | 100 | 1012.5 |
| 20260505041545 | 53 | 351 | 2.0 | 3.0 | 0.00 | 0.00 | 0.00 | 100 | 1012.6 |
| 20260505041445 | 53 | 344 | 3.0 | 3.0 | 0.00 | 0.00 | 0.00 | 100 | 1012.5 |
| 20260505041345 | 53 | 351 | 3.0 | 3.0 | 0.00 | 0.00 | 0.00 | 100 | 1012.6 |
| 20260505041245 | 53 | 355 | 3.0 | 3.0 | 0.00 | 0.00 | 0.00 | 100 | 1012.6 |
| 20260505041211 | 53 | 355 | 3.0 | 3.0 | 0.00 | 0.00 | 0.00 | 100 | 1012.6 |
| 20260505041145 | 53 | 346 | 0.0 | 2.0 | 0.00 | 0.00 | 0.00 | 100 | 1012.5 |
| 20260505041045 | 53 | 338 | 0.0 | 2.0 | 0.00 | 0.00 | 0.00 | 100 | 1012.5 |
| 20260505040944 | 53 | 338 | 0.0 | 2.0 | 0.00 | 0.00 | 0.00 | 100 | 1012.5 |
| 20260505040844 | 53 | 355 | 1.0 | 2.0 | 0.00 | 0.00 | 0.00 | 100 | 1012.5 |
| 20260505040745 | 53 | 38 | 1.0 | 3.0 | 0.00 | 0.00 | 0.00 | 100 | 1012.5 |
| 20260505040712 | 53 | 38 | 1.0 | 3.0 | 0.00 | 0.00 | 0.00 | 100 | 1012.5 |
| 20260505040645 | 53 | 20 | 3.0 | 3.0 | 0.00 | 0.00 | 0.00 | 100 | 1012.5 |
| 20260505040544 | 53 | 350 | 2.0 | 3.0 | 0.00 | 0.00 | 0.00 | 100 | 1012.5 |
| 20260505040444 | 53 | 340 | 3.0 | 3.0 | 0.00 | 0.00 | 0.00 | 100 | 1012.5 |
| 20260505040344 | 53 | 18 | 3.0 | 3.0 | 0.00 | 0.00 | 0.00 | 100 | 1012.5 |
| 20260505040244 | 53 | 26 | 1.0 | 2.0 | 0.00 | 0.00 | 0.00 | 100 | 1012.5 |
| 20260505040212 | 53 | 26 | 1.0 | 2.0 | 0.00 | 0.00 | 0.00 | 100 | 1012.5 |
| 20260505040144 | 53 | 5 | 2.0 | 2.0 | 0.00 | 0.00 | 0.00 | 100 | 1012.5 |
| 20260505040044 | 53 | 5 | 1.0 | 2.0 | 0.00 | 0.00 | 0.00 | 100 | 1012.5 |
| 20260505035944 | 53 | 18 | 1.0 | 2.0 | 0.00 | 0.00 | 0.00 | 100 | 1012.4 |
| 20260505035845 | 53 | 22 | 1.0 | 2.0 | 0.00 | 0.00 | 0.00 | 100 | 1012.5 |
| 20260505035745 | 53 | 40 | 1.0 | 3.0 | 0.00 | 0.00 | 0.00 | 100 | 1012.4 |
| 20260505035713 | 53 | 40 | 1.0 | 3.0 | 0.00 | 0.00 | 0.00 | 100 | 1012.4 |
| 20260505035644 | 53 | 38 | 2.0 | 3.0 | 0.00 | 0.00 | 0.00 | 100 | 1012.4 |
| 20260505035544 | 53 | 42 | 1.0 | 3.0 | 0.00 | 0.00 | 0.00 | 100 | 1012.4 |
| 20260505035445 | 53 | 17 | 0.0 | 3.0 | 0.00 | 0.00 | 0.00 | 100 | 1012.4 |
| 20260505035345 | 53 | 17 | 2.0 | 3.0 | 0.00 | 0.00 | 0.00 | 100 | 1012.4 |
| 20260505035245 | 53 | 20 | 2.0 | 7.0 | 0.00 | 0.00 | 0.00 | 100 | 1012.5 |
| 20260505035211 | 53 | 20 | 2.0 | 7.0 | 0.00 | 0.00 | 0.00 | 100 | 1012.5 |
| 20260505035145 | 53 | 32 | 2.0 | 7.0 | 0.00 | 0.00 | 0.00 | 100 | 1012.4 |
| 20260505035045 | 53 | 9 | 3.0 | 7.0 | 0.00 | 0.00 | 0.00 | 100 | 1012.5 |
| 20260505034945 | 53 | 355 | 3.0 | 7.0 | 0.00 | 0.00 | 0.00 | 100 | 1012.5 |
| 20260505034845 | 53 | 19 | 3.0 | 7.0 | 0.00 | 0.00 | 0.00 | 100 | 1012.5 |
| 20260505034745 | 53 | 19 | 3.0 | 7.0 | 0.00 | 0.00 | 0.00 | 100 | 1012.5 |
| 20260505034713 | 53 | 19 | 3.0 | 7.0 | 0.00 | 0.00 | 0.00 | 100 | 1012.5 |
| 20260505034644 | 53 | 32 | 3.0 | 7.0 | 0.00 | 0.00 | 0.00 | 100 | 1012.5 |
| 20260505034544 | 53 | 32 | 4.0 | 7.0 | 0.00 | 0.00 | 0.00 | 100 | 1012.5 |
| 20260505034444 | 53 | 5 | 3.0 | 7.0 | 0.00 | 0.00 | 0.00 | 100 | 1012.5 |
| 20260505034344 | 53 | 15 | 1.0 | 7.0 | 0.00 | 0.00 | 0.00 | 100 | 1012.5 |
| 20260505034244 | 53 | 51 | 3.0 | 7.0 | 0.00 | 0.00 | 0.00 | 100 | 1012.5 |
| 20260505034212 | 53 | 51 | 3.0 | 7.0 | 0.00 | 0.00 | 0.00 | 100 | 1012.5 |
| 20260505034144 | 53 | 21 | 3.0 | 7.0 | 0.00 | 0.00 | 0.00 | 100 | 1012.5 |
| 20260505034045 | 53 | 342 | 4.0 | 6.0 | 0.00 | 0.00 | 0.00 | 100 | 1012.5 |
| 20260505033945 | 53 | 15 | 3.0 | 4.0 | 0.00 | 0.00 | 0.00 | 100 | 1012.5 |
| 20260505033845 | 53 | 19 | 2.0 | 4.0 | 0.00 | 0.00 | 0.00 | 100 | 1012.5 |
| 20260505033744 | 53 | 19 | 2.0 | 6.0 | 0.00 | 0.00 | 0.00 | 100 | 1012.5 |
| 20260505033712 | 53 | 19 | 2.0 | 6.0 | 0.00 | 0.00 | 0.00 | 100 | 1012.5 |
| 20260505033644 | 53 | 360 | 2.0 | 6.0 | 0.00 | 0.00 | 0.00 | 100 | 1012.5 |
| 20260505033544 | 53 | 360 | 3.0 | 6.0 | 0.00 | 0.00 | 0.00 | 100 | 1012.5 |
| 20260505033444 | 53 | 9 | 4.0 | 4.0 | 0.00 | 0.00 | 0.00 | 100 | 1012.5 |
| 20260505033346 | 53 | 19 | 3.0 | 3.0 | 0.00 | 0.00 | 0.00 | 100 | 1012.5 |
| 20260505033246 | 53 | 22 | 3.0 | 7.0 | 0.00 | 0.00 | 0.00 | 100 | 1012.6 |
| 20260505033213 | 53 | 22 | 3.0 | 7.0 | 0.00 | 0.00 | 0.00 | 100 | 1012.6 |
| 20260505033144 | 53 | 5 | 4.0 | 7.0 | 0.00 | 0.00 | 0.00 | 100 | 1012.5 |
| 20260505033044 | 53 | 355 | 5.0 | 7.0 | 0.00 | 0.00 | 0.00 | 100 | 1012.6 |
| 20260505032944 | 53 | 30 | 6.0 | 7.0 | 0.00 | 0.00 | 0.00 | 100 | 1012.6 |
| 20260505032844 | 53 | 5 | 2.0 | 6.0 | 0.00 | 0.00 | 0.00 | 100 | 1012.6 |
| 20260505032744 | 53 | 22 | 3.0 | 7.0 | 0.00 | 0.00 | 0.00 | 100 | 1012.6 |
| 20260505032711 | 53 | 22 | 3.0 | 7.0 | 0.00 | 0.00 | 0.00 | 100 | 1012.6 |
| 20260505032645 | 53 | 40 | 3.0 | 7.0 | 0.00 | 0.00 | 0.00 | 100 | 1012.6 |
| 20260505032545 | 53 | 23 | 3.0 | 7.0 | 0.00 | 0.00 | 0.00 | 100 | 1012.6 |
| 20260505032445 | 53 | 9 | 3.0 | 5.0 | 0.00 | 0.00 | 0.00 | 100 | 1012.6 |
| 20260505032345 | 53 | 39 | 3.0 | 3.0 | 0.00 | 0.00 | 0.00 | 100 | 1012.6 |
| 20260505032245 | 53 | 48 | 0.0 | 7.0 | 0.00 | 0.00 | 0.00 | 100 | 1012.6 |
| 20260505032211 | 53 | 48 | 0.0 | 7.0 | 0.00 | 0.00 | 0.00 | 100 | 1012.6 |
| 20260505032145 | 53 | 14 | 1.0 | 7.0 | 0.00 | 0.00 | 0.00 | 100 | 1012.6 |
| 20260505032045 | 53 | 37 | 3.0 | 7.0 | 0.00 | 0.00 | 0.00 | 100 | 1012.6 |
| 20260505031945 | 53 | 46 | 7.0 | 7.0 | 0.00 | 0.00 | 0.00 | 100 | 1012.6 |
| 20260505031846 | 53 | 46 | 5.0 | 5.0 | 0.00 | 0.00 | 0.00 | 100 | 1012.7 |
| 20260505031746 | 53 | 37 | 1.0 | 7.0 | 0.00 | 0.00 | 0.00 | 100 | 1012.6 |
| 20260505031712 | 53 | 37 | 1.0 | 7.0 | 0.00 | 0.00 | 0.00 | 100 | 1012.6 |
| 20260505031645 | 53 | 36 | 0.0 | 7.0 | 0.00 | 0.00 | 0.00 | 100 | 1012.7 |
| 20260505031545 | 53 | 36 | 2.0 | 7.0 | 0.00 | 0.00 | 0.00 | 100 | 1012.7 |
| 20260505031445 | 53 | 345 | 3.0 | 7.0 | 0.00 | 0.00 | 0.00 | 100 | 1012.7 |
| 20260505031345 | 53 | 24 | 1.0 | 3.0 | 0.00 | 0.00 | 0.00 | 100 | 1012.7 |
| 20260505031245 | 53 | 39 | 2.0 | 6.0 | 0.00 | 0.00 | 0.00 | 100 | 1012.7 |
| 20260505031211 | 53 | 39 | 2.0 | 6.0 | 0.00 | 0.00 | 0.00 | 100 | 1012.7 |
| 20260505031145 | 53 | 41 | 1.0 | 6.0 | 0.00 | 0.00 | 0.00 | 100 | 1012.7 |
| 20260505031045 | 53 | 43 | 4.0 | 5.0 | 0.00 | 0.00 | 0.00 | 100 | 1012.7 |
| 20260505030945 | 53 | 355 | 2.0 | 3.0 | 0.00 | 0.00 | 0.00 | 100 | 1012.8 |
| 20260505030844 | 54 | 55 | 1.0 | 2.0 | 0.00 | 0.00 | 0.00 | 100 | 1012.8 |
| 20260505030744 | 53 | 55 | 2.0 | 3.0 | 0.00 | 0.00 | 0.00 | 100 | 1012.8 |
| 20260505030712 | 53 | 55 | 2.0 | 3.0 | 0.00 | 0.00 | 0.00 | 100 | 1012.8 |
| 20260505030644 | 54 | 43 | 2.0 | 3.0 | 0.00 | 0.00 | 0.00 | 100 | 1012.8 |
| 20260505030544 | 54 | 53 | 3.0 | 3.0 | 0.00 | 0.00 | 0.00 | 100 | 1012.8 |
| 20260505030444 | 54 | 27 | 1.0 | 3.0 | 0.00 | 0.00 | 0.00 | 100 | 1012.8 |
| 20260505030346 | 54 | 45 | 3.0 | 3.0 | 0.00 | 0.00 | 0.00 | 100 | 1012.8 |
| 20260505030246 | 54 | 34 | 3.0 | 4.0 | 0.00 | 0.00 | 0.00 | 100 | 1012.8 |
| 20260505030212 | 54 | 34 | 3.0 | 4.0 | 0.00 | 0.00 | 0.00 | 100 | 1012.8 |
| 20260505030145 | 54 | 19 | 3.0 | 3.0 | 0.00 | 0.00 | 0.00 | 100 | 1012.8 |
| 20260505030045 | 54 | 34 | 3.0 | 3.0 | 0.00 | 0.00 | 0.00 | 100 | 1012.9 |
| 20260505025945 | 54 | 28 | 2.0 | 2.0 | 0.00 | 0.00 | 0.00 | 100 | 1012.8 |
| 20260505025845 | 54 | 13 | 2.0 | 2.0 | 0.00 | 0.00 | 0.00 | 100 | 1012.9 |
| 20260505025745 | 54 | 18 | 2.0 | 5.0 | 0.00 | 0.00 | 0.00 | 100 | 1012.8 |
| 20260505025711 | 54 | 18 | 2.0 | 5.0 | 0.00 | 0.00 | 0.00 | 100 | 1012.8 |
| 20260505025645 | 54 | 23 | 1.0 | 5.0 | 0.00 | 0.00 | 0.00 | 100 | 1012.8 |
| 20260505025545 | 54 | 33 | 2.0 | 5.0 | 0.00 | 0.00 | 0.00 | 100 | 1012.8 |
| 20260505025445 | 54 | 355 | 2.0 | 3.0 | 0.00 | 0.00 | 0.00 | 100 | 1012.8 |
| 20260505025344 | 54 | 5 | 3.0 | 3.0 | 0.00 | 0.00 | 0.00 | 100 | 1012.7 |
| 20260505025244 | 54 | 5 | 3.0 | 3.0 | 0.00 | 0.00 | 0.00 | 100 | 1012.8 |
| 20260505025212 | 54 | 5 | 3.0 | 3.0 | 0.00 | 0.00 | 0.00 | 100 | 1012.8 |
| 20260505025144 | 54 | 355 | 1.0 | 3.0 | 0.00 | 0.00 | 0.00 | 100 | 1012.8 |
| 20260505025044 | 54 | 360 | 1.0 | 3.0 | 0.00 | 0.00 | 0.00 | 100 | 1012.8 |
| 20260505024944 | 54 | 41 | 3.0 | 3.0 | 0.00 | 0.00 | 0.00 | 100 | 1012.8 |
| 20260505024846 | 54 | 11 | 2.0 | 3.0 | 0.00 | 0.00 | 0.00 | 100 | 1012.8 |
| 20260505024746 | 54 | 9 | 0.0 | 3.0 | 0.00 | 0.00 | 0.00 | 100 | 1012.8 |
| 20260505024712 | 54 | 9 | 0.0 | 3.0 | 0.00 | 0.00 | 0.00 | 100 | 1012.8 |
| 20260505024645 | 54 | 26 | 1.0 | 3.0 | 0.00 | 0.00 | 0.00 | 100 | 1012.8 |
| 20260505024545 | 54 | 38 | 2.0 | 3.0 | 0.00 | 0.00 | 0.00 | 100 | 1012.8 |
| 20260505024445 | 54 | 13 | 2.0 | 3.0 | 0.00 | 0.00 | 0.00 | 100 | 1012.8 |
| 20260505024345 | 54 | 23 | 2.0 | 3.0 | 0.00 | 0.00 | 0.00 | 100 | 1012.9 |
| 20260505024245 | 54 | 32 | 2.0 | 3.0 | 0.00 | 0.00 | 0.00 | 100 | 1012.9 |
| 20260505024211 | 54 | 32 | 2.0 | 3.0 | 0.00 | 0.00 | 0.00 | 100 | 1012.9 |
| 20260505024145 | 54 | 41 | 1.0 | 3.0 | 0.00 | 0.00 | 0.00 | 100 | 1012.9 |
| 20260505024045 | 54 | 11 | 2.0 | 3.0 | 0.00 | 0.00 | 0.00 | 100 | 1012.9 |
| 20260505023945 | 54 | 29 | 2.0 | 3.0 | 0.00 | 0.00 | 0.00 | 100 | 1012.9 |
| 20260505023845 | 54 | 49 | 3.0 | 3.0 | 0.00 | 0.00 | 0.00 | 100 | 1012.9 |
| 20260505023745 | 54 | 9 | 3.0 | 4.0 | 0.00 | 0.00 | 0.00 | 100 | 1012.9 |
| 20260505023713 | 54 | 9 | 3.0 | 4.0 | 0.00 | 0.00 | 0.00 | 100 | 1012.9 |
| 20260505023645 | 54 | 22 | 3.0 | 4.0 | 0.00 | 0.00 | 0.00 | 100 | 1012.9 |
| 20260505023545 | 54 | 27 | 2.0 | 4.0 | 0.00 | 0.00 | 0.00 | 100 | 1012.9 |
| 20260505023445 | 54 | 18 | 1.0 | 4.0 | 0.00 | 0.00 | 0.00 | 100 | 1013.0 |
| 20260505023345 | 54 | 61 | 1.0 | 4.0 | 0.00 | 0.00 | 0.00 | 100 | 1012.9 |
| 20260505023245 | 54 | 63 | 2.0 | 4.0 | 0.00 | 0.00 | 0.00 | 100 | 1013.0 |
| 20260505023212 | 54 | 63 | 2.0 | 4.0 | 0.00 | 0.00 | 0.00 | 100 | 1013.0 |
| 20260505023144 | 54 | 27 | 3.0 | 4.0 | 0.00 | 0.00 | 0.00 | 100 | 1013.0 |
| 20260505023044 | 54 | 74 | 3.0 | 4.0 | 0.00 | 0.00 | 0.00 | 100 | 1013.0 |
| 20260505022944 | 54 | 46 | 4.0 | 4.0 | 0.00 | 0.00 | 0.00 | 100 | 1013.0 |
| 20260505022845 | 54 | 30 | 2.0 | 2.0 | 0.00 | 0.00 | 0.00 | 100 | 1013.0 |
| 20260505022745 | 54 | 68 | 1.0 | 7.0 | 0.00 | 0.00 | 0.00 | 100 | 1013.0 |
| 20260505022711 | 54 | 68 | 1.0 | 7.0 | 0.00 | 0.00 | 0.00 | 100 | 1013.0 |
| 20260505022645 | 54 | 71 | 3.0 | 7.0 | 0.00 | 0.00 | 0.00 | 100 | 1013.1 |
| 20260505022544 | 54 | 50 | 3.0 | 4.0 | 0.00 | 0.00 | 0.00 | 100 | 1013.1 |
| 20260505022444 | 54 | 38 | 2.0 | 4.0 | 0.00 | 0.00 | 0.00 | 100 | 1013.1 |
| 20260505022344 | 54 | 18 | 3.0 | 3.0 | 0.00 | 0.00 | 0.00 | 100 | 1013.1 |
| 20260505022244 | 54 | 66 | 3.0 | 4.0 | 0.00 | 0.00 | 0.00 | 100 | 1013.1 |
| 20260505022212 | 54 | 66 | 3.0 | 4.0 | 0.00 | 0.00 | 0.00 | 100 | 1013.1 |
| 20260505022144 | 54 | 49 | 4.0 | 4.0 | 0.00 | 0.00 | 0.00 | 100 | 1013.0 |
| 20260505022044 | 54 | 60 | 1.0 | 3.0 | 0.00 | 0.00 | 0.00 | 100 | 1013.0 |
| 20260505021946 | 54 | 58 | 1.0 | 3.0 | 0.00 | 0.00 | 0.00 | 100 | 1013.1 |
| 20260505021844 | 54 | 66 | 1.0 | 3.0 | 0.00 | 0.00 | 0.00 | 100 | 1013.0 |
| 20260505021744 | 54 | 55 | 4.0 | 5.0 | 0.00 | 0.00 | 0.00 | 100 | 1013.0 |
| 20260505021712 | 54 | 55 | 4.0 | 5.0 | 0.00 | 0.00 | 0.00 | 100 | 1013.0 |
| 20260505021644 | 54 | 29 | 1.0 | 3.0 | 0.00 | 0.00 | 0.00 | 100 | 1013.0 |
| 20260505021544 | 54 | 44 | 0.0 | 3.0 | 0.00 | 0.00 | 0.00 | 100 | 1013.0 |
| 20260505021444 | 54 | 89 | 3.0 | 3.0 | 0.00 | 0.00 | 0.00 | 100 | 1013.0 |
| 20260505021344 | 54 | 49 | 0.0 | 1.0 | 0.00 | 0.00 | 0.00 | 100 | 1013.0 |
| 20260505021245 | 54 | 49 | 1.0 | 5.0 | 0.00 | 0.00 | 0.00 | 100 | 1013.0 |
| 20260505021211 | 54 | 49 | 1.0 | 5.0 | 0.00 | 0.00 | 0.00 | 100 | 1013.0 |
| 20260505021145 | 54 | 57 | 4.0 | 5.0 | 0.00 | 0.00 | 0.00 | 100 | 1013.0 |
| 20260505021045 | 54 | 96 | 4.0 | 5.0 | 0.00 | 0.00 | 0.00 | 100 | 1013.0 |
| 20260505020945 | 54 | 66 | 3.0 | 3.0 | 0.00 | 0.00 | 0.00 | 100 | 1013.0 |
| 20260505020845 | 54 | 80 | 3.0 | 3.0 | 0.00 | 0.00 | 0.00 | 100 | 1013.0 |
| 20260505020745 | 54 | 36 | 1.0 | 4.0 | 0.00 | 0.00 | 0.00 | 100 | 1013.0 |
| 20260505020711 | 54 | 36 | 1.0 | 4.0 | 0.00 | 0.00 | 0.00 | 100 | 1013.0 |
| 20260505020645 | 54 | 10 | 3.0 | 4.0 | 0.00 | 0.00 | 0.00 | 100 | 1013.0 |
| 20260505020545 | 54 | 40 | 2.0 | 3.0 | 0.00 | 0.00 | 0.00 | 100 | 1013.0 |
| 20260505020445 | 54 | 34 | 2.0 | 3.0 | 0.00 | 0.00 | 0.00 | 100 | 1013.0 |
| 20260505020345 | 54 | 29 | 1.0 | 3.0 | 0.00 | 0.00 | 0.00 | 100 | 1013.0 |
| 20260505020246 | 54 | 90 | 3.0 | 3.0 | 0.00 | 0.00 | 0.00 | 100 | 1013.0 |
| 20260505020212 | 54 | 90 | 3.0 | 3.0 | 0.00 | 0.00 | 0.00 | 100 | 1013.0 |
| 20260505020145 | 54 | 55 | 3.0 | 3.0 | 0.00 | 0.00 | 0.00 | 100 | 1013.0 |
| 20260505020045 | 54 | 28 | 1.0 | 2.0 | 0.00 | 0.00 | 0.00 | 100 | 1013.1 |
| 20260505015945 | 54 | 29 | 1.0 | 2.0 | 0.00 | 0.00 | 0.00 | 100 | 1013.0 |
| 20260505015845 | 54 | 20 | 0.0 | 1.0 | 0.00 | 0.00 | 0.00 | 100 | 1013.1 |
| 20260505015745 | 54 | 11 | 1.0 | 3.0 | 0.00 | 0.00 | 0.00 | 100 | 1013.0 |
| 20260505015711 | 54 | 11 | 1.0 | 3.0 | 0.00 | 0.00 | 0.00 | 100 | 1013.0 |
| 20260505015645 | 54 | 30 | 0.0 | 3.0 | 0.00 | 0.00 | 0.00 | 100 | 1013.0 |
| 20260505015544 | 54 | 34 | 0.0 | 3.0 | 0.00 | 0.00 | 0.00 | 100 | 1013.0 |
| 20260505015444 | 54 | 16 | 1.0 | 3.0 | 0.00 | 0.00 | 0.00 | 100 | 1013.0 |
| 20260505015344 | 54 | 5 | 1.0 | 3.0 | 0.00 | 0.00 | 0.00 | 100 | 1013.0 |
| 20260505015244 | 54 | 5 | 2.0 | 5.0 | 0.00 | 0.00 | 0.00 | 100 | 1013.0 |
| 20260505015212 | 54 | 5 | 2.0 | 5.0 | 0.00 | 0.00 | 0.00 | 100 | 1013.0 |
| 20260505015145 | 54 | 24 | 1.0 | 5.0 | 0.00 | 0.00 | 0.00 | 100 | 1013.0 |
| 20260505015045 | 54 | 40 | 3.0 | 5.0 | 0.00 | 0.00 | 0.00 | 100 | 1013.1 |
| 20260505014945 | 54 | 57 | 2.0 | 5.0 | 0.00 | 0.00 | 0.00 | 100 | 1013.1 |
| 20260505014845 | 54 | 34 | 3.0 | 5.0 | 0.00 | 0.00 | 0.00 | 100 | 1013.1 |
| 20260505014745 | 54 | 31 | 4.0 | 5.0 | 0.00 | 0.00 | 0.00 | 100 | 1013.1 |
| 20260505014711 | 54 | 31 | 4.0 | 5.0 | 0.00 | 0.00 | 0.00 | 100 | 1013.1 |
| 20260505014646 | 54 | 19 | 2.0 | 3.0 | 0.00 | 0.00 | 0.00 | 100 | 1013.1 |
| 20260505014545 | 54 | 15 | 1.0 | 3.0 | 0.00 | 0.00 | 0.00 | 100 | 1013.0 |
| 20260505014445 | 54 | 5 | 1.0 | 3.0 | 0.00 | 0.00 | 0.00 | 100 | 1013.1 |
| 20260505014345 | 54 | 9 | 3.0 | 3.0 | 0.00 | 0.00 | 0.00 | 100 | 1013.0 |
| 20260505014245 | 54 | 36 | 1.0 | 3.0 | 0.00 | 0.00 | 0.00 | 100 | 1013.0 |
| 20260505014212 | 54 | 36 | 1.0 | 3.0 | 0.00 | 0.00 | 0.00 | 100 | 1013.0 |
| 20260505014144 | 54 | 34 | 0.0 | 3.0 | 0.00 | 0.00 | 0.00 | 100 | 1013.0 |
| 20260505014045 | 54 | 34 | 2.0 | 3.0 | 0.00 | 0.00 | 0.00 | 100 | 1013.0 |
| 20260505013945 | 54 | 5 | 2.0 | 3.0 | 0.00 | 0.00 | 0.00 | 100 | 1013.0 |
| 20260505013845 | 54 | 5 | 2.0 | 2.0 | 0.00 | 0.00 | 0.00 | 100 | 1013.0 |
| 20260505013745 | 54 | 24 | 0.0 | 3.0 | 0.00 | 0.00 | 0.00 | 100 | 1013.0 |
| 20260505013713 | 54 | 24 | 0.0 | 3.0 | 0.00 | 0.00 | 0.00 | 100 | 1013.0 |
| 20260505013644 | 54 | 24 | 1.0 | 3.0 | 0.00 | 0.00 | 0.00 | 100 | 1013.0 |
| 20260505013544 | 54 | 50 | 2.0 | 3.0 | 0.00 | 0.00 | 0.00 | 100 | 1013.0 |
| 20260505013445 | 54 | 28 | 1.0 | 1.0 | 0.00 | 0.00 | 0.00 | 100 | 1013.0 |
| 20260505013345 | 54 | 28 | 0.0 | 1.0 | 0.00 | 0.00 | 0.00 | 100 | 1013.1 |
| 20260505013245 | 54 | 27 | 2.0 | 3.0 | 0.00 | 0.00 | 0.00 | 100 | 1013.0 |
| 20260505013211 | 54 | 27 | 2.0 | 3.0 | 0.00 | 0.00 | 0.00 | 100 | 1013.0 |
| 20260505013145 | 54 | 355 | 2.0 | 3.0 | 0.00 | 0.00 | 0.00 | 100 | 1013.0 |
| 20260505013045 | 54 | 5 | 2.0 | 3.0 | 0.00 | 0.00 | 0.00 | 100 | 1013.1 |
| 20260505012945 | 54 | 5 | 2.0 | 3.0 | 0.00 | 0.00 | 0.00 | 100 | 1013.0 |
| 20260505012844 | 54 | 13 | 1.0 | 3.0 | 0.00 | 0.00 | 0.00 | 100 | 1013.0 |
| 20260505012744 | 54 | 5 | 2.0 | 3.0 | 0.00 | 0.00 | 0.00 | 100 | 1013.0 |
| 20260505012712 | 54 | 5 | 2.0 | 3.0 | 0.00 | 0.00 | 0.00 | 100 | 1013.0 |
| 20260505012644 | 54 | 23 | 1.0 | 2.0 | 0.00 | 0.00 | 0.00 | 100 | 1013.0 |
| 20260505012544 | 54 | 11 | 0.0 | 2.0 | 0.00 | 0.00 | 0.00 | 100 | 1013.0 |
| 20260505012444 | 54 | 5 | 0.0 | 1.0 | 0.00 | 0.00 | 0.00 | 100 | 1013.1 |
| 20260505012344 | 54 | 5 | 0.0 | 1.0 | 0.00 | 0.00 | 0.00 | 100 | 1013.1 |
| 20260505012244 | 54 | 5 | 0.0 | 3.0 | 0.00 | 0.00 | 0.00 | 100 | 1013.1 |
| 20260505012212 | 54 | 5 | 0.0 | 3.0 | 0.00 | 0.00 | 0.00 | 100 | 1013.1 |
| 20260505012145 | 54 | 11 | 2.0 | 3.0 | 0.00 | 0.00 | 0.00 | 100 | 1013.2 |